Time,TemperatureF,DewpointF,PressureIn,WindDirection,WindDirectionDegrees,WindSpeedMPH,WindSpeedGustMPH,Humidity,HourlyPrecipIn,Conditions,Clouds,dailyrainin,SoftwareType,DateUTC
2013-11-16 00:00:00,50.0,48.3,29.53,WSW,248,7.6,12.1,94,0.00,,,0.00,VWS V14.01,2013-11-16 08:00:00,
2013-11-16 00:01:00,50.0,48.3,29.53,WSW,248,7.6,11.0,94,0.00,,,0.00,VWS V14.01,2013-11-16 08:01:00,
2013-11-16 00:02:00,49.8,48.5,29.53,SW,225,6.3,11.0,95,0.00,,,0.00,VWS V14.01,2013-11-16 08:02:00,
2013-11-16 00:03:00,49.8,48.5,29.53,SSW,202,7.8,11.0,95,0.00,,,0.00,VWS V14.01,2013-11-16 08:03:00,
2013-11-16 00:04:00,49.8,48.5,29.53,WSW,248,11.9,11.9,95,0.00,,,0.00,VWS V14.01,2013-11-16 08:04:00,
2013-11-16 00:05:00,49.8,48.5,29.53,WSW,248,9.8,11.9,95,0.00,,,0.00,VWS V14.01,2013-11-16 08:05:00,
2013-11-16 00:06:00,49.8,48.5,29.53,WSW,248,9.8,11.9,95,0.00,,,0.00,VWS V14.01,2013-11-16 08:06:00,
2013-11-16 00:07:00,49.8,48.5,29.53,West,270,10.5,11.9,95,0.00,,,0.00,VWS V14.01,2013-11-16 08:07:00,
2013-11-16 00:08:00,49.8,48.5,29.53,SW,225,8.7,11.9,95,0.00,,,0.00,VWS V14.01,2013-11-16 08:08:00,
2013-11-16 00:09:00,49.8,48.5,29.53,WSW,248,8.5,10.7,95,0.00,,,0.00,VWS V14.01,2013-11-16 08:09:00,
2013-11-16 00:10:00,49.6,48.3,29.53,West,270,5.4,10.7,95,0.00,,,0.00,VWS V14.01,2013-11-16 08:10:00,
2013-11-16 00:11:00,49.6,48.3,29.53,West,270,5.4,10.7,95,0.00,,,0.00,VWS V14.01,2013-11-16 08:11:00,
2013-11-16 00:12:00,49.6,48.3,29.53,WSW,248,9.2,9.2,95,0.00,,,0.00,VWS V14.01,2013-11-16 08:12:00,
2013-11-16 00:13:00,49.6,48.3,29.53,West,270,10.5,10.5,95,0.00,,,0.00,VWS V14.01,2013-11-16 08:13:00,
2013-11-16 00:14:00,49.6,48.3,29.53,WSW,248,7.8,10.5,95,0.00,,,0.00,VWS V14.01,2013-11-16 08:14:00,
2013-11-16 00:15:00,49.6,48.3,29.53,WSW,248,8.7,10.5,95,0.00,,,0.00,VWS V14.01,2013-11-16 08:15:00,
2013-11-16 00:16:00,49.6,48.3,29.53,WSW,248,8.7,10.5,95,0.00,,,0.00,VWS V14.01,2013-11-16 08:16:00,
2013-11-16 00:17:00,49.6,48.3,29.53,West,270,5.6,8.7,95,0.00,,,0.00,VWS V14.01,2013-11-16 08:17:00,
2013-11-16 00:18:00,49.6,48.3,29.53,WSW,248,10.7,10.7,95,0.00,,,0.00,VWS V14.01,2013-11-16 08:18:00,
2013-11-16 00:19:00,49.6,48.3,29.53,West,270,5.6,10.7,95,0.00,,,0.00,VWS V14.01,2013-11-16 08:19:00,
2013-11-16 00:20:00,49.6,48.3,29.53,WSW,248,7.6,10.7,95,0.00,,,0.00,VWS V14.01,2013-11-16 08:20:00,
2013-11-16 00:21:00,49.6,48.3,29.53,WSW,248,7.6,10.7,95,0.00,,,0.00,VWS V14.01,2013-11-16 08:21:00,
2013-11-16 00:22:00,49.6,48.3,29.53,WSW,248,5.4,8.7,95,0.00,,,0.00,VWS V14.01,2013-11-16 08:22:00,
2013-11-16 00:23:00,49.6,48.3,29.53,WSW,248,5.4,8.7,95,0.00,,,0.00,VWS V14.01,2013-11-16 08:23:00,
2013-11-16 00:24:00,49.6,48.3,29.53,WSW,248,5.6,8.7,95,0.00,,,0.00,VWS V14.01,2013-11-16 08:24:00,
2013-11-16 00:25:00,49.5,48.1,29.53,WSW,248,7.2,7.6,95,0.00,,,0.00,VWS V14.01,2013-11-16 08:25:00,
2013-11-16 00:26:00,49.5,48.1,29.53,WSW,248,7.2,7.2,95,0.00,,,0.00,VWS V14.01,2013-11-16 08:26:00,
2013-11-16 00:27:00,49.5,48.1,29.53,WSW,248,7.2,7.2,95,0.00,,,0.00,VWS V14.01,2013-11-16 08:27:00,
2013-11-16 00:28:00,49.5,48.1,29.53,WSW,248,11.2,11.2,95,0.00,,,0.00,VWS V14.01,2013-11-16 08:28:00,
2013-11-16 00:29:00,49.5,48.1,29.53,SSW,202,7.4,11.2,95,0.00,,,0.00,VWS V14.01,2013-11-16 08:29:00,
2013-11-16 00:30:00,49.5,48.1,29.53,WSW,248,5.6,11.2,95,0.00,,,0.00,VWS V14.01,2013-11-16 08:30:00,
2013-11-16 00:31:00,49.5,48.1,29.53,WSW,248,5.6,11.2,95,0.00,,,0.00,VWS V14.01,2013-11-16 08:31:00,
2013-11-16 00:32:00,49.3,47.9,29.53,WSW,248,8.1,8.1,95,0.00,,,0.00,VWS V14.01,2013-11-16 08:32:00,
2013-11-16 00:33:00,49.3,47.9,29.53,WSW,248,4.0,8.1,95,0.00,,,0.00,VWS V14.01,2013-11-16 08:33:00,
2013-11-16 00:34:00,49.3,47.9,29.53,SW,225,8.5,8.5,95,0.00,,,0.00,VWS V14.01,2013-11-16 08:34:00,
2013-11-16 00:35:00,49.3,47.9,29.53,West,270,4.0,8.5,95,0.00,,,0.00,VWS V14.01,2013-11-16 08:35:00,
2013-11-16 00:37:00,49.3,47.9,29.53,West,270,6.3,8.5,95,0.00,,,0.00,VWS V14.01,2013-11-16 08:37:00,
2013-11-16 00:38:00,49.3,47.9,29.53,WSW,248,5.8,7.4,95,0.00,,,0.00,VWS V14.01,2013-11-16 08:38:00,
2013-11-16 00:39:00,49.1,47.7,29.53,WSW,248,4.3,6.3,95,0.00,,,0.00,VWS V14.01,2013-11-16 08:39:00,
2013-11-16 00:40:00,49.1,47.7,29.53,South,180,9.4,9.4,95,0.00,,,0.00,VWS V14.01,2013-11-16 08:40:00,
2013-11-16 00:41:00,49.1,47.7,29.53,South,180,9.4,9.4,95,0.00,,,0.00,VWS V14.01,2013-11-16 08:41:00,
2013-11-16 00:42:00,49.1,47.7,29.53,WSW,248,6.3,9.4,95,0.00,,,0.00,VWS V14.01,2013-11-16 08:42:00,
2013-11-16 00:43:00,49.1,47.7,29.53,SSW,202,4.3,9.4,95,0.00,,,0.00,VWS V14.01,2013-11-16 08:43:00,
2013-11-16 00:44:00,49.1,47.7,29.53,SSW,202,5.6,9.4,95,0.00,,,0.00,VWS V14.01,2013-11-16 08:44:00,
2013-11-16 00:45:00,49.1,47.7,29.53,WSW,248,2.7,7.6,95,0.00,,,0.00,VWS V14.01,2013-11-16 08:45:00,
2013-11-16 00:46:00,49.1,47.7,29.53,WSW,248,2.7,7.6,95,0.00,,,0.00,VWS V14.01,2013-11-16 08:46:00,
2013-11-16 00:47:00,49.1,47.7,29.53,WSW,248,3.8,7.6,95,0.00,,,0.00,VWS V14.01,2013-11-16 08:47:00,
2013-11-16 00:48:00,48.9,47.5,29.53,West,270,2.9,7.6,95,0.00,,,0.00,VWS V14.01,2013-11-16 08:48:00,
2013-11-16 00:49:00,48.9,47.5,29.53,WSW,248,3.4,3.8,95,0.00,,,0.00,VWS V14.01,2013-11-16 08:49:00,
2013-11-16 00:50:00,48.9,47.5,29.53,SW,225,7.8,7.8,95,0.00,,,0.00,VWS V14.01,2013-11-16 08:50:00,
2013-11-16 00:51:00,48.9,47.5,29.53,WSW,248,3.1,7.8,95,0.00,,,0.00,VWS V14.01,2013-11-16 08:51:00,
2013-11-16 00:52:00,48.9,47.5,29.53,SSW,202,7.4,7.8,95,0.00,,,0.00,VWS V14.01,2013-11-16 08:52:00,
2013-11-16 00:53:00,48.9,47.5,29.53,West,270,6.0,7.8,95,0.00,,,0.00,VWS V14.01,2013-11-16 08:53:00,
2013-11-16 00:54:00,48.9,47.5,29.53,WSW,248,6.3,7.4,95,0.00,,,0.00,VWS V14.01,2013-11-16 08:54:00,
2013-11-16 00:55:00,49.1,47.7,29.53,WSW,248,8.7,8.7,95,0.00,,,0.00,VWS V14.01,2013-11-16 08:55:00,
2013-11-16 00:57:00,49.1,47.7,29.53,SSW,202,9.6,9.6,95,0.00,,,0.00,VWS V14.01,2013-11-16 08:57:00,
2013-11-16 00:58:00,49.1,47.7,29.53,SSW,202,9.6,9.6,95,0.00,,,0.00,VWS V14.01,2013-11-16 08:58:00,
2013-11-16 00:59:00,49.1,47.7,29.53,WSW,248,9.6,9.6,95,0.00,,,0.00,VWS V14.01,2013-11-16 08:59:00,
2013-11-16 01:00:00,49.1,47.7,29.53,SSW,202,10.3,10.3,95,0.00,,,0.00,VWS V14.01,2013-11-16 09:00:00,
2013-11-16 01:01:00,49.1,47.7,29.53,SSW,202,10.3,10.3,95,0.00,,,0.00,VWS V14.01,2013-11-16 09:01:00,
2013-11-16 01:03:00,49.1,47.7,29.53,SW,225,6.5,10.3,95,0.00,,,0.00,VWS V14.01,2013-11-16 09:03:00,
2013-11-16 01:05:00,49.1,47.5,29.53,WSW,248,7.4,8.5,94,0.00,,,0.00,VWS V14.01,2013-11-16 09:05:00,
2013-11-16 01:06:00,49.1,47.5,29.53,WSW,248,7.4,8.5,94,0.00,,,0.00,VWS V14.01,2013-11-16 09:06:00,
2013-11-16 01:07:00,49.1,47.5,29.53,SW,225,5.8,8.5,94,0.00,,,0.00,VWS V14.01,2013-11-16 09:07:00,
2013-11-16 01:08:00,49.1,47.5,29.53,WSW,248,7.2,8.5,94,0.00,,,0.00,VWS V14.01,2013-11-16 09:08:00,
2013-11-16 01:09:00,49.1,47.5,29.53,SW,225,10.3,10.3,94,0.00,,,0.00,VWS V14.01,2013-11-16 09:09:00,
2013-11-16 01:10:00,49.1,47.5,29.53,SW,225,4.0,10.3,94,0.00,,,0.00,VWS V14.01,2013-11-16 09:10:00,
2013-11-16 01:11:00,49.1,47.5,29.53,SW,225,4.0,10.3,94,0.00,,,0.00,VWS V14.01,2013-11-16 09:11:00,
2013-11-16 01:12:00,49.1,47.5,29.53,WSW,248,4.9,10.3,94,0.00,,,0.00,VWS V14.01,2013-11-16 09:12:00,
2013-11-16 01:13:00,49.1,47.5,29.53,WSW,248,5.4,10.3,94,0.00,,,0.00,VWS V14.01,2013-11-16 09:13:00,
2013-11-16 01:14:00,49.1,47.5,29.53,WSW,248,5.4,10.3,94,0.00,,,0.00,VWS V14.01,2013-11-16 09:14:00,
2013-11-16 01:15:00,49.1,47.5,29.53,WSW,248,5.4,8.1,94,0.00,,,0.00,VWS V14.01,2013-11-16 09:15:00,
2013-11-16 01:16:00,49.1,47.5,29.53,WSW,248,4.7,8.1,94,0.00,,,0.00,VWS V14.01,2013-11-16 09:16:00,
2013-11-16 01:17:00,48.9,47.3,29.53,WSW,248,7.4,7.4,94,0.00,,,0.00,VWS V14.01,2013-11-16 09:17:00,
2013-11-16 01:18:00,49.1,47.5,29.53,West,270,6.3,7.4,94,0.00,,,0.00,VWS V14.01,2013-11-16 09:18:00,
2013-11-16 01:19:00,49.1,47.5,29.53,SSW,202,7.8,7.8,94,0.00,,,0.00,VWS V14.01,2013-11-16 09:19:00,
2013-11-16 01:20:00,49.1,47.5,29.50,SSW,202,7.6,7.8,94,0.00,,,0.00,VWS V14.01,2013-11-16 09:20:00,
2013-11-16 01:21:00,49.1,47.5,29.50,WSW,248,5.6,7.8,94,0.00,,,0.00,VWS V14.01,2013-11-16 09:21:00,
2013-11-16 01:22:00,49.1,47.5,29.50,SW,225,10.7,10.7,94,0.00,,,0.00,VWS V14.01,2013-11-16 09:22:00,
2013-11-16 01:23:00,49.1,47.5,29.50,SW,225,10.7,10.7,94,0.00,,,0.00,VWS V14.01,2013-11-16 09:23:00,
2013-11-16 01:24:00,49.1,47.5,29.50,WSW,248,8.7,10.7,94,0.00,,,0.00,VWS V14.01,2013-11-16 09:24:00,
2013-11-16 01:25:00,49.1,47.5,29.50,SW,225,9.4,10.7,94,0.00,,,0.00,VWS V14.01,2013-11-16 09:25:00,
2013-11-16 01:26:00,49.1,47.5,29.50,SW,225,9.4,10.7,94,0.00,,,0.00,VWS V14.01,2013-11-16 09:26:00,
2013-11-16 01:27:00,49.3,47.9,29.50,WSW,248,7.6,9.4,95,0.00,,,0.00,VWS V14.01,2013-11-16 09:27:00,
2013-11-16 01:29:00,49.3,47.9,29.50,WSW,248,7.4,12.3,95,0.00,,,0.00,VWS V14.01,2013-11-16 09:29:00,
2013-11-16 01:30:00,49.3,47.9,29.50,SW,225,7.8,12.3,95,0.00,,,0.00,VWS V14.01,2013-11-16 09:30:00,
2013-11-16 01:31:00,49.3,47.9,29.50,SW,225,7.8,12.3,95,0.00,,,0.00,VWS V14.01,2013-11-16 09:31:00,
2013-11-16 01:32:00,49.3,47.9,29.50,West,270,6.3,8.7,95,0.00,,,0.00,VWS V14.01,2013-11-16 09:32:00,
2013-11-16 01:33:00,49.3,47.9,29.50,WNW,292,5.4,8.7,95,0.00,,,0.00,VWS V14.01,2013-11-16 09:33:00,
2013-11-16 01:34:00,49.3,47.9,29.50,SW,225,10.3,10.3,95,0.00,,,0.00,VWS V14.01,2013-11-16 09:34:00,
2013-11-16 01:35:00,49.3,47.9,29.53,SW,225,5.6,10.3,95,0.00,,,0.00,VWS V14.01,2013-11-16 09:35:00,
2013-11-16 01:36:00,49.3,47.9,29.53,SSW,202,4.7,10.3,95,0.00,,,0.00,VWS V14.01,2013-11-16 09:36:00,
2013-11-16 01:37:00,49.3,47.9,29.53,SSW,202,4.7,10.3,95,0.00,,,0.00,VWS V14.01,2013-11-16 09:37:00,
2013-11-16 01:38:00,49.1,47.7,29.53,WSW,248,4.0,10.3,95,0.00,,,0.00,VWS V14.01,2013-11-16 09:38:00,
2013-11-16 01:39:00,49.1,47.7,29.53,WNW,292,3.6,10.3,95,0.00,,,0.00,VWS V14.01,2013-11-16 09:39:00,
2013-11-16 01:40:00,49.1,47.7,29.53,SSW,202,4.0,5.6,95,0.00,,,0.00,VWS V14.01,2013-11-16 09:40:00,
2013-11-16 01:41:00,49.1,47.7,29.53,SSW,202,4.0,4.7,95,0.00,,,0.00,VWS V14.01,2013-11-16 09:41:00,
2013-11-16 01:42:00,49.1,47.7,29.53,WSW,248,4.9,4.9,95,0.00,,,0.00,VWS V14.01,2013-11-16 09:42:00,
2013-11-16 01:43:00,49.1,47.7,29.53,WSW,248,3.6,4.9,95,0.00,,,0.00,VWS V14.01,2013-11-16 09:43:00,
2013-11-16 01:44:00,49.1,47.7,29.53,WSW,248,3.8,4.9,95,0.00,,,0.00,VWS V14.01,2013-11-16 09:44:00,
2013-11-16 01:45:00,49.1,47.7,29.53,SW,225,7.6,10.3,95,0.00,,,0.00,VWS V14.01,2013-11-16 09:45:00,
2013-11-16 01:46:00,49.1,47.7,29.53,SW,225,7.6,10.3,95,0.00,,,0.00,VWS V14.01,2013-11-16 09:46:00,
2013-11-16 01:47:00,49.1,47.7,29.53,SSW,202,3.6,10.3,95,0.00,,,0.00,VWS V14.01,2013-11-16 09:47:00,
2013-11-16 01:48:00,49.1,47.5,29.53,SSW,202,9.6,10.3,94,0.00,,,0.00,VWS V14.01,2013-11-16 09:48:00,
2013-11-16 01:49:00,49.1,47.5,29.53,WSW,248,7.4,9.6,94,0.00,,,0.00,VWS V14.01,2013-11-16 09:49:00,
2013-11-16 01:50:00,49.1,47.5,29.53,WSW,248,6.7,9.6,94,0.00,,,0.00,VWS V14.01,2013-11-16 09:50:00,
2013-11-16 01:51:00,49.1,47.5,29.53,WSW,248,8.5,9.6,94,0.00,,,0.00,VWS V14.01,2013-11-16 09:51:00,
2013-11-16 01:52:00,49.1,47.5,29.53,WSW,248,10.7,10.7,94,0.00,,,0.00,VWS V14.01,2013-11-16 09:52:00,
2013-11-16 01:53:00,49.1,47.5,29.53,WSW,248,6.5,10.7,94,0.00,,,0.00,VWS V14.01,2013-11-16 09:53:00,
2013-11-16 01:54:00,49.1,47.5,29.53,WSW,248,7.4,10.7,94,0.00,,,0.00,VWS V14.01,2013-11-16 09:54:00,
2013-11-16 01:55:00,49.1,47.5,29.53,West,270,7.8,10.7,94,0.00,,,0.00,VWS V14.01,2013-11-16 09:55:00,
2013-11-16 01:56:00,49.1,47.5,29.53,West,270,7.8,7.8,94,0.00,,,0.00,VWS V14.01,2013-11-16 09:56:00,
2013-11-16 01:57:00,49.3,47.6,29.53,WSW,248,11.4,11.4,94,0.00,,,0.00,VWS V14.01,2013-11-16 09:57:00,
2013-11-16 01:58:00,49.3,47.6,29.53,WSW,248,10.7,11.4,94,0.00,,,0.00,VWS V14.01,2013-11-16 09:58:00,
2013-11-16 01:59:00,49.3,47.6,29.53,SSW,202,9.6,11.4,94,0.00,,,0.00,VWS V14.01,2013-11-16 09:59:00,
2013-11-16 02:00:00,49.3,47.3,29.53,SSW,202,9.6,11.4,93,0.00,,,0.00,VWS V14.01,2013-11-16 10:00:00,
2013-11-16 02:01:00,49.3,47.3,29.53,WNW,292,12.8,12.8,93,0.00,,,0.00,VWS V14.01,2013-11-16 10:01:00,
2013-11-16 02:02:00,49.3,47.3,29.53,WSW,248,8.5,12.8,93,0.00,,,0.00,VWS V14.01,2013-11-16 10:02:00,
2013-11-16 02:03:00,49.3,47.3,29.53,WSW,248,8.5,12.8,93,0.00,,,0.00,VWS V14.01,2013-11-16 10:03:00,
2013-11-16 02:04:00,49.3,47.3,29.53,WSW,248,9.8,12.8,93,0.00,,,0.00,VWS V14.01,2013-11-16 10:04:00,
2013-11-16 02:05:00,49.5,47.5,29.53,West,270,8.5,9.8,93,0.00,,,0.00,VWS V14.01,2013-11-16 10:05:00,
2013-11-16 02:06:00,49.5,47.5,29.53,WSW,248,13.2,13.2,93,0.00,,,0.00,VWS V14.01,2013-11-16 10:06:00,
2013-11-16 02:07:00,49.5,47.5,29.53,WNW,292,13.2,13.2,93,0.00,,,0.00,VWS V14.01,2013-11-16 10:07:00,
2013-11-16 02:08:00,49.5,47.5,29.53,WSW,248,12.5,13.2,93,0.00,,,0.00,VWS V14.01,2013-11-16 10:08:00,
2013-11-16 02:09:00,49.5,47.5,29.53,SSW,202,11.0,13.2,93,0.00,,,0.00,VWS V14.01,2013-11-16 10:09:00,
2013-11-16 02:10:00,49.5,47.2,29.50,WSW,248,13.0,13.2,92,0.00,,,0.00,VWS V14.01,2013-11-16 10:10:00,
2013-11-16 02:11:00,49.5,47.2,29.50,WSW,248,13.0,13.2,92,0.00,,,0.00,VWS V14.01,2013-11-16 10:11:00,
2013-11-16 02:12:00,49.5,47.2,29.50,WSW,248,13.0,13.0,92,0.00,,,0.00,VWS V14.01,2013-11-16 10:12:00,
2013-11-16 02:13:00,49.5,47.2,29.50,SSW,202,9.8,13.0,92,0.00,,,0.00,VWS V14.01,2013-11-16 10:13:00,
2013-11-16 02:14:00,49.5,47.2,29.50,WSW,248,10.3,13.0,92,0.00,,,0.00,VWS V14.01,2013-11-16 10:14:00,
2013-11-16 02:15:00,49.5,47.2,29.50,WSW,248,12.5,13.0,92,0.00,,,0.00,VWS V14.01,2013-11-16 10:15:00,
2013-11-16 02:16:00,49.5,47.2,29.50,WSW,248,9.0,12.5,92,0.00,,,0.00,VWS V14.01,2013-11-16 10:16:00,
2013-11-16 02:17:00,49.5,47.2,29.50,SW,225,10.5,12.5,92,0.00,,,0.00,VWS V14.01,2013-11-16 10:17:00,
2013-11-16 02:18:00,49.5,47.2,29.50,SW,225,8.1,12.5,92,0.00,,,0.00,VWS V14.01,2013-11-16 10:18:00,
2013-11-16 02:19:00,49.5,47.2,29.50,SW,225,14.8,14.8,92,0.00,,,0.00,VWS V14.01,2013-11-16 10:19:00,
2013-11-16 02:20:00,49.5,47.2,29.50,SW,225,10.7,14.8,92,0.00,,,0.00,VWS V14.01,2013-11-16 10:20:00,
2013-11-16 02:21:00,49.5,47.2,29.50,SW,225,10.7,14.8,92,0.00,,,0.00,VWS V14.01,2013-11-16 10:21:00,
2013-11-16 02:22:00,49.5,47.2,29.50,West,270,9.0,14.8,92,0.00,,,0.00,VWS V14.01,2013-11-16 10:22:00,
2013-11-16 02:23:00,49.5,47.2,29.50,WSW,248,9.6,14.8,92,0.00,,,0.00,VWS V14.01,2013-11-16 10:23:00,
2013-11-16 02:24:00,49.5,47.0,29.50,SSW,202,13.0,13.0,91,0.00,,,0.00,VWS V14.01,2013-11-16 10:24:00,
2013-11-16 02:25:00,49.5,47.0,29.50,WNW,292,12.8,13.0,91,0.00,,,0.00,VWS V14.01,2013-11-16 10:25:00,
2013-11-16 02:26:00,49.5,47.0,29.50,WNW,292,12.8,13.0,91,0.00,,,0.00,VWS V14.01,2013-11-16 10:26:00,
2013-11-16 02:27:00,49.5,47.0,29.50,West,270,10.1,13.0,91,0.00,,,0.00,VWS V14.01,2013-11-16 10:27:00,
2013-11-16 02:28:00,49.5,47.0,29.50,WSW,248,10.5,12.8,91,0.00,,,0.00,VWS V14.01,2013-11-16 10:28:00,
2013-11-16 02:29:00,49.5,47.0,29.50,WSW,248,6.7,12.8,91,0.00,,,0.00,VWS V14.01,2013-11-16 10:29:00,
2013-11-16 02:30:00,49.5,47.0,29.50,WSW,248,6.0,10.7,91,0.00,,,0.00,VWS V14.01,2013-11-16 10:30:00,
2013-11-16 02:31:00,49.5,47.0,29.50,WSW,248,11.0,11.0,91,0.00,,,0.00,VWS V14.01,2013-11-16 10:31:00,
2013-11-16 02:32:00,49.5,47.0,29.50,NNW,338,8.7,11.0,91,0.00,,,0.00,VWS V14.01,2013-11-16 10:32:00,
2013-11-16 02:33:00,49.5,47.0,29.50,West,270,13.0,13.0,91,0.00,,,0.00,VWS V14.01,2013-11-16 10:33:00,
2013-11-16 02:34:00,49.5,46.7,29.50,WNW,292,8.1,13.0,90,0.00,,,0.00,VWS V14.01,2013-11-16 10:34:00,
2013-11-16 02:35:00,49.5,46.7,29.53,WSW,248,10.7,13.0,90,0.00,,,0.00,VWS V14.01,2013-11-16 10:35:00,
2013-11-16 02:36:00,49.5,46.7,29.53,WSW,248,10.7,13.0,90,0.00,,,0.00,VWS V14.01,2013-11-16 10:36:00,
2013-11-16 02:37:00,49.5,46.7,29.53,WSW,248,6.5,12.1,90,0.00,,,0.00,VWS V14.01,2013-11-16 10:37:00,
2013-11-16 02:38:00,49.5,46.7,29.53,SW,225,4.9,12.1,90,0.00,,,0.00,VWS V14.01,2013-11-16 10:38:00,
2013-11-16 02:39:00,49.5,46.7,29.53,WSW,248,7.6,12.1,90,0.00,,,0.00,VWS V14.01,2013-11-16 10:39:00,
2013-11-16 02:40:00,49.5,46.7,29.53,WSW,248,8.1,8.1,90,0.00,,,0.00,VWS V14.01,2013-11-16 10:40:00,
2013-11-16 02:41:00,49.5,47.0,29.53,WSW,248,8.1,8.1,91,0.00,,,0.00,VWS V14.01,2013-11-16 10:41:00,
2013-11-16 02:42:00,49.5,47.0,29.53,WNW,292,8.5,11.0,91,0.00,,,0.00,VWS V14.01,2013-11-16 10:42:00,
2013-11-16 02:43:00,49.5,47.0,29.53,WNW,292,10.3,11.0,91,0.00,,,0.00,VWS V14.01,2013-11-16 10:43:00,
2013-11-16 02:44:00,49.5,47.0,29.53,WSW,248,8.1,11.0,91,0.00,,,0.00,VWS V14.01,2013-11-16 10:44:00,
2013-11-16 02:45:00,49.5,46.7,29.53,WSW,248,10.1,10.3,90,0.00,,,0.00,VWS V14.01,2013-11-16 10:45:00,
2013-11-16 02:46:00,49.5,46.7,29.53,WSW,248,7.8,10.3,90,0.00,,,0.00,VWS V14.01,2013-11-16 10:46:00,
2013-11-16 02:47:00,49.5,47.0,29.53,WSW,248,7.4,10.1,91,0.00,,,0.00,VWS V14.01,2013-11-16 10:47:00,
2013-11-16 02:48:00,49.5,47.0,29.53,WSW,248,9.6,10.1,91,0.00,,,0.00,VWS V14.01,2013-11-16 10:48:00,
2013-11-16 02:49:00,49.5,47.0,29.53,SW,225,10.3,10.3,91,0.00,,,0.00,VWS V14.01,2013-11-16 10:49:00,
2013-11-16 02:50:00,49.3,46.8,29.53,West,270,7.8,10.3,91,0.00,,,0.00,VWS V14.01,2013-11-16 10:50:00,
2013-11-16 02:51:00,49.3,46.8,29.53,West,270,7.8,10.3,91,0.00,,,0.00,VWS V14.01,2013-11-16 10:51:00,
2013-11-16 02:52:00,49.3,46.8,29.53,WSW,248,10.3,10.3,91,0.00,,,0.00,VWS V14.01,2013-11-16 10:52:00,
2013-11-16 02:53:00,49.3,46.8,29.53,NW,315,7.4,10.3,91,0.00,,,0.00,VWS V14.01,2013-11-16 10:53:00,
2013-11-16 02:54:00,49.5,47.0,29.53,NNW,338,10.7,10.7,91,0.00,,,0.00,VWS V14.01,2013-11-16 10:54:00,
2013-11-16 02:55:00,49.3,46.8,29.53,WSW,248,5.4,10.7,91,0.00,,,0.00,VWS V14.01,2013-11-16 10:55:00,
2013-11-16 02:56:00,49.3,46.8,29.53,WSW,248,6.0,10.7,91,0.00,,,0.00,VWS V14.01,2013-11-16 10:56:00,
2013-11-16 02:57:00,49.3,46.8,29.53,WNW,292,4.9,10.7,91,0.00,,,0.00,VWS V14.01,2013-11-16 10:57:00,
2013-11-16 02:58:00,49.3,46.8,29.53,WSW,248,2.9,6.0,91,0.00,,,0.00,VWS V14.01,2013-11-16 10:58:00,
2013-11-16 02:59:00,49.3,46.8,29.53,SSW,202,6.5,6.5,91,0.00,,,0.00,VWS V14.01,2013-11-16 10:59:00,
2013-11-16 03:00:00,49.1,46.6,29.53,SSW,202,4.9,6.5,91,0.00,,,0.00,VWS V14.01,2013-11-16 11:00:00,
2013-11-16 03:02:00,49.1,46.6,29.53,West,270,10.1,10.1,91,0.00,,,0.00,VWS V14.01,2013-11-16 11:02:00,
2013-11-16 03:03:00,49.1,46.6,29.53,West,270,6.5,10.1,91,0.00,,,0.00,VWS V14.01,2013-11-16 11:03:00,
2013-11-16 03:04:00,49.1,46.3,29.53,WSW,248,8.1,10.1,90,0.00,,,0.00,VWS V14.01,2013-11-16 11:04:00,
2013-11-16 03:05:00,49.1,46.3,29.50,NW,315,6.5,8.1,90,0.00,,,0.00,VWS V14.01,2013-11-16 11:05:00,
2013-11-16 03:06:00,49.1,46.3,29.50,NW,315,6.5,8.1,90,0.00,,,0.00,VWS V14.01,2013-11-16 11:06:00,
2013-11-16 03:07:00,49.1,46.3,29.50,SW,225,3.6,8.1,90,0.00,,,0.00,VWS V14.01,2013-11-16 11:07:00,
2013-11-16 03:08:00,49.1,46.3,29.50,West,270,7.2,7.2,90,0.00,,,0.00,VWS V14.01,2013-11-16 11:08:00,
2013-11-16 03:09:00,49.1,46.3,29.50,West,270,9.0,9.0,90,0.00,,,0.00,VWS V14.01,2013-11-16 11:09:00,
2013-11-16 03:10:00,49.1,46.3,29.50,West,270,10.1,10.1,90,0.00,,,0.00,VWS V14.01,2013-11-16 11:10:00,
2013-11-16 03:11:00,49.1,46.3,29.50,West,270,6.3,10.1,90,0.00,,,0.00,VWS V14.01,2013-11-16 11:11:00,
2013-11-16 03:12:00,49.1,46.3,29.50,WNW,292,6.5,10.1,90,0.00,,,0.00,VWS V14.01,2013-11-16 11:12:00,
2013-11-16 03:13:00,49.1,46.3,29.50,WSW,248,4.3,10.1,90,0.00,,,0.00,VWS V14.01,2013-11-16 11:13:00,
2013-11-16 03:14:00,49.1,46.3,29.50,WSW,248,4.0,10.1,90,0.00,,,0.00,VWS V14.01,2013-11-16 11:14:00,
2013-11-16 03:15:00,49.1,46.3,29.50,SSW,202,5.6,6.5,90,0.00,,,0.00,VWS V14.01,2013-11-16 11:15:00,
2013-11-16 03:16:00,49.1,46.3,29.50,WSW,248,7.6,7.6,90,0.00,,,0.00,VWS V14.01,2013-11-16 11:16:00,
2013-11-16 03:18:00,49.1,46.3,29.50,WSW,248,6.9,7.6,90,0.00,,,0.00,VWS V14.01,2013-11-16 11:18:00,
2013-11-16 03:19:00,49.1,46.3,29.50,WSW,248,6.9,7.6,90,0.00,,,0.00,VWS V14.01,2013-11-16 11:19:00,
2013-11-16 03:20:00,49.1,46.3,29.50,West,270,10.3,10.3,90,0.00,,,0.00,VWS V14.01,2013-11-16 11:20:00,
2013-11-16 03:21:00,49.1,46.3,29.50,West,270,10.3,10.3,90,0.00,,,0.00,VWS V14.01,2013-11-16 11:21:00,
2013-11-16 03:22:00,48.9,46.4,29.50,SSW,202,8.7,10.3,91,0.00,,,0.00,VWS V14.01,2013-11-16 11:22:00,
2013-11-16 03:23:00,48.9,46.4,29.50,West,270,7.4,10.3,91,0.00,,,0.00,VWS V14.01,2013-11-16 11:23:00,
2013-11-16 03:24:00,48.9,46.4,29.50,WSW,248,7.2,10.3,91,0.00,,,0.00,VWS V14.01,2013-11-16 11:24:00,
2013-11-16 03:25:00,48.9,46.4,29.50,WNW,292,7.6,8.7,91,0.00,,,0.00,VWS V14.01,2013-11-16 11:25:00,
2013-11-16 03:26:00,48.9,46.4,29.50,WSW,248,9.8,9.8,91,0.00,,,0.00,VWS V14.01,2013-11-16 11:26:00,
2013-11-16 03:28:00,48.9,46.4,29.50,SW,225,2.9,9.8,91,0.00,,,0.00,VWS V14.01,2013-11-16 11:28:00,
2013-11-16 03:29:00,48.9,46.4,29.50,WNW,292,6.5,9.8,91,0.00,,,0.00,VWS V14.01,2013-11-16 11:29:00,
2013-11-16 03:30:00,48.7,46.2,29.50,NNW,338,2.9,6.5,91,0.00,,,0.00,VWS V14.01,2013-11-16 11:30:00,
2013-11-16 03:31:00,48.7,46.2,29.50,WSW,248,4.3,6.5,91,0.00,,,0.00,VWS V14.01,2013-11-16 11:31:00,
2013-11-16 03:32:00,48.7,46.2,29.50,WSW,248,5.6,6.5,91,0.00,,,0.00,VWS V14.01,2013-11-16 11:32:00,
2013-11-16 03:33:00,48.7,46.2,29.50,WSW,248,5.8,5.8,91,0.00,,,0.00,VWS V14.01,2013-11-16 11:33:00,
2013-11-16 03:34:00,48.7,46.2,29.50,West,270,3.1,5.8,91,0.00,,,0.00,VWS V14.01,2013-11-16 11:34:00,
2013-11-16 03:35:00,48.7,46.2,29.53,WSW,248,2.0,7.2,91,0.00,,,0.00,VWS V14.01,2013-11-16 11:35:00,
2013-11-16 03:36:00,48.7,46.2,29.53,WSW,248,2.0,7.2,91,0.00,,,0.00,VWS V14.01,2013-11-16 11:36:00,
2013-11-16 03:37:00,48.7,46.2,29.53,WSW,248,5.4,7.2,91,0.00,,,0.00,VWS V14.01,2013-11-16 11:37:00,
2013-11-16 03:38:00,48.7,46.2,29.53,WNW,292,3.8,7.2,91,0.00,,,0.00,VWS V14.01,2013-11-16 11:38:00,
2013-11-16 03:39:00,48.7,46.2,29.53,WNW,292,6.0,6.0,91,0.00,,,0.00,VWS V14.01,2013-11-16 11:39:00,
2013-11-16 03:40:00,48.7,46.2,29.53,WSW,248,5.6,6.0,91,0.00,,,0.00,VWS V14.01,2013-11-16 11:40:00,
2013-11-16 03:41:00,48.6,46.1,29.53,West,270,6.5,6.5,91,0.00,,,0.00,VWS V14.01,2013-11-16 11:41:00,
2013-11-16 03:42:00,48.6,46.1,29.53,WNW,292,4.3,6.5,91,0.00,,,0.00,VWS V14.01,2013-11-16 11:42:00,
2013-11-16 03:43:00,48.6,46.1,29.53,West,270,6.0,6.5,91,0.00,,,0.00,VWS V14.01,2013-11-16 11:43:00,
2013-11-16 03:44:00,48.6,46.1,29.53,WSW,248,4.3,6.5,91,0.00,,,0.00,VWS V14.01,2013-11-16 11:44:00,
2013-11-16 03:45:00,48.6,46.1,29.53,West,270,3.8,6.0,91,0.00,,,0.00,VWS V14.01,2013-11-16 11:45:00,
2013-11-16 03:47:00,48.6,46.1,29.53,West,270,3.8,6.0,91,0.00,,,0.00,VWS V14.01,2013-11-16 11:47:00,
2013-11-16 03:48:00,48.6,45.8,29.53,WNW,292,5.4,5.4,90,0.00,,,0.00,VWS V14.01,2013-11-16 11:48:00,
2013-11-16 03:49:00,48.6,45.8,29.53,NW,315,9.8,9.8,90,0.00,,,0.00,VWS V14.01,2013-11-16 11:49:00,
2013-11-16 03:50:00,48.6,45.8,29.53,West,270,4.0,9.8,90,0.00,,,0.00,VWS V14.01,2013-11-16 11:50:00,
2013-11-16 03:51:00,48.6,45.8,29.53,West,270,4.0,9.8,90,0.00,,,0.00,VWS V14.01,2013-11-16 11:51:00,
2013-11-16 03:52:00,48.6,45.5,29.53,WNW,292,4.9,9.8,89,0.00,,,0.00,VWS V14.01,2013-11-16 11:52:00,
2013-11-16 03:53:00,48.6,45.5,29.53,West,270,6.0,6.0,89,0.00,,,0.00,VWS V14.01,2013-11-16 11:53:00,
2013-11-16 03:54:00,48.4,45.3,29.53,WSW,248,2.9,6.0,89,0.00,,,0.00,VWS V14.01,2013-11-16 11:54:00,
2013-11-16 03:55:00,48.4,45.3,29.53,WSW,248,2.9,6.0,89,0.00,,,0.00,VWS V14.01,2013-11-16 11:55:00,
2013-11-16 03:56:00,48.4,45.3,29.53,NNW,338,5.6,6.0,89,0.00,,,0.00,VWS V14.01,2013-11-16 11:56:00,
2013-11-16 03:57:00,48.4,45.3,29.53,NNW,338,3.4,6.0,89,0.00,,,0.00,VWS V14.01,2013-11-16 11:57:00,
2013-11-16 03:58:00,48.4,45.3,29.53,WNW,292,3.8,6.0,89,0.00,,,0.00,VWS V14.01,2013-11-16 11:58:00,
2013-11-16 03:59:00,48.2,45.1,29.53,NNW,338,2.5,5.6,89,0.00,,,0.00,VWS V14.01,2013-11-16 11:59:00,
2013-11-16 04:00:00,48.2,45.1,29.53,NNW,338,5.4,5.4,89,0.00,,,0.00,VWS V14.01,2013-11-16 12:00:00,
2013-11-16 04:01:00,48.2,45.1,29.53,NNW,338,5.4,5.4,89,0.00,,,0.00,VWS V14.01,2013-11-16 12:01:00,
2013-11-16 04:02:00,48.2,45.1,29.53,NNW,338,5.4,5.4,89,0.00,,,0.00,VWS V14.01,2013-11-16 12:02:00,
2013-11-16 04:03:00,48.2,45.4,29.53,NNW,338,5.6,5.6,90,0.00,,,0.00,VWS V14.01,2013-11-16 12:03:00,
2013-11-16 04:04:00,48.2,45.4,29.53,NNW,338,3.4,5.6,90,0.00,,,0.00,VWS V14.01,2013-11-16 12:04:00,
2013-11-16 04:05:00,48.2,45.4,29.53,NW,315,3.4,5.6,90,0.00,,,0.00,VWS V14.01,2013-11-16 12:05:00,
2013-11-16 04:06:00,48.2,45.4,29.53,NW,315,3.1,5.6,90,0.00,,,0.00,VWS V14.01,2013-11-16 12:06:00,
2013-11-16 04:07:00,48.2,45.4,29.53,WNW,292,3.6,3.6,90,0.00,,,0.00,VWS V14.01,2013-11-16 12:07:00,
2013-11-16 04:08:00,48.2,45.4,29.53,WNW,292,5.4,5.4,90,0.00,,,0.00,VWS V14.01,2013-11-16 12:08:00,
2013-11-16 04:09:00,48.2,45.4,29.53,NNW,338,3.4,5.4,90,0.00,,,0.00,VWS V14.01,2013-11-16 12:09:00,
2013-11-16 04:10:00,48.2,45.4,29.53,NNW,338,2.9,5.4,90,0.00,,,0.00,VWS V14.01,2013-11-16 12:10:00,
2013-11-16 04:11:00,48.2,45.4,29.53,NW,315,4.9,5.4,90,0.00,,,0.00,VWS V14.01,2013-11-16 12:11:00,
2013-11-16 04:12:00,48.2,45.4,29.53,WNW,292,3.4,4.9,90,0.00,,,0.00,VWS V14.01,2013-11-16 12:12:00,
2013-11-16 04:13:00,48.0,45.5,29.53,WNW,292,3.8,4.9,91,0.00,,,0.00,VWS V14.01,2013-11-16 12:13:00,
2013-11-16 04:14:00,48.0,45.5,29.53,WNW,292,2.7,4.9,91,0.00,,,0.00,VWS V14.01,2013-11-16 12:14:00,
2013-11-16 04:15:00,48.2,45.4,29.53,NNW,338,1.6,4.0,90,0.00,,,0.00,VWS V14.01,2013-11-16 12:15:00,
2013-11-16 04:16:00,48.2,45.4,29.53,NNW,338,1.6,4.0,90,0.00,,,0.00,VWS V14.01,2013-11-16 12:16:00,
2013-11-16 04:17:00,48.0,45.5,29.53,NNW,338,2.7,4.0,91,0.00,,,0.00,VWS V14.01,2013-11-16 12:17:00,
2013-11-16 04:18:00,48.0,45.5,29.53,NW,315,2.9,4.0,91,0.00,,,0.00,VWS V14.01,2013-11-16 12:18:00,
2013-11-16 04:19:00,48.0,45.5,29.53,NNW,338,3.4,3.4,91,0.00,,,0.00,VWS V14.01,2013-11-16 12:19:00,
2013-11-16 04:20:00,48.0,45.5,29.53,NW,315,4.3,4.3,91,0.00,,,0.00,VWS V14.01,2013-11-16 12:20:00,
2013-11-16 04:21:00,48.0,45.5,29.53,NW,315,4.3,4.3,91,0.00,,,0.00,VWS V14.01,2013-11-16 12:21:00,
2013-11-16 04:22:00,48.0,45.8,29.53,NW,315,2.7,4.3,92,0.00,,,0.00,VWS V14.01,2013-11-16 12:22:00,
2013-11-16 04:23:00,48.0,45.8,29.53,NNW,338,4.3,4.3,92,0.00,,,0.00,VWS V14.01,2013-11-16 12:23:00,
2013-11-16 04:24:00,48.0,45.8,29.53,NW,315,3.8,4.3,92,0.00,,,0.00,VWS V14.01,2013-11-16 12:24:00,
2013-11-16 04:25:00,47.8,45.6,29.53,NW,315,2.9,4.3,92,0.00,,,0.00,VWS V14.01,2013-11-16 12:25:00,
2013-11-16 04:26:00,47.8,45.6,29.53,NW,315,4.3,4.3,92,0.00,,,0.00,VWS V14.01,2013-11-16 12:26:00,
2013-11-16 04:27:00,47.8,45.6,29.53,West,270,2.5,4.3,92,0.00,,,0.00,VWS V14.01,2013-11-16 12:27:00,
2013-11-16 04:28:00,47.8,45.6,29.53,WSW,248,3.4,4.3,92,0.00,,,0.00,VWS V14.01,2013-11-16 12:28:00,
2013-11-16 04:29:00,47.7,45.5,29.53,West,270,3.4,4.3,92,0.00,,,0.00,VWS V14.01,2013-11-16 12:29:00,
2013-11-16 04:30:00,47.7,45.5,29.53,WSW,248,3.6,3.6,92,0.00,,,0.00,VWS V14.01,2013-11-16 12:30:00,
2013-11-16 04:31:00,47.7,45.5,29.53,WSW,248,3.6,3.6,92,0.00,,,0.00,VWS V14.01,2013-11-16 12:31:00,
2013-11-16 04:32:00,47.7,45.5,29.53,West,270,3.1,3.6,92,0.00,,,0.00,VWS V14.01,2013-11-16 12:32:00,
2013-11-16 04:33:00,47.5,45.6,29.53,WSW,248,2.7,3.6,93,0.00,,,0.00,VWS V14.01,2013-11-16 12:33:00,
2013-11-16 04:34:00,47.7,45.7,29.53,WSW,248,3.1,4.0,93,0.00,,,0.00,VWS V14.01,2013-11-16 12:34:00,
2013-11-16 04:35:00,47.7,45.7,29.53,WSW,248,5.4,5.4,93,0.00,,,0.00,VWS V14.01,2013-11-16 12:35:00,
2013-11-16 04:36:00,47.7,46.0,29.53,WSW,248,7.4,7.4,94,0.00,,,0.00,VWS V14.01,2013-11-16 12:36:00,
2013-11-16 04:37:00,47.7,46.0,29.53,West,270,3.6,7.4,94,0.00,,,0.00,VWS V14.01,2013-11-16 12:37:00,
2013-11-16 04:38:00,47.7,46.0,29.53,West,270,5.8,7.4,94,0.00,,,0.00,VWS V14.01,2013-11-16 12:38:00,
2013-11-16 04:39:00,47.7,46.0,29.53,WNW,292,8.7,8.7,94,0.00,,,0.00,VWS V14.01,2013-11-16 12:39:00,
2013-11-16 04:40:00,47.8,46.2,29.53,West,270,7.4,8.7,94,0.00,,,0.00,VWS V14.01,2013-11-16 12:40:00,
2013-11-16 04:41:00,47.8,46.2,29.53,WSW,248,6.0,8.7,94,0.00,,,0.00,VWS V14.01,2013-11-16 12:41:00,
2013-11-16 04:42:00,47.8,46.2,29.53,WSW,248,8.5,8.7,94,0.00,,,0.00,VWS V14.01,2013-11-16 12:42:00,
2013-11-16 04:43:00,47.8,46.2,29.53,WSW,248,8.1,8.5,94,0.00,,,0.00,VWS V14.01,2013-11-16 12:43:00,
2013-11-16 04:44:00,47.8,46.2,29.53,West,270,7.6,8.5,94,0.00,,,0.00,VWS V14.01,2013-11-16 12:44:00,
2013-11-16 04:45:00,47.8,45.9,29.53,WSW,248,8.1,8.5,93,0.00,,,0.00,VWS V14.01,2013-11-16 12:45:00,
2013-11-16 04:46:00,47.8,45.9,29.53,WSW,248,8.1,8.1,93,0.00,,,0.00,VWS V14.01,2013-11-16 12:46:00,
2013-11-16 04:48:00,47.7,45.7,29.53,SW,225,3.1,8.1,93,0.00,,,0.00,VWS V14.01,2013-11-16 12:48:00,
2013-11-16 04:49:00,47.7,45.7,29.53,WSW,248,4.0,8.1,93,0.00,,,0.00,VWS V14.01,2013-11-16 12:49:00,
2013-11-16 04:50:00,47.5,45.6,29.53,WSW,248,8.5,8.5,93,0.00,,,0.00,VWS V14.01,2013-11-16 12:50:00,
2013-11-16 04:51:00,47.5,45.6,29.53,West,270,7.4,8.5,93,0.00,,,0.00,VWS V14.01,2013-11-16 12:51:00,
2013-11-16 04:52:00,47.5,45.6,29.53,WSW,248,8.1,8.5,93,0.00,,,0.00,VWS V14.01,2013-11-16 12:52:00,
2013-11-16 04:53:00,47.5,45.6,29.53,WNW,292,8.7,8.7,93,0.00,,,0.00,VWS V14.01,2013-11-16 12:53:00,
2013-11-16 04:54:00,47.5,45.6,29.53,West,270,6.3,8.7,93,0.00,,,0.00,VWS V14.01,2013-11-16 12:54:00,
2013-11-16 04:55:00,47.5,45.6,29.53,WSW,248,3.6,8.7,93,0.00,,,0.00,VWS V14.01,2013-11-16 12:55:00,
2013-11-16 04:56:00,47.5,45.6,29.53,WSW,248,8.5,8.7,93,0.00,,,0.00,VWS V14.01,2013-11-16 12:56:00,
2013-11-16 04:57:00,47.5,45.8,29.53,WSW,248,8.5,8.7,94,0.00,,,0.00,VWS V14.01,2013-11-16 12:57:00,
2013-11-16 04:58:00,47.5,45.8,29.53,West,270,3.4,8.7,94,0.00,,,0.00,VWS V14.01,2013-11-16 12:58:00,
2013-11-16 04:59:00,47.5,45.8,29.53,West,270,5.4,8.5,94,0.00,,,0.00,VWS V14.01,2013-11-16 12:59:00,
2013-11-16 05:00:00,47.7,46.0,29.53,WNW,292,4.3,8.5,94,0.00,,,0.00,VWS V14.01,2013-11-16 13:00:00,
2013-11-16 05:01:00,47.7,46.0,29.53,WNW,292,4.3,5.4,94,0.00,,,0.00,VWS V14.01,2013-11-16 13:01:00,
2013-11-16 05:02:00,47.7,46.0,29.53,WNW,292,3.4,5.4,94,0.00,,,0.00,VWS V14.01,2013-11-16 13:02:00,
2013-11-16 05:03:00,47.7,46.0,29.53,WSW,248,2.5,5.4,94,0.00,,,0.00,VWS V14.01,2013-11-16 13:03:00,
2013-11-16 05:04:00,47.5,45.8,29.53,WSW,248,3.4,4.3,94,0.00,,,0.00,VWS V14.01,2013-11-16 13:04:00,
2013-11-16 05:05:00,47.5,45.8,29.53,WSW,248,6.0,6.0,94,0.00,,,0.00,VWS V14.01,2013-11-16 13:05:00,
2013-11-16 05:06:00,47.5,45.8,29.53,WSW,248,4.7,6.0,94,0.00,,,0.00,VWS V14.01,2013-11-16 13:06:00,
2013-11-16 05:07:00,47.5,45.8,29.53,WSW,248,4.7,6.0,94,0.00,,,0.00,VWS V14.01,2013-11-16 13:07:00,
2013-11-16 05:08:00,47.5,45.8,29.53,West,270,6.0,6.0,94,0.00,,,0.00,VWS V14.01,2013-11-16 13:08:00,
2013-11-16 05:09:00,47.5,45.8,29.53,WNW,292,3.4,6.0,94,0.00,,,0.00,VWS V14.01,2013-11-16 13:09:00,
2013-11-16 05:10:00,47.5,45.8,29.53,NW,315,4.9,6.0,94,0.00,,,0.00,VWS V14.01,2013-11-16 13:10:00,
2013-11-16 05:11:00,47.5,45.8,29.53,WSW,248,2.2,6.0,94,0.00,,,0.00,VWS V14.01,2013-11-16 13:11:00,
2013-11-16 05:12:00,47.5,45.8,29.53,WNW,292,4.3,4.9,94,0.00,,,0.00,VWS V14.01,2013-11-16 13:12:00,
2013-11-16 05:13:00,47.7,45.7,29.53,NW,315,5.4,5.4,93,0.00,,,0.00,VWS V14.01,2013-11-16 13:13:00,
2013-11-16 05:14:00,47.7,45.7,29.53,WNW,292,3.8,5.4,93,0.00,,,0.00,VWS V14.01,2013-11-16 13:14:00,
2013-11-16 05:15:00,47.7,45.7,29.53,NW,315,4.0,5.4,93,0.00,,,0.00,VWS V14.01,2013-11-16 13:15:00,
2013-11-16 05:16:00,47.7,45.7,29.53,WSW,248,3.6,5.4,93,0.00,,,0.00,VWS V14.01,2013-11-16 13:16:00,
2013-11-16 05:17:00,47.7,45.7,29.53,WNW,292,2.0,4.0,93,0.00,,,0.00,VWS V14.01,2013-11-16 13:17:00,
2013-11-16 05:18:00,47.7,45.7,29.53,WSW,248,4.5,4.5,93,0.00,,,0.00,VWS V14.01,2013-11-16 13:18:00,
2013-11-16 05:19:00,47.7,45.7,29.53,WNW,292,5.4,5.4,93,0.00,,,0.00,VWS V14.01,2013-11-16 13:19:00,
2013-11-16 05:20:00,47.7,45.5,29.53,West,270,5.6,5.6,92,0.00,,,0.00,VWS V14.01,2013-11-16 13:20:00,
2013-11-16 05:21:00,47.7,45.5,29.53,WSW,248,4.0,5.6,92,0.00,,,0.00,VWS V14.01,2013-11-16 13:21:00,
2013-11-16 05:22:00,47.8,45.6,29.53,WNW,292,4.3,5.6,92,0.00,,,0.00,VWS V14.01,2013-11-16 13:22:00,
2013-11-16 05:23:00,47.8,45.6,29.53,WSW,248,4.7,5.6,92,0.00,,,0.00,VWS V14.01,2013-11-16 13:23:00,
2013-11-16 05:24:00,47.8,45.3,29.53,WSW,248,4.3,4.7,91,0.00,,,0.00,VWS V14.01,2013-11-16 13:24:00,
2013-11-16 05:25:00,48.0,45.5,29.53,WSW,248,3.4,4.7,91,0.00,,,0.00,VWS V14.01,2013-11-16 13:25:00,
2013-11-16 05:26:00,48.0,45.5,29.53,WSW,248,3.4,4.7,91,0.00,,,0.00,VWS V14.01,2013-11-16 13:26:00,
2013-11-16 05:27:00,48.0,45.2,29.53,WSW,248,4.9,4.9,90,0.00,,,0.00,VWS V14.01,2013-11-16 13:27:00,
2013-11-16 05:28:00,48.0,45.2,29.53,WSW,248,4.0,4.9,90,0.00,,,0.00,VWS V14.01,2013-11-16 13:28:00,
2013-11-16 05:29:00,47.8,45.0,29.53,WSW,248,3.8,4.9,90,0.00,,,0.00,VWS V14.01,2013-11-16 13:29:00,
2013-11-16 05:30:00,47.8,45.0,29.53,WSW,248,4.0,4.9,90,0.00,,,0.00,VWS V14.01,2013-11-16 13:30:00,
2013-11-16 05:31:00,47.8,45.0,29.53,WSW,248,2.9,4.9,90,0.00,,,0.00,VWS V14.01,2013-11-16 13:31:00,
2013-11-16 05:32:00,47.8,45.0,29.53,WSW,248,3.1,4.0,90,0.00,,,0.00,VWS V14.01,2013-11-16 13:32:00,
2013-11-16 05:33:00,47.8,45.0,29.53,WSW,248,3.1,4.0,90,0.00,,,0.00,VWS V14.01,2013-11-16 13:33:00,
2013-11-16 05:34:00,47.8,45.0,29.56,WSW,248,3.1,4.0,90,0.00,,,0.00,VWS V14.01,2013-11-16 13:34:00,
2013-11-16 05:35:00,47.8,45.0,29.56,WSW,248,3.6,3.6,90,0.00,,,0.00,VWS V14.01,2013-11-16 13:35:00,
2013-11-16 05:38:00,47.7,45.2,29.56,WSW,248,2.5,3.6,91,0.00,,,0.00,VWS V14.01,2013-11-16 13:38:00,
2013-11-16 05:40:00,47.5,45.0,29.56,WSW,248,4.3,4.3,91,0.00,,,0.00,VWS V14.01,2013-11-16 13:40:00,
2013-11-16 05:44:00,47.5,45.3,29.56,WSW,248,3.8,4.3,92,0.00,,,0.00,VWS V14.01,2013-11-16 13:44:00,
2013-11-16 05:45:00,47.5,45.3,29.56,WSW,248,3.8,3.8,92,0.00,,,0.00,VWS V14.01,2013-11-16 13:45:00,
2013-11-16 05:46:00,47.5,45.3,29.56,WSW,248,3.8,3.8,92,0.00,,,0.00,VWS V14.01,2013-11-16 13:46:00,
2013-11-16 05:47:00,47.5,45.3,29.56,WSW,248,4.3,4.3,92,0.00,,,0.00,VWS V14.01,2013-11-16 13:47:00,
2013-11-16 05:48:00,47.5,45.3,29.56,WSW,248,4.7,4.7,92,0.00,,,0.00,VWS V14.01,2013-11-16 13:48:00,
2013-11-16 05:49:00,47.5,45.6,29.56,SW,225,3.8,4.7,93,0.00,,,0.00,VWS V14.01,2013-11-16 13:49:00,
2013-11-16 05:50:00,47.5,45.6,29.56,WSW,248,4.9,4.9,93,0.00,,,0.00,VWS V14.01,2013-11-16 13:50:00,
2013-11-16 05:51:00,47.5,45.6,29.56,WSW,248,2.9,4.9,93,0.00,,,0.00,VWS V14.01,2013-11-16 13:51:00,
2013-11-16 05:52:00,47.5,45.6,29.56,WSW,248,4.7,4.9,93,0.00,,,0.00,VWS V14.01,2013-11-16 13:52:00,
2013-11-16 05:53:00,47.5,45.6,29.56,WSW,248,3.6,4.9,93,0.00,,,0.00,VWS V14.01,2013-11-16 13:53:00,
2013-11-16 05:54:00,47.5,45.6,29.56,WSW,248,3.8,4.7,93,0.00,,,0.00,VWS V14.01,2013-11-16 13:54:00,
2013-11-16 05:55:00,47.5,45.6,29.56,WSW,248,3.6,5.4,93,0.00,,,0.00,VWS V14.01,2013-11-16 13:55:00,
2013-11-16 05:56:00,47.5,45.6,29.56,WSW,248,3.6,5.4,93,0.00,,,0.00,VWS V14.01,2013-11-16 13:56:00,
2013-11-16 05:57:00,47.5,45.6,29.56,WSW,248,3.4,5.4,93,0.00,,,0.00,VWS V14.01,2013-11-16 13:57:00,
2013-11-16 05:58:00,47.5,45.6,29.56,West,270,3.4,5.4,93,0.00,,,0.00,VWS V14.01,2013-11-16 13:58:00,
2013-11-16 05:59:00,47.5,45.6,29.56,WSW,248,4.3,4.3,93,0.00,,,0.00,VWS V14.01,2013-11-16 13:59:00,
2013-11-16 06:00:00,47.5,45.6,29.56,WSW,248,4.3,4.3,93,0.00,,,0.00,VWS V14.01,2013-11-16 14:00:00,
2013-11-16 06:01:00,47.5,45.6,29.56,WNW,292,4.9,4.9,93,0.00,,,0.00,VWS V14.01,2013-11-16 14:01:00,
2013-11-16 06:02:00,47.5,45.6,29.56,West,270,3.6,4.9,93,0.00,,,0.00,VWS V14.01,2013-11-16 14:02:00,
2013-11-16 06:03:00,47.5,45.3,29.56,SW,225,3.6,4.9,92,0.00,,,0.00,VWS V14.01,2013-11-16 14:03:00,
2013-11-16 06:04:00,47.5,45.3,29.56,SW,225,2.5,4.9,92,0.00,,,0.00,VWS V14.01,2013-11-16 14:04:00,
2013-11-16 06:05:00,47.5,45.3,29.56,West,270,2.0,3.6,92,0.00,,,0.00,VWS V14.01,2013-11-16 14:05:00,
2013-11-16 06:06:00,47.5,45.0,29.56,WSW,248,3.8,3.8,91,0.00,,,0.00,VWS V14.01,2013-11-16 14:06:00,
2013-11-16 06:07:00,47.5,45.0,29.56,WSW,248,3.1,3.8,91,0.00,,,0.00,VWS V14.01,2013-11-16 14:07:00,
2013-11-16 06:08:00,47.5,45.0,29.56,WSW,248,2.7,3.8,91,0.00,,,0.00,VWS V14.01,2013-11-16 14:08:00,
2013-11-16 06:09:00,47.5,45.0,29.56,SW,225,2.5,3.8,91,0.00,,,0.00,VWS V14.01,2013-11-16 14:09:00,
2013-11-16 06:10:00,47.5,44.7,29.56,WNW,292,3.6,3.6,90,0.00,,,0.00,VWS V14.01,2013-11-16 14:10:00,
2013-11-16 06:11:00,47.5,44.7,29.56,WNW,292,3.6,3.6,90,0.00,,,0.00,VWS V14.01,2013-11-16 14:11:00,
2013-11-16 06:12:00,47.5,44.7,29.56,WSW,248,2.9,4.9,90,0.00,,,0.00,VWS V14.01,2013-11-16 14:12:00,
2013-11-16 06:13:00,47.5,44.4,29.56,WSW,248,4.0,4.9,89,0.00,,,0.00,VWS V14.01,2013-11-16 14:13:00,
2013-11-16 06:14:00,47.5,44.4,29.56,WSW,248,4.0,4.9,89,0.00,,,0.00,VWS V14.01,2013-11-16 14:14:00,
2013-11-16 06:15:00,47.7,44.3,29.56,WSW,248,3.6,4.0,88,0.00,,,0.00,VWS V14.01,2013-11-16 14:15:00,
2013-11-16 06:16:00,47.7,44.3,29.56,WSW,248,4.3,4.3,88,0.00,,,0.00,VWS V14.01,2013-11-16 14:16:00,
2013-11-16 06:17:00,47.7,44.3,29.56,WSW,248,3.6,4.3,88,0.00,,,0.00,VWS V14.01,2013-11-16 14:17:00,
2013-11-16 06:18:00,47.7,44.3,29.56,WSW,248,6.3,6.3,88,0.00,,,0.00,VWS V14.01,2013-11-16 14:18:00,
2013-11-16 06:19:00,47.7,44.3,29.56,WSW,248,6.3,6.3,88,0.00,,,0.00,VWS V14.01,2013-11-16 14:19:00,
2013-11-16 06:20:00,47.8,44.2,29.56,WSW,248,4.9,6.3,87,0.00,,,0.00,VWS V14.01,2013-11-16 14:20:00,
2013-11-16 06:21:00,47.8,44.2,29.56,WSW,248,4.9,6.3,87,0.00,,,0.00,VWS V14.01,2013-11-16 14:21:00,
2013-11-16 06:22:00,47.8,44.2,29.56,WSW,248,3.1,6.3,87,0.00,,,0.00,VWS V14.01,2013-11-16 14:22:00,
2013-11-16 06:23:00,47.8,44.2,29.56,West,270,5.8,5.8,87,0.00,,,0.00,VWS V14.01,2013-11-16 14:23:00,
2013-11-16 06:24:00,47.8,43.9,29.56,WSW,248,4.0,5.8,86,0.00,,,0.00,VWS V14.01,2013-11-16 14:24:00,
2013-11-16 06:25:00,47.8,43.9,29.56,WSW,248,4.3,5.8,86,0.00,,,0.00,VWS V14.01,2013-11-16 14:25:00,
2013-11-16 06:26:00,47.8,43.9,29.56,SW,225,4.3,5.8,86,0.00,,,0.00,VWS V14.01,2013-11-16 14:26:00,
2013-11-16 06:27:00,47.8,44.2,29.56,SW,225,5.6,5.6,87,0.00,,,0.00,VWS V14.01,2013-11-16 14:27:00,
2013-11-16 06:28:00,47.8,44.2,29.56,SW,225,5.6,5.6,87,0.00,,,0.00,VWS V14.01,2013-11-16 14:28:00,
2013-11-16 06:29:00,47.8,43.9,29.56,West,270,2.7,5.6,86,0.00,,,0.00,VWS V14.01,2013-11-16 14:29:00,
2013-11-16 06:30:00,47.8,43.9,29.56,WSW,248,6.0,6.0,86,0.00,,,0.00,VWS V14.01,2013-11-16 14:30:00,
2013-11-16 06:31:00,47.8,43.9,29.56,WSW,248,4.3,6.0,86,0.00,,,0.00,VWS V14.01,2013-11-16 14:31:00,
2013-11-16 06:32:00,47.8,43.9,29.56,West,270,4.7,6.0,86,0.00,,,0.00,VWS V14.01,2013-11-16 14:32:00,
2013-11-16 06:33:00,47.7,43.7,29.56,WSW,248,4.3,6.0,86,0.00,,,0.00,VWS V14.01,2013-11-16 14:33:00,
2013-11-16 06:34:00,47.7,43.7,29.56,WNW,292,4.3,6.0,86,0.00,,,0.00,VWS V14.01,2013-11-16 14:34:00,
2013-11-16 06:35:00,47.7,43.7,29.56,SW,225,2.5,4.7,86,0.00,,,0.00,VWS V14.01,2013-11-16 14:35:00,
2013-11-16 06:36:00,47.7,43.7,29.56,SW,225,2.5,4.3,86,0.00,,,0.00,VWS V14.01,2013-11-16 14:36:00,
2013-11-16 06:37:00,47.7,43.7,29.56,West,270,2.9,4.3,86,0.00,,,0.00,VWS V14.01,2013-11-16 14:37:00,
2013-11-16 06:38:00,47.5,43.5,29.56,WNW,292,5.6,5.6,86,0.00,,,0.00,VWS V14.01,2013-11-16 14:38:00,
2013-11-16 06:39:00,47.5,43.5,29.56,SW,225,3.8,5.6,86,0.00,,,0.00,VWS V14.01,2013-11-16 14:39:00,
2013-11-16 06:40:00,47.5,43.5,29.56,WSW,248,5.4,5.6,86,0.00,,,0.00,VWS V14.01,2013-11-16 14:40:00,
2013-11-16 06:41:00,47.5,43.5,29.56,WSW,248,5.6,5.6,86,0.00,,,0.00,VWS V14.01,2013-11-16 14:41:00,
2013-11-16 06:42:00,47.5,43.5,29.56,WSW,248,4.9,5.6,86,0.00,,,0.00,VWS V14.01,2013-11-16 14:42:00,
2013-11-16 06:43:00,47.7,43.4,29.56,West,270,4.3,5.6,85,0.00,,,0.00,VWS V14.01,2013-11-16 14:43:00,
2013-11-16 06:44:00,47.7,43.4,29.56,WSW,248,6.3,6.3,85,0.00,,,0.00,VWS V14.01,2013-11-16 14:44:00,
2013-11-16 06:45:00,47.7,43.4,29.56,WSW,248,6.3,6.3,85,0.00,,,0.00,VWS V14.01,2013-11-16 14:45:00,
2013-11-16 06:46:00,47.7,43.4,29.56,WSW,248,4.0,6.3,85,0.00,,,0.00,VWS V14.01,2013-11-16 14:46:00,
2013-11-16 06:47:00,47.8,43.2,29.56,WSW,248,5.4,6.3,84,0.00,,,0.00,VWS V14.01,2013-11-16 14:47:00,
2013-11-16 06:48:00,47.8,43.2,29.56,SSW,202,6.5,6.5,84,0.00,,,0.00,VWS V14.01,2013-11-16 14:48:00,
2013-11-16 06:49:00,48.0,43.4,29.56,WSW,248,4.7,6.5,84,0.00,,,0.00,VWS V14.01,2013-11-16 14:49:00,
2013-11-16 06:50:00,48.0,43.4,29.56,WSW,248,6.0,6.5,84,0.00,,,0.00,VWS V14.01,2013-11-16 14:50:00,
2013-11-16 06:51:00,48.0,43.4,29.56,WSW,248,6.0,6.5,84,0.00,,,0.00,VWS V14.01,2013-11-16 14:51:00,
2013-11-16 06:52:00,48.0,43.4,29.56,WSW,248,3.8,6.0,84,0.00,,,0.00,VWS V14.01,2013-11-16 14:52:00,
2013-11-16 06:53:00,48.0,43.4,29.56,WSW,248,4.9,6.0,84,0.00,,,0.00,VWS V14.01,2013-11-16 14:53:00,
2013-11-16 06:54:00,48.0,43.1,29.56,WSW,248,6.7,6.7,83,0.00,,,0.00,VWS V14.01,2013-11-16 14:54:00,
2013-11-16 06:55:00,48.0,43.1,29.56,West,270,6.5,6.7,83,0.00,,,0.00,VWS V14.01,2013-11-16 14:55:00,
2013-11-16 06:56:00,48.0,43.1,29.56,WSW,248,6.5,6.7,83,0.00,,,0.00,VWS V14.01,2013-11-16 14:56:00,
2013-11-16 06:57:00,48.0,43.1,29.56,West,270,4.5,6.7,83,0.00,,,0.00,VWS V14.01,2013-11-16 14:57:00,
2013-11-16 06:58:00,48.0,43.1,29.56,West,270,4.5,6.7,83,0.00,,,0.00,VWS V14.01,2013-11-16 14:58:00,
2013-11-16 06:59:00,48.0,43.1,29.56,WSW,248,8.1,8.1,83,0.00,,,0.00,VWS V14.01,2013-11-16 14:59:00,
2013-11-16 07:00:00,48.0,43.1,29.56,WSW,248,6.3,8.1,83,0.00,,,0.00,VWS V14.01,2013-11-16 15:00:00,
2013-11-16 07:01:00,48.0,43.1,29.56,WSW,248,6.3,8.1,83,0.00,,,0.00,VWS V14.01,2013-11-16 15:01:00,
2013-11-16 07:02:00,48.0,43.1,29.56,WSW,248,5.8,8.1,83,0.00,,,0.00,VWS V14.01,2013-11-16 15:02:00,
2013-11-16 07:03:00,48.0,43.1,29.56,WSW,248,5.6,6.3,83,0.00,,,0.00,VWS V14.01,2013-11-16 15:03:00,
2013-11-16 07:04:00,48.0,43.1,29.56,WSW,248,6.0,6.3,83,0.00,,,0.00,VWS V14.01,2013-11-16 15:04:00,
2013-11-16 07:05:00,48.0,43.1,29.56,WSW,248,6.7,6.7,83,0.00,,,0.00,VWS V14.01,2013-11-16 15:05:00,
2013-11-16 07:06:00,48.0,42.8,29.56,WSW,248,4.9,6.7,82,0.00,,,0.00,VWS V14.01,2013-11-16 15:06:00,
2013-11-16 07:07:00,48.0,42.8,29.56,WSW,248,5.4,6.7,82,0.00,,,0.00,VWS V14.01,2013-11-16 15:07:00,
2013-11-16 07:08:00,48.0,42.8,29.56,WSW,248,6.3,6.7,82,0.00,,,0.00,VWS V14.01,2013-11-16 15:08:00,
2013-11-16 07:09:00,48.0,42.8,29.56,WSW,248,5.6,6.7,82,0.00,,,0.00,VWS V14.01,2013-11-16 15:09:00,
2013-11-16 07:10:00,48.2,43.0,29.56,West,270,5.8,6.3,82,0.00,,,0.00,VWS V14.01,2013-11-16 15:10:00,
2013-11-16 07:11:00,48.2,43.0,29.56,West,270,5.6,6.3,82,0.00,,,0.00,VWS V14.01,2013-11-16 15:11:00,
2013-11-16 07:12:00,48.4,43.2,29.56,WNW,292,6.0,6.0,82,0.00,,,0.00,VWS V14.01,2013-11-16 15:12:00,
2013-11-16 07:13:00,48.4,43.2,29.56,WNW,292,6.0,6.0,82,0.00,,,0.00,VWS V14.01,2013-11-16 15:13:00,
2013-11-16 07:14:00,48.4,43.2,29.56,WSW,248,8.7,8.7,82,0.00,,,0.00,VWS V14.01,2013-11-16 15:14:00,
2013-11-16 07:15:00,48.4,43.2,29.56,WSW,248,5.4,8.7,82,0.00,,,0.00,VWS V14.01,2013-11-16 15:15:00,
2013-11-16 07:16:00,48.4,43.2,29.56,WSW,248,5.4,8.7,82,0.00,,,0.00,VWS V14.01,2013-11-16 15:16:00,
2013-11-16 07:17:00,49.1,43.2,29.56,WSW,248,5.4,8.7,80,0.00,,,0.00,VWS V14.01,2013-11-16 15:17:00,
2013-11-16 07:18:00,49.1,43.2,29.56,WSW,248,5.4,8.7,80,0.00,,,0.00,VWS V14.01,2013-11-16 15:18:00,
2013-11-16 07:19:00,49.3,43.4,29.56,WSW,248,5.4,8.7,80,0.00,,,0.00,VWS V14.01,2013-11-16 15:19:00,
2013-11-16 07:20:00,49.5,43.6,29.56,WSW,248,5.8,5.8,80,0.00,,,0.00,VWS V14.01,2013-11-16 15:20:00,
2013-11-16 07:21:00,49.5,43.6,29.56,WSW,248,6.5,6.5,80,0.00,,,0.00,VWS V14.01,2013-11-16 15:21:00,
2013-11-16 07:22:00,49.6,43.4,29.56,West,270,3.8,6.5,79,0.00,,,0.00,VWS V14.01,2013-11-16 15:22:00,
2013-11-16 07:23:00,49.6,43.4,29.56,SSW,202,5.4,6.5,79,0.00,,,0.00,VWS V14.01,2013-11-16 15:23:00,
2013-11-16 07:24:00,49.8,43.6,29.56,WSW,248,6.0,6.5,79,0.00,,,0.00,VWS V14.01,2013-11-16 15:24:00,
2013-11-16 07:25:00,50.0,43.4,29.56,SW,225,5.4,6.0,78,0.00,,,0.00,VWS V14.01,2013-11-16 15:25:00,
2013-11-16 07:26:00,50.0,43.4,29.56,SW,225,5.4,6.0,78,0.00,,,0.00,VWS V14.01,2013-11-16 15:26:00,
2013-11-16 07:27:00,50.0,43.4,29.56,WSW,248,5.6,6.0,78,0.00,,,0.00,VWS V14.01,2013-11-16 15:27:00,
2013-11-16 07:28:00,50.0,43.4,29.56,WSW,248,5.6,6.0,78,0.00,,,0.00,VWS V14.01,2013-11-16 15:28:00,
2013-11-16 07:29:00,50.2,43.3,29.56,WSW,248,5.6,6.0,77,0.00,,,0.00,VWS V14.01,2013-11-16 15:29:00,
2013-11-16 07:30:00,50.4,43.4,29.56,SW,225,6.3,6.3,77,0.00,,,0.00,VWS V14.01,2013-11-16 15:30:00,
2013-11-16 07:31:00,50.4,43.4,29.56,SW,225,6.3,6.3,77,0.00,,,0.00,VWS V14.01,2013-11-16 15:31:00,
2013-11-16 07:32:00,50.4,43.4,29.56,SW,225,6.3,6.3,77,0.00,,,0.00,VWS V14.01,2013-11-16 15:32:00,
2013-11-16 07:33:00,50.5,43.6,29.56,SSW,202,8.1,8.1,77,0.00,,,0.00,VWS V14.01,2013-11-16 15:33:00,
2013-11-16 07:34:00,50.5,43.6,29.56,SW,225,6.5,8.1,77,0.00,,,0.00,VWS V14.01,2013-11-16 15:34:00,
2013-11-16 07:35:00,50.7,43.4,29.56,SW,225,5.6,8.1,76,0.00,,,0.00,VWS V14.01,2013-11-16 15:35:00,
2013-11-16 07:36:00,50.7,43.4,29.56,SW,225,5.6,8.1,76,0.00,,,0.00,VWS V14.01,2013-11-16 15:36:00,
2013-11-16 07:37:00,50.7,43.4,29.56,WSW,248,4.3,6.5,76,0.00,,,0.00,VWS V14.01,2013-11-16 15:37:00,
2013-11-16 07:38:00,50.9,43.6,29.56,WSW,248,4.3,6.5,76,0.00,,,0.00,VWS V14.01,2013-11-16 15:38:00,
2013-11-16 07:39:00,50.9,43.6,29.56,WSW,248,4.3,5.6,76,0.00,,,0.00,VWS V14.01,2013-11-16 15:39:00,
2013-11-16 07:40:00,51.1,43.4,29.56,WSW,248,5.4,7.2,75,0.00,,,0.00,VWS V14.01,2013-11-16 15:40:00,
2013-11-16 07:41:00,51.1,43.4,29.56,WSW,248,5.4,7.2,75,0.00,,,0.00,VWS V14.01,2013-11-16 15:41:00,
2013-11-16 07:42:00,51.1,43.4,29.56,WSW,248,5.4,7.2,75,0.00,,,0.00,VWS V14.01,2013-11-16 15:42:00,
2013-11-16 07:43:00,51.3,43.3,29.56,SW,225,6.0,7.2,74,0.00,,,0.00,VWS V14.01,2013-11-16 15:43:00,
2013-11-16 07:44:00,51.3,43.3,29.56,SW,225,5.8,6.0,74,0.00,,,0.00,VWS V14.01,2013-11-16 15:44:00,
2013-11-16 07:45:00,51.4,43.4,29.56,WSW,248,4.9,6.3,74,0.00,,,0.00,VWS V14.01,2013-11-16 15:45:00,
2013-11-16 07:46:00,51.4,43.4,29.56,WSW,248,4.9,6.3,74,0.00,,,0.00,VWS V14.01,2013-11-16 15:46:00,
2013-11-16 07:47:00,51.6,43.6,29.56,WSW,248,6.5,6.5,74,0.00,,,0.00,VWS V14.01,2013-11-16 15:47:00,
2013-11-16 07:48:00,51.6,43.6,29.56,WSW,248,6.0,6.5,74,0.00,,,0.00,VWS V14.01,2013-11-16 15:48:00,
2013-11-16 07:49:00,51.6,43.6,29.53,WSW,248,6.3,6.5,74,0.00,,,0.00,VWS V14.01,2013-11-16 15:49:00,
2013-11-16 07:50:00,51.8,43.4,29.53,WSW,248,6.3,6.5,73,0.00,,,0.00,VWS V14.01,2013-11-16 15:50:00,
2013-11-16 07:51:00,51.8,43.4,29.53,WSW,248,8.7,8.7,73,0.00,,,0.00,VWS V14.01,2013-11-16 15:51:00,
2013-11-16 07:52:00,51.8,43.4,29.53,WSW,248,7.8,8.7,73,0.00,,,0.00,VWS V14.01,2013-11-16 15:52:00,
2013-11-16 07:53:00,51.8,43.4,29.53,WSW,248,5.6,8.7,73,0.00,,,0.00,VWS V14.01,2013-11-16 15:53:00,
2013-11-16 07:54:00,52.0,43.6,29.53,WSW,248,5.6,8.7,73,0.00,,,0.00,VWS V14.01,2013-11-16 15:54:00,
2013-11-16 07:55:00,52.0,44.0,29.53,WSW,248,5.6,7.8,74,0.00,,,0.00,VWS V14.01,2013-11-16 15:55:00,
2013-11-16 07:56:00,52.0,44.0,29.53,WSW,248,5.6,7.8,74,0.00,,,0.00,VWS V14.01,2013-11-16 15:56:00,
2013-11-16 07:57:00,52.0,44.0,29.53,WSW,248,5.6,5.6,74,0.00,,,0.00,VWS V14.01,2013-11-16 15:57:00,
2013-11-16 07:58:00,52.0,44.0,29.53,WSW,248,5.6,5.6,74,0.00,,,0.00,VWS V14.01,2013-11-16 15:58:00,
2013-11-16 07:59:00,52.2,44.1,29.53,WSW,248,6.5,6.5,74,0.00,,,0.00,VWS V14.01,2013-11-16 15:59:00,
2013-11-16 08:00:00,52.3,44.3,29.53,WSW,248,7.8,9.8,74,0.00,,,0.00,VWS V14.01,2013-11-16 16:00:00,
2013-11-16 08:01:00,52.3,44.3,29.53,WSW,248,7.8,9.8,74,0.00,,,0.00,VWS V14.01,2013-11-16 16:01:00,
2013-11-16 08:02:00,52.3,44.3,29.53,West,270,7.4,9.8,74,0.00,,,0.00,VWS V14.01,2013-11-16 16:02:00,
2013-11-16 08:03:00,52.3,44.3,29.53,WSW,248,3.6,9.8,74,0.00,,,0.00,VWS V14.01,2013-11-16 16:03:00,
2013-11-16 08:04:00,52.3,44.3,29.53,SW,225,8.5,9.8,74,0.00,,,0.00,VWS V14.01,2013-11-16 16:04:00,
2013-11-16 08:05:00,52.5,44.5,29.53,WSW,248,7.4,8.5,74,0.00,,,0.00,VWS V14.01,2013-11-16 16:05:00,
2013-11-16 08:06:00,52.7,44.7,29.53,WNW,292,8.1,8.5,74,0.00,,,0.00,VWS V14.01,2013-11-16 16:06:00,
2013-11-16 08:07:00,52.7,44.7,29.53,WSW,248,7.2,8.5,74,0.00,,,0.00,VWS V14.01,2013-11-16 16:07:00,
2013-11-16 08:08:00,52.7,44.7,29.53,WSW,248,3.6,8.5,74,0.00,,,0.00,VWS V14.01,2013-11-16 16:08:00,
2013-11-16 08:09:00,52.7,44.7,29.53,WSW,248,7.6,8.1,74,0.00,,,0.00,VWS V14.01,2013-11-16 16:09:00,
2013-11-16 08:10:00,52.9,44.8,29.53,WSW,248,6.0,8.5,74,0.00,,,0.00,VWS V14.01,2013-11-16 16:10:00,
2013-11-16 08:11:00,52.9,44.8,29.53,WSW,248,6.0,8.5,74,0.00,,,0.00,VWS V14.01,2013-11-16 16:11:00,
2013-11-16 08:12:00,52.9,44.8,29.53,WSW,248,4.0,8.5,74,0.00,,,0.00,VWS V14.01,2013-11-16 16:12:00,
2013-11-16 08:13:00,52.9,44.8,29.53,WSW,248,4.0,8.5,74,0.00,,,0.00,VWS V14.01,2013-11-16 16:13:00,
2013-11-16 08:14:00,52.9,44.8,29.53,WSW,248,4.0,8.5,74,0.00,,,0.00,VWS V14.01,2013-11-16 16:14:00,
2013-11-16 08:15:00,53.1,45.0,29.53,WSW,248,4.0,4.0,74,0.00,,,0.00,VWS V14.01,2013-11-16 16:15:00,
2013-11-16 08:16:00,53.1,45.0,29.53,WSW,248,4.0,4.0,74,0.00,,,0.00,VWS V14.01,2013-11-16 16:16:00,
2013-11-16 08:17:00,53.1,45.0,29.53,WSW,248,4.0,4.0,74,0.00,,,0.00,VWS V14.01,2013-11-16 16:17:00,
2013-11-16 08:18:00,53.1,45.0,29.53,WSW,248,4.0,4.0,74,0.00,,,0.00,VWS V14.01,2013-11-16 16:18:00,
2013-11-16 08:19:00,53.1,44.7,29.53,WSW,248,4.0,4.0,73,0.00,,,0.00,VWS V14.01,2013-11-16 16:19:00,
2013-11-16 08:20:00,53.2,44.8,29.53,WSW,248,4.0,4.0,73,0.00,,,0.00,VWS V14.01,2013-11-16 16:20:00,
2013-11-16 08:21:00,53.2,44.8,29.53,WSW,248,4.0,4.0,73,0.00,,,0.00,VWS V14.01,2013-11-16 16:21:00,
2013-11-16 08:22:00,53.6,45.2,29.53,WSW,248,6.3,6.3,73,0.00,,,0.00,VWS V14.01,2013-11-16 16:22:00,
2013-11-16 08:23:00,53.6,45.2,29.53,WSW,248,6.3,6.3,73,0.00,,,0.00,VWS V14.01,2013-11-16 16:23:00,
2013-11-16 08:24:00,53.6,44.8,29.53,NNW,338,6.5,6.5,72,0.00,,,0.00,VWS V14.01,2013-11-16 16:24:00,
2013-11-16 08:25:00,53.4,44.6,29.53,WNW,292,4.7,6.5,72,0.00,,,0.00,VWS V14.01,2013-11-16 16:25:00,
2013-11-16 08:26:00,53.4,44.6,29.53,WNW,292,4.7,6.5,72,0.00,,,0.00,VWS V14.01,2013-11-16 16:26:00,
2013-11-16 08:27:00,53.4,44.6,29.53,West,270,3.8,6.5,72,0.00,,,0.00,VWS V14.01,2013-11-16 16:27:00,
2013-11-16 08:28:00,53.6,44.8,29.53,WNW,292,2.9,4.7,72,0.00,,,0.00,VWS V14.01,2013-11-16 16:28:00,
2013-11-16 08:29:00,53.4,44.3,29.53,WNW,292,4.3,5.4,71,0.00,,,0.00,VWS V14.01,2013-11-16 16:29:00,
2013-11-16 08:30:00,53.4,44.3,29.53,WNW,292,2.7,5.4,71,0.00,,,0.00,VWS V14.01,2013-11-16 16:30:00,
2013-11-16 08:31:00,54.0,44.8,29.53,WNW,292,2.7,5.4,71,0.00,,,0.00,VWS V14.01,2013-11-16 16:31:00,
2013-11-16 08:32:00,54.0,44.8,29.53,NNW,338,2.9,5.4,71,0.00,,,0.00,VWS V14.01,2013-11-16 16:32:00,
2013-11-16 08:33:00,54.1,45.0,29.53,NNW,338,0.0,2.9,71,0.00,,,0.00,VWS V14.01,2013-11-16 16:33:00,
2013-11-16 08:34:00,54.1,45.0,29.56,NW,315,4.0,4.0,71,0.00,,,0.00,VWS V14.01,2013-11-16 16:34:00,
2013-11-16 08:35:00,54.3,44.8,29.56,West,270,3.4,4.0,70,0.00,,,0.00,VWS V14.01,2013-11-16 16:35:00,
2013-11-16 08:36:00,54.5,44.9,29.56,WNW,292,3.8,4.0,70,0.00,,,0.00,VWS V14.01,2013-11-16 16:36:00,
2013-11-16 08:37:00,54.5,44.9,29.56,WNW,292,3.8,4.0,70,0.00,,,0.00,VWS V14.01,2013-11-16 16:37:00,
2013-11-16 08:38:00,54.3,44.4,29.56,WNW,292,1.6,3.8,69,0.00,,,0.00,VWS V14.01,2013-11-16 16:38:00,
2013-11-16 08:39:00,54.3,44.4,29.56,WNW,292,1.6,3.8,69,0.00,,,0.00,VWS V14.01,2013-11-16 16:39:00,
2013-11-16 08:40:00,54.3,44.4,29.56,WNW,292,1.6,3.8,69,0.00,,,0.00,VWS V14.01,2013-11-16 16:40:00,
2013-11-16 08:41:00,54.3,44.4,29.56,NNW,338,4.0,4.0,69,0.00,,,0.00,VWS V14.01,2013-11-16 16:41:00,
2013-11-16 08:42:00,54.5,44.5,29.56,NNW,338,4.0,4.0,69,0.00,,,0.00,VWS V14.01,2013-11-16 16:42:00,
2013-11-16 08:43:00,55.0,45.1,29.56,WSW,248,3.1,4.0,69,0.00,,,0.00,VWS V14.01,2013-11-16 16:43:00,
2013-11-16 08:44:00,55.0,45.1,29.56,WNW,292,2.9,4.0,69,0.00,,,0.00,VWS V14.01,2013-11-16 16:44:00,
2013-11-16 08:45:00,55.0,44.7,29.56,West,270,5.8,5.8,68,0.00,,,0.00,VWS V14.01,2013-11-16 16:45:00,
2013-11-16 08:46:00,55.0,44.7,29.56,West,270,3.6,5.8,68,0.00,,,0.00,VWS V14.01,2013-11-16 16:46:00,
2013-11-16 08:47:00,55.4,44.6,29.56,WNW,292,2.2,5.8,67,0.00,,,0.00,VWS V14.01,2013-11-16 16:47:00,
2013-11-16 08:48:00,55.4,44.6,29.56,WSW,248,4.3,5.8,67,0.00,,,0.00,VWS V14.01,2013-11-16 16:48:00,
2013-11-16 08:49:00,55.4,44.6,29.56,WNW,292,1.3,5.8,67,0.00,,,0.00,VWS V14.01,2013-11-16 16:49:00,
2013-11-16 08:50:00,56.1,44.9,29.56,WNW,292,5.8,7.8,66,0.00,,,0.00,VWS V14.01,2013-11-16 16:50:00,
2013-11-16 08:51:00,56.1,44.9,29.56,WNW,292,5.8,7.8,66,0.00,,,0.00,VWS V14.01,2013-11-16 16:51:00,
2013-11-16 08:52:00,56.1,44.5,29.56,WSW,248,3.6,7.8,65,0.00,,,0.00,VWS V14.01,2013-11-16 16:52:00,
2013-11-16 08:53:00,56.1,44.5,29.56,WSW,248,4.3,7.8,65,0.00,,,0.00,VWS V14.01,2013-11-16 16:53:00,
2013-11-16 08:54:00,56.5,44.9,29.56,West,270,4.3,5.8,65,0.00,,,0.00,VWS V14.01,2013-11-16 16:54:00,
2013-11-16 08:55:00,56.5,44.5,29.56,WSW,248,4.3,6.3,64,0.00,,,0.00,VWS V14.01,2013-11-16 16:55:00,
2013-11-16 08:56:00,56.5,44.5,29.56,WSW,248,4.3,6.3,64,0.00,,,0.00,VWS V14.01,2013-11-16 16:56:00,
2013-11-16 08:57:00,56.5,44.5,29.56,West,270,5.4,6.3,64,0.00,,,0.00,VWS V14.01,2013-11-16 16:57:00,
2013-11-16 08:58:00,56.3,43.9,29.56,West,270,8.1,8.1,63,0.00,,,0.00,VWS V14.01,2013-11-16 16:58:00,
2013-11-16 08:59:00,56.3,43.9,29.56,WSW,248,4.3,8.1,63,0.00,,,0.00,VWS V14.01,2013-11-16 16:59:00,
2013-11-16 09:00:00,56.3,43.9,29.56,WSW,248,5.6,8.1,63,0.00,,,0.00,VWS V14.01,2013-11-16 17:00:00,
2013-11-16 09:01:00,56.5,43.6,29.56,West,270,4.0,8.1,62,0.00,,,0.00,VWS V14.01,2013-11-16 17:01:00,
2013-11-16 09:02:00,56.5,43.6,29.56,WSW,248,5.4,8.1,62,0.00,,,0.00,VWS V14.01,2013-11-16 17:02:00,
2013-11-16 09:03:00,56.3,42.6,29.56,WSW,248,4.7,5.6,60,0.00,,,0.00,VWS V14.01,2013-11-16 17:03:00,
2013-11-16 09:04:00,56.3,42.6,29.56,WSW,248,4.7,5.6,60,0.00,,,0.00,VWS V14.01,2013-11-16 17:04:00,
2013-11-16 09:05:00,56.3,42.2,29.56,WSW,248,4.7,5.4,59,0.00,,,0.00,VWS V14.01,2013-11-16 17:05:00,
2013-11-16 09:06:00,56.7,42.5,29.56,WSW,248,4.7,5.4,59,0.00,,,0.00,VWS V14.01,2013-11-16 17:06:00,
2013-11-16 09:07:00,56.7,42.5,29.56,WSW,248,6.3,6.3,59,0.00,,,0.00,VWS V14.01,2013-11-16 17:07:00,
2013-11-16 09:08:00,56.8,43.1,29.56,WSW,248,4.9,6.3,60,0.00,,,0.00,VWS V14.01,2013-11-16 17:08:00,
2013-11-16 09:09:00,56.8,43.1,29.56,WSW,248,4.0,6.3,60,0.00,,,0.00,VWS V14.01,2013-11-16 17:09:00,
2013-11-16 09:10:00,56.8,43.5,29.56,West,270,5.8,6.3,61,0.00,,,0.00,VWS V14.01,2013-11-16 17:10:00,
2013-11-16 09:11:00,56.8,43.5,29.56,WNW,292,7.4,7.4,61,0.00,,,0.00,VWS V14.01,2013-11-16 17:11:00,
2013-11-16 09:12:00,57.0,43.7,29.56,WNW,292,7.4,7.4,61,0.00,,,0.00,VWS V14.01,2013-11-16 17:12:00,
2013-11-16 09:13:00,57.0,43.7,29.56,WSW,248,5.4,7.4,61,0.00,,,0.00,VWS V14.01,2013-11-16 17:13:00,
2013-11-16 09:14:00,57.0,43.7,29.56,SW,225,7.6,7.6,61,0.00,,,0.00,VWS V14.01,2013-11-16 17:14:00,
2013-11-16 09:15:00,57.0,43.7,29.56,SW,225,7.6,7.6,61,0.00,,,0.00,VWS V14.01,2013-11-16 17:15:00,
2013-11-16 09:16:00,57.0,43.7,29.56,SW,225,7.6,7.6,61,0.00,,,0.00,VWS V14.01,2013-11-16 17:16:00,
2013-11-16 09:17:00,57.0,43.7,29.56,WSW,248,5.6,7.6,61,0.00,,,0.00,VWS V14.01,2013-11-16 17:17:00,
2013-11-16 09:18:00,57.0,43.7,29.56,WSW,248,5.6,7.6,61,0.00,,,0.00,VWS V14.01,2013-11-16 17:18:00,
2013-11-16 09:19:00,57.2,43.0,29.56,WSW,248,3.1,7.6,59,0.00,,,0.00,VWS V14.01,2013-11-16 17:19:00,
2013-11-16 09:20:00,57.4,43.2,29.56,WSW,248,4.3,7.6,59,0.00,,,0.00,VWS V14.01,2013-11-16 17:20:00,
2013-11-16 09:21:00,57.4,43.2,29.56,WSW,248,4.3,5.6,59,0.00,,,0.00,VWS V14.01,2013-11-16 17:21:00,
2013-11-16 09:22:00,57.6,43.4,29.56,SSW,202,6.0,6.0,59,0.00,,,0.00,VWS V14.01,2013-11-16 17:22:00,
2013-11-16 09:23:00,57.6,43.4,29.56,WSW,248,5.6,6.0,59,0.00,,,0.00,VWS V14.01,2013-11-16 17:23:00,
2013-11-16 09:24:00,57.4,42.7,29.56,West,270,6.3,6.3,58,0.00,,,0.00,VWS V14.01,2013-11-16 17:24:00,
2013-11-16 09:25:00,57.4,42.7,29.56,West,270,5.4,6.3,58,0.00,,,0.00,VWS V14.01,2013-11-16 17:25:00,
2013-11-16 09:27:00,57.4,42.7,29.56,West,270,5.4,6.3,58,0.00,,,0.00,VWS V14.01,2013-11-16 17:27:00,
2013-11-16 09:28:00,57.7,42.6,29.56,WNW,292,4.3,6.3,57,0.00,,,0.00,VWS V14.01,2013-11-16 17:28:00,
2013-11-16 09:29:00,57.7,42.2,29.56,WNW,292,4.3,5.6,56,0.00,,,0.00,VWS V14.01,2013-11-16 17:29:00,
2013-11-16 09:30:00,57.7,42.2,29.56,West,270,7.4,7.4,56,0.00,,,0.00,VWS V14.01,2013-11-16 17:30:00,
2013-11-16 09:31:00,57.9,42.3,29.56,West,270,6.0,7.4,56,0.00,,,0.00,VWS V14.01,2013-11-16 17:31:00,
2013-11-16 09:32:00,57.9,42.3,29.56,WNW,292,5.4,7.4,56,0.00,,,0.00,VWS V14.01,2013-11-16 17:32:00,
2013-11-16 09:33:00,57.9,41.9,29.56,WNW,292,3.4,7.4,55,0.00,,,0.00,VWS V14.01,2013-11-16 17:33:00,
2013-11-16 09:34:00,57.9,41.9,29.59,West,270,5.4,6.0,55,0.00,,,0.00,VWS V14.01,2013-11-16 17:34:00,
2013-11-16 09:35:00,58.5,42.8,29.59,West,270,3.4,5.4,56,0.00,,,0.00,VWS V14.01,2013-11-16 17:35:00,
2013-11-16 09:36:00,58.8,42.7,29.59,WSW,248,4.3,5.4,55,0.00,,,0.00,VWS V14.01,2013-11-16 17:36:00,
2013-11-16 09:37:00,58.8,42.7,29.59,WSW,248,5.8,5.8,55,0.00,,,0.00,VWS V14.01,2013-11-16 17:37:00,
2013-11-16 09:38:00,58.8,42.2,29.59,WSW,248,5.8,5.8,54,0.00,,,0.00,VWS V14.01,2013-11-16 17:38:00,
2013-11-16 09:39:00,58.8,42.2,29.59,WSW,248,5.8,5.8,54,0.00,,,0.00,VWS V14.01,2013-11-16 17:39:00,
2013-11-16 09:40:00,59.0,41.9,29.59,WSW,248,4.9,5.8,53,0.00,,,0.00,VWS V14.01,2013-11-16 17:40:00,
2013-11-16 09:41:00,59.0,41.9,29.59,SSW,202,2.0,5.8,53,0.00,,,0.00,VWS V14.01,2013-11-16 17:41:00,
2013-11-16 09:42:00,59.2,42.1,29.59,SW,225,6.5,6.5,53,0.00,,,0.00,VWS V14.01,2013-11-16 17:42:00,
2013-11-16 09:43:00,59.2,42.1,29.59,SW,225,6.5,6.5,53,0.00,,,0.00,VWS V14.01,2013-11-16 17:43:00,
2013-11-16 09:44:00,59.2,42.1,29.59,WSW,248,4.3,6.5,53,0.00,,,0.00,VWS V14.01,2013-11-16 17:44:00,
2013-11-16 09:45:00,59.4,42.2,29.59,WSW,248,4.3,6.5,53,0.00,,,0.00,VWS V14.01,2013-11-16 17:45:00,
2013-11-16 09:46:00,59.4,42.2,29.59,West,270,3.4,6.5,53,0.00,,,0.00,VWS V14.01,2013-11-16 17:46:00,
2013-11-16 09:47:00,59.7,42.6,29.59,SW,225,1.3,6.5,53,0.00,,,0.00,VWS V14.01,2013-11-16 17:47:00,
2013-11-16 09:48:00,59.7,42.6,29.59,WSW,248,6.5,6.5,53,0.00,,,0.00,VWS V14.01,2013-11-16 17:48:00,
2013-11-16 09:49:00,59.7,42.1,29.59,WSW,248,6.5,6.5,52,0.00,,,0.00,VWS V14.01,2013-11-16 17:49:00,
2013-11-16 09:50:00,59.9,41.8,29.59,West,270,6.0,6.5,51,0.00,,,0.00,VWS V14.01,2013-11-16 17:50:00,
2013-11-16 09:51:00,59.9,41.8,29.59,West,270,6.0,6.5,51,0.00,,,0.00,VWS V14.01,2013-11-16 17:51:00,
2013-11-16 09:52:00,59.7,41.6,29.59,WSW,248,5.4,6.5,51,0.00,,,0.00,VWS V14.01,2013-11-16 17:52:00,
2013-11-16 09:53:00,59.7,41.6,29.59,WSW,248,5.8,6.5,51,0.00,,,0.00,VWS V14.01,2013-11-16 17:53:00,
2013-11-16 09:54:00,59.9,42.2,29.59,West,270,5.6,6.0,52,0.00,,,0.00,VWS V14.01,2013-11-16 17:54:00,
2013-11-16 09:55:00,60.1,41.9,29.59,WSW,248,4.9,5.8,51,0.00,,,0.00,VWS V14.01,2013-11-16 17:55:00,
2013-11-16 09:56:00,60.1,41.9,29.59,SW,225,4.0,5.8,51,0.00,,,0.00,VWS V14.01,2013-11-16 17:56:00,
2013-11-16 09:57:00,60.1,41.9,29.59,SW,225,4.3,5.8,51,0.00,,,0.00,VWS V14.01,2013-11-16 17:57:00,
2013-11-16 09:58:00,60.3,42.1,29.59,SSW,202,5.6,5.6,51,0.00,,,0.00,VWS V14.01,2013-11-16 17:58:00,
2013-11-16 09:59:00,60.4,41.7,29.59,WSW,248,4.3,5.6,50,0.00,,,0.00,VWS V14.01,2013-11-16 17:59:00,
2013-11-16 10:00:00,60.4,41.7,29.59,WSW,248,2.2,5.6,50,0.00,,,0.00,VWS V14.01,2013-11-16 18:00:00,
2013-11-16 10:01:00,60.6,41.9,29.59,WSW,248,2.2,5.6,50,0.00,,,0.00,VWS V14.01,2013-11-16 18:01:00,
2013-11-16 10:02:00,60.6,41.9,29.59,SSW,202,3.6,5.6,50,0.00,,,0.00,VWS V14.01,2013-11-16 18:02:00,
2013-11-16 10:03:00,60.8,42.1,29.59,WSW,248,2.9,4.3,50,0.00,,,0.00,VWS V14.01,2013-11-16 18:03:00,
2013-11-16 10:04:00,60.8,42.1,29.59,SSW,202,5.4,5.4,50,0.00,,,0.00,VWS V14.01,2013-11-16 18:04:00,
2013-11-16 10:05:00,61.0,41.7,29.59,West,270,6.3,6.3,49,0.00,,,0.00,VWS V14.01,2013-11-16 18:05:00,
2013-11-16 10:06:00,61.0,41.7,29.59,West,270,6.3,6.3,49,0.00,,,0.00,VWS V14.01,2013-11-16 18:06:00,
2013-11-16 10:07:00,61.0,41.7,29.59,SW,225,4.3,6.3,49,0.00,,,0.00,VWS V14.01,2013-11-16 18:07:00,
2013-11-16 10:08:00,61.2,41.9,29.59,SW,225,6.5,6.5,49,0.00,,,0.00,VWS V14.01,2013-11-16 18:08:00,
2013-11-16 10:09:00,61.2,41.9,29.59,SW,225,5.8,6.5,49,0.00,,,0.00,VWS V14.01,2013-11-16 18:09:00,
2013-11-16 10:10:00,61.2,41.9,29.59,SSW,202,3.6,6.5,49,0.00,,,0.00,VWS V14.01,2013-11-16 18:10:00,
2013-11-16 10:11:00,61.2,41.9,29.59,SSW,202,3.6,6.5,49,0.00,,,0.00,VWS V14.01,2013-11-16 18:11:00,
2013-11-16 10:12:00,61.2,42.4,29.59,WSW,248,4.7,5.8,50,0.00,,,0.00,VWS V14.01,2013-11-16 18:12:00,
2013-11-16 10:13:00,61.2,42.4,29.59,WSW,248,2.7,5.8,50,0.00,,,0.00,VWS V14.01,2013-11-16 18:13:00,
2013-11-16 10:14:00,61.2,42.4,29.59,WSW,248,7.4,7.4,50,0.00,,,0.00,VWS V14.01,2013-11-16 18:14:00,
2013-11-16 10:15:00,61.2,42.4,29.59,WSW,248,7.4,7.4,50,0.00,,,0.00,VWS V14.01,2013-11-16 18:15:00,
2013-11-16 10:16:00,61.2,42.4,29.59,WSW,248,7.4,7.4,50,0.00,,,0.00,VWS V14.01,2013-11-16 18:16:00,
2013-11-16 10:17:00,61.3,42.6,29.59,WSW,248,7.4,7.4,50,0.00,,,0.00,VWS V14.01,2013-11-16 18:17:00,
2013-11-16 10:18:00,61.3,42.6,29.59,WSW,248,6.0,7.4,50,0.00,,,0.00,VWS V14.01,2013-11-16 18:18:00,
2013-11-16 10:19:00,61.3,42.6,29.59,WSW,248,6.0,7.4,50,0.00,,,0.00,VWS V14.01,2013-11-16 18:19:00,
2013-11-16 10:20:00,61.2,42.4,29.59,SW,225,4.0,7.4,50,0.00,,,0.00,VWS V14.01,2013-11-16 18:20:00,
2013-11-16 10:21:00,61.2,42.4,29.59,WSW,248,5.4,7.4,50,0.00,,,0.00,VWS V14.01,2013-11-16 18:21:00,
2013-11-16 10:22:00,61.2,42.4,29.59,SW,225,4.0,6.0,50,0.00,,,0.00,VWS V14.01,2013-11-16 18:22:00,
2013-11-16 10:23:00,61.2,42.4,29.59,WSW,248,5.6,5.6,50,0.00,,,0.00,VWS V14.01,2013-11-16 18:23:00,
2013-11-16 10:25:00,61.0,41.7,29.59,WSW,248,7.4,7.4,49,0.00,,,0.00,VWS V14.01,2013-11-16 18:25:00,
2013-11-16 10:26:00,61.0,41.7,29.59,WSW,248,7.4,7.4,49,0.00,,,0.00,VWS V14.01,2013-11-16 18:26:00,
2013-11-16 10:27:00,61.0,41.7,29.59,WSW,248,7.4,7.4,49,0.00,,,0.00,VWS V14.01,2013-11-16 18:27:00,
2013-11-16 10:28:00,61.3,42.6,29.59,WSW,248,3.4,7.4,50,0.00,,,0.00,VWS V14.01,2013-11-16 18:28:00,
2013-11-16 10:29:00,62.1,43.2,29.59,SW,225,0.0,7.4,50,0.00,,,0.00,VWS V14.01,2013-11-16 18:29:00,
2013-11-16 10:30:00,62.1,42.7,29.59,SW,225,4.9,4.9,49,0.00,,,0.00,VWS V14.01,2013-11-16 18:30:00,
2013-11-16 10:31:00,62.1,42.7,29.59,SW,225,4.9,4.9,49,0.00,,,0.00,VWS V14.01,2013-11-16 18:31:00,
2013-11-16 10:32:00,62.1,42.7,29.59,SW,225,6.5,6.5,49,0.00,,,0.00,VWS V14.01,2013-11-16 18:32:00,
2013-11-16 10:33:00,61.9,42.5,29.59,SW,225,4.7,6.5,49,0.00,,,0.00,VWS V14.01,2013-11-16 18:33:00,
2013-11-16 10:34:00,61.9,42.5,29.59,SSW,202,1.3,6.5,49,0.00,,,0.00,VWS V14.01,2013-11-16 18:34:00,
2013-11-16 10:35:00,62.2,42.9,29.59,SSW,202,2.2,6.5,49,0.00,,,0.00,VWS V14.01,2013-11-16 18:35:00,
2013-11-16 10:36:00,62.2,42.9,29.59,SSW,202,2.2,6.5,49,0.00,,,0.00,VWS V14.01,2013-11-16 18:36:00,
2013-11-16 10:37:00,62.6,42.7,29.59,WSW,248,3.4,3.4,48,0.00,,,0.00,VWS V14.01,2013-11-16 18:37:00,
2013-11-16 10:38:00,63.0,43.0,29.59,WSW,248,1.3,3.4,48,0.00,,,0.00,VWS V14.01,2013-11-16 18:38:00,
2013-11-16 10:39:00,63.0,43.0,29.59,WSW,248,1.3,3.4,48,0.00,,,0.00,VWS V14.01,2013-11-16 18:39:00,
2013-11-16 10:40:00,63.3,43.3,29.59,WSW,248,1.3,3.4,48,0.00,,,0.00,VWS V14.01,2013-11-16 18:40:00,
2013-11-16 10:41:00,63.3,43.3,29.59,WSW,248,1.3,3.4,48,0.00,,,0.00,VWS V14.01,2013-11-16 18:41:00,
2013-11-16 10:42:00,63.5,42.9,29.59,WSW,248,1.3,3.4,47,0.00,,,0.00,VWS V14.01,2013-11-16 18:42:00,
2013-11-16 10:43:00,63.5,42.9,29.59,WSW,248,1.3,1.3,47,0.00,,,0.00,VWS V14.01,2013-11-16 18:43:00,
2013-11-16 10:44:00,63.9,43.8,29.59,WSW,248,1.3,1.3,48,0.00,,,0.00,VWS V14.01,2013-11-16 18:44:00,
2013-11-16 10:45:00,64.2,43.6,29.59,WSW,248,1.3,1.3,47,0.00,,,0.00,VWS V14.01,2013-11-16 18:45:00,
2013-11-16 10:46:00,64.2,43.6,29.59,WSW,248,1.3,1.3,47,0.00,,,0.00,VWS V14.01,2013-11-16 18:46:00,
2013-11-16 10:47:00,64.2,43.6,29.59,WSW,248,1.3,1.3,47,0.00,,,0.00,VWS V14.01,2013-11-16 18:47:00,
2013-11-16 10:48:00,64.2,43.6,29.59,WSW,248,1.3,1.3,47,0.00,,,0.00,VWS V14.01,2013-11-16 18:48:00,
2013-11-16 10:49:00,65.1,44.4,29.59,WSW,248,1.3,1.3,47,0.00,,,0.00,VWS V14.01,2013-11-16 18:49:00,
2013-11-16 10:50:00,65.1,44.4,29.59,SW,225,4.3,4.3,47,0.00,,,0.00,VWS V14.01,2013-11-16 18:50:00,
2013-11-16 10:51:00,65.1,44.4,29.59,SW,225,4.3,4.3,47,0.00,,,0.00,VWS V14.01,2013-11-16 18:51:00,
2013-11-16 10:52:00,65.5,44.7,29.59,SW,225,4.3,4.3,47,0.00,,,0.00,VWS V14.01,2013-11-16 18:52:00,
2013-11-16 10:53:00,65.5,44.7,29.59,SW,225,4.3,4.3,47,0.00,,,0.00,VWS V14.01,2013-11-16 18:53:00,
2013-11-16 10:54:00,65.5,44.2,29.59,SW,225,4.3,4.3,46,0.00,,,0.00,VWS V14.01,2013-11-16 18:54:00,
2013-11-16 10:55:00,65.7,44.3,29.59,SW,225,4.3,4.3,46,0.00,,,0.00,VWS V14.01,2013-11-16 18:55:00,
2013-11-16 10:56:00,65.7,44.3,29.59,SW,225,4.3,4.3,46,0.00,,,0.00,VWS V14.01,2013-11-16 18:56:00,
2013-11-16 10:57:00,65.7,44.3,29.59,SW,225,4.3,4.3,46,0.00,,,0.00,VWS V14.01,2013-11-16 18:57:00,
2013-11-16 10:58:00,65.7,44.3,29.59,SW,225,4.3,4.3,46,0.00,,,0.00,VWS V14.01,2013-11-16 18:58:00,
2013-11-16 10:59:00,65.7,44.3,29.59,SW,225,4.3,4.3,46,0.00,,,0.00,VWS V14.01,2013-11-16 18:59:00,
2013-11-16 11:00:00,65.8,44.5,29.59,NNE,22,0.0,4.3,46,0.00,,,0.00,VWS V14.01,2013-11-16 19:00:00,
2013-11-16 11:01:00,66.2,44.3,29.59,NNE,22,0.0,4.3,45,0.00,,,0.00,VWS V14.01,2013-11-16 19:01:00,
2013-11-16 11:02:00,66.2,44.3,29.59,West,270,0.0,4.3,45,0.00,,,0.00,VWS V14.01,2013-11-16 19:02:00,
2013-11-16 11:03:00,66.6,44.6,29.59,WSW,248,3.6,3.6,45,0.00,,,0.00,VWS V14.01,2013-11-16 19:03:00,
2013-11-16 11:04:00,66.6,44.6,29.59,SSW,202,3.1,3.6,45,0.00,,,0.00,VWS V14.01,2013-11-16 19:04:00,
2013-11-16 11:05:00,66.6,44.0,29.59,SW,225,2.9,3.6,44,0.00,,,0.00,VWS V14.01,2013-11-16 19:05:00,
2013-11-16 11:06:00,66.6,44.0,29.59,SSW,202,0.9,3.6,44,0.00,,,0.00,VWS V14.01,2013-11-16 19:06:00,
2013-11-16 11:07:00,66.7,44.2,29.59,SSW,202,1.1,3.1,44,0.00,,,0.00,VWS V14.01,2013-11-16 19:07:00,
2013-11-16 11:08:00,66.7,44.2,29.59,SW,225,2.9,2.9,44,0.00,,,0.00,VWS V14.01,2013-11-16 19:08:00,
2013-11-16 11:09:00,66.7,44.2,29.59,SSW,202,2.7,2.9,44,0.00,,,0.00,VWS V14.01,2013-11-16 19:09:00,
2013-11-16 11:10:00,66.7,44.2,29.59,South,180,2.0,2.9,44,0.00,,,0.00,VWS V14.01,2013-11-16 19:10:00,
2013-11-16 11:11:00,66.7,44.2,29.59,South,180,2.0,2.9,44,0.00,,,0.00,VWS V14.01,2013-11-16 19:11:00,
2013-11-16 11:12:00,67.6,45.6,29.59,South,180,0.0,2.7,45,0.00,,,0.00,VWS V14.01,2013-11-16 19:12:00,
2013-11-16 11:13:00,67.6,45.6,29.59,WSW,248,3.4,3.4,45,0.00,,,0.00,VWS V14.01,2013-11-16 19:13:00,
2013-11-16 11:14:00,67.8,45.1,29.59,WSW,248,3.1,3.4,44,0.00,,,0.00,VWS V14.01,2013-11-16 19:14:00,
2013-11-16 11:15:00,66.2,43.7,29.59,NNW,338,4.3,4.3,44,0.00,,,0.00,VWS V14.01,2013-11-16 19:15:00,
2013-11-16 11:16:00,66.2,43.7,29.59,NNW,338,4.3,4.3,44,0.00,,,0.00,VWS V14.01,2013-11-16 19:16:00,
2013-11-16 11:17:00,65.7,43.2,29.59,WNW,292,5.6,5.6,44,0.00,,,0.00,VWS V14.01,2013-11-16 19:17:00,
2013-11-16 11:18:00,65.7,43.2,29.59,WSW,248,3.8,5.6,44,0.00,,,0.00,VWS V14.01,2013-11-16 19:18:00,
2013-11-16 11:19:00,66.2,43.7,29.59,WSW,248,3.1,5.6,44,0.00,,,0.00,VWS V14.01,2013-11-16 19:19:00,
2013-11-16 11:20:00,66.6,44.0,29.59,SE,135,2.5,3.8,44,0.00,,,0.00,VWS V14.01,2013-11-16 19:20:00,
2013-11-16 11:21:00,66.6,44.0,29.59,SE,135,2.5,3.8,44,0.00,,,0.00,VWS V14.01,2013-11-16 19:21:00,
2013-11-16 11:22:00,67.1,44.5,29.59,South,180,0.0,3.1,44,0.00,,,0.00,VWS V14.01,2013-11-16 19:22:00,
2013-11-16 11:23:00,67.1,44.5,29.59,SSW,202,0.0,2.5,44,0.00,,,0.00,VWS V14.01,2013-11-16 19:23:00,
2013-11-16 11:24:00,67.1,44.5,29.59,NE,45,2.0,2.9,44,0.00,,,0.00,VWS V14.01,2013-11-16 19:24:00,
2013-11-16 11:25:00,67.8,45.1,29.59,NE,45,2.0,2.9,44,0.00,,,0.00,VWS V14.01,2013-11-16 19:25:00,
2013-11-16 11:26:00,67.8,45.1,29.59,NNW,338,1.1,2.9,44,0.00,,,0.00,VWS V14.01,2013-11-16 19:26:00,
2013-11-16 11:27:00,67.8,45.1,29.59,NNW,338,3.1,3.1,44,0.00,,,0.00,VWS V14.01,2013-11-16 19:27:00,
2013-11-16 11:28:00,66.2,43.1,29.59,NNW,338,2.5,3.1,43,0.00,,,0.00,VWS V14.01,2013-11-16 19:28:00,
2013-11-16 11:29:00,66.2,43.1,29.59,NNW,338,2.5,3.1,43,0.00,,,0.00,VWS V14.01,2013-11-16 19:29:00,
2013-11-16 11:30:00,66.2,43.1,29.59,NNW,338,0.0,3.1,43,0.00,,,0.00,VWS V14.01,2013-11-16 19:30:00,
2013-11-16 11:31:00,67.6,45.0,29.59,NNW,338,0.0,3.1,44,0.00,,,0.00,VWS V14.01,2013-11-16 19:31:00,
2013-11-16 11:32:00,67.6,45.0,29.59,SSW,202,0.0,3.1,44,0.00,,,0.00,VWS V14.01,2013-11-16 19:32:00,
2013-11-16 11:33:00,68.2,44.9,29.59,SSE,158,1.6,1.6,43,0.00,,,0.00,VWS V14.01,2013-11-16 19:33:00,
2013-11-16 11:34:00,68.2,44.9,29.59,NE,45,2.7,2.7,43,0.00,,,0.00,VWS V14.01,2013-11-16 19:34:00,
2013-11-16 11:35:00,68.2,44.9,29.59,WSW,248,3.4,3.4,43,0.00,,,0.00,VWS V14.01,2013-11-16 19:35:00,
2013-11-16 11:36:00,68.2,44.9,29.59,WSW,248,3.4,3.4,43,0.00,,,0.00,VWS V14.01,2013-11-16 19:36:00,
2013-11-16 11:37:00,68.2,44.9,29.59,WSW,248,4.9,4.9,43,0.00,,,0.00,VWS V14.01,2013-11-16 19:37:00,
2013-11-16 11:38:00,67.3,44.7,29.59,North,0,2.9,4.9,44,0.00,,,0.00,VWS V14.01,2013-11-16 19:38:00,
2013-11-16 11:39:00,67.3,44.7,29.59,WNW,292,1.1,4.9,44,0.00,,,0.00,VWS V14.01,2013-11-16 19:39:00,
2013-11-16 11:40:00,67.5,44.8,29.59,SW,225,6.3,6.3,44,0.00,,,0.00,VWS V14.01,2013-11-16 19:40:00,
2013-11-16 11:41:00,67.5,44.8,29.59,SW,225,6.3,6.3,44,0.00,,,0.00,VWS V14.01,2013-11-16 19:41:00,
2013-11-16 11:42:00,67.1,43.9,29.59,SW,225,4.9,6.3,43,0.00,,,0.00,VWS V14.01,2013-11-16 19:42:00,
2013-11-16 11:43:00,67.1,43.9,29.59,WSW,248,1.1,6.3,43,0.00,,,0.00,VWS V14.01,2013-11-16 19:43:00,
2013-11-16 11:44:00,67.3,44.7,29.59,WSW,248,0.0,6.3,44,0.00,,,0.00,VWS V14.01,2013-11-16 19:44:00,
2013-11-16 11:45:00,68.0,44.7,29.59,SW,225,2.5,4.9,43,0.00,,,0.00,VWS V14.01,2013-11-16 19:45:00,
2013-11-16 11:46:00,68.0,44.7,29.59,SW,225,2.5,2.5,43,0.00,,,0.00,VWS V14.01,2013-11-16 19:46:00,
2013-11-16 11:47:00,67.3,44.0,29.59,WSW,248,4.0,4.0,43,0.00,,,0.00,VWS V14.01,2013-11-16 19:47:00,
2013-11-16 11:48:00,67.3,44.0,29.59,WSW,248,4.0,4.0,43,0.00,,,0.00,VWS V14.01,2013-11-16 19:48:00,
2013-11-16 11:49:00,66.7,43.6,29.59,WSW,248,4.0,4.0,43,0.00,,,0.00,VWS V14.01,2013-11-16 19:49:00,
2013-11-16 11:50:00,66.6,43.4,29.59,WSW,248,4.0,4.0,43,0.00,,,0.00,VWS V14.01,2013-11-16 19:50:00,
2013-11-16 11:51:00,66.6,43.4,29.59,WSW,248,4.0,4.0,43,0.00,,,0.00,VWS V14.01,2013-11-16 19:51:00,
2013-11-16 11:52:00,66.2,43.1,29.59,WSW,248,4.0,4.0,43,0.00,,,0.00,VWS V14.01,2013-11-16 19:52:00,
2013-11-16 11:54:00,66.2,43.1,29.59,WSW,248,4.0,4.0,43,0.00,,,0.00,VWS V14.01,2013-11-16 19:54:00,
2013-11-16 11:55:00,66.2,43.7,29.59,WSW,248,4.0,4.0,44,0.00,,,0.00,VWS V14.01,2013-11-16 19:55:00,
2013-11-16 11:56:00,66.2,43.7,29.59,WSW,248,4.0,4.0,44,0.00,,,0.00,VWS V14.01,2013-11-16 19:56:00,
2013-11-16 11:57:00,66.2,43.1,29.59,WSW,248,4.0,4.0,43,0.00,,,0.00,VWS V14.01,2013-11-16 19:57:00,
2013-11-16 11:58:00,66.2,43.1,29.59,WSW,248,4.0,4.0,43,0.00,,,0.00,VWS V14.01,2013-11-16 19:58:00,
2013-11-16 11:59:00,65.7,43.2,29.59,WSW,248,4.0,4.0,44,0.00,,,0.00,VWS V14.01,2013-11-16 19:59:00,
2013-11-16 12:00:00,65.7,43.2,29.59,WSW,248,4.0,4.0,44,0.00,,,0.00,VWS V14.01,2013-11-16 20:00:00,
2013-11-16 12:01:00,65.7,43.2,29.59,WSW,248,4.0,4.0,44,0.00,,,0.00,VWS V14.01,2013-11-16 20:01:00,
2013-11-16 12:02:00,65.1,42.7,29.59,WSW,248,4.0,4.0,44,0.00,,,0.00,VWS V14.01,2013-11-16 20:02:00,
2013-11-16 12:03:00,65.1,42.7,29.59,WSW,248,4.0,4.0,44,0.00,,,0.00,VWS V14.01,2013-11-16 20:03:00,
2013-11-16 12:04:00,64.9,42.5,29.56,WSW,248,4.0,4.0,44,0.00,,,0.00,VWS V14.01,2013-11-16 20:04:00,
2013-11-16 12:05:00,64.8,42.4,29.56,WSW,248,4.0,4.0,44,0.00,,,0.00,VWS V14.01,2013-11-16 20:05:00,
2013-11-16 12:06:00,64.8,42.4,29.56,WSW,248,4.0,4.0,44,0.00,,,0.00,VWS V14.01,2013-11-16 20:06:00,
2013-11-16 12:07:00,64.4,42.0,29.56,WSW,248,4.0,4.0,44,0.00,,,0.00,VWS V14.01,2013-11-16 20:07:00,
2013-11-16 12:08:00,64.2,42.5,29.56,WSW,248,4.0,4.0,45,0.00,,,0.00,VWS V14.01,2013-11-16 20:08:00,
2013-11-16 12:09:00,64.2,42.5,29.56,WSW,248,4.0,4.0,45,0.00,,,0.00,VWS V14.01,2013-11-16 20:09:00,
2013-11-16 12:10:00,64.4,42.6,29.56,WSW,248,4.0,4.0,45,0.00,,,0.00,VWS V14.01,2013-11-16 20:10:00,
2013-11-16 12:11:00,64.4,42.6,29.56,WSW,248,4.0,4.0,45,0.00,,,0.00,VWS V14.01,2013-11-16 20:11:00,
2013-11-16 12:12:00,64.0,42.3,29.56,WSW,248,4.0,4.0,45,0.00,,,0.00,VWS V14.01,2013-11-16 20:12:00,
2013-11-16 12:13:00,64.0,42.3,29.56,WSW,248,4.0,4.0,45,0.00,,,0.00,VWS V14.01,2013-11-16 20:13:00,
2013-11-16 12:14:00,63.9,42.7,29.56,WSW,248,4.0,4.0,46,0.00,,,0.00,VWS V14.01,2013-11-16 20:14:00,
2013-11-16 12:15:00,63.5,42.4,29.56,WSW,248,4.0,4.0,46,0.00,,,0.00,VWS V14.01,2013-11-16 20:15:00,
2013-11-16 12:16:00,63.5,42.4,29.56,WSW,248,4.0,4.0,46,0.00,,,0.00,VWS V14.01,2013-11-16 20:16:00,
2013-11-16 12:17:00,63.5,42.4,29.56,WSW,248,4.0,4.0,46,0.00,,,0.00,VWS V14.01,2013-11-16 20:17:00,
2013-11-16 12:18:00,63.5,42.4,29.56,WSW,248,4.0,4.0,46,0.00,,,0.00,VWS V14.01,2013-11-16 20:18:00,
2013-11-16 12:19:00,63.1,42.0,29.56,WSW,248,4.0,4.0,46,0.00,,,0.00,VWS V14.01,2013-11-16 20:19:00,
2013-11-16 12:20:00,63.9,42.7,29.56,WSW,248,4.0,4.0,46,0.00,,,0.00,VWS V14.01,2013-11-16 20:20:00,
2013-11-16 12:21:00,63.9,42.7,29.56,WSW,248,4.0,4.0,46,0.00,,,0.00,VWS V14.01,2013-11-16 20:21:00,
2013-11-16 12:22:00,63.9,42.7,29.56,WSW,248,6.0,6.0,46,0.00,,,0.00,VWS V14.01,2013-11-16 20:22:00,
2013-11-16 12:23:00,63.9,42.1,29.56,WSW,248,9.8,9.8,45,0.00,,,0.00,VWS V14.01,2013-11-16 20:23:00,
2013-11-16 12:24:00,63.5,41.8,29.56,WSW,248,10.3,10.3,45,0.00,,,0.00,VWS V14.01,2013-11-16 20:24:00,
2013-11-16 12:25:00,63.5,41.8,29.56,West,270,9.8,10.3,45,0.00,,,0.00,VWS V14.01,2013-11-16 20:25:00,
2013-11-16 12:26:00,63.0,41.9,29.56,WSW,248,10.7,10.7,46,0.00,,,0.00,VWS V14.01,2013-11-16 20:26:00,
2013-11-16 12:27:00,63.0,41.9,29.56,West,270,7.6,10.7,46,0.00,,,0.00,VWS V14.01,2013-11-16 20:27:00,
2013-11-16 12:28:00,62.2,41.8,29.56,West,270,10.7,10.7,47,0.00,,,0.00,VWS V14.01,2013-11-16 20:28:00,
2013-11-16 12:29:00,62.2,41.8,29.56,West,270,10.7,10.7,47,0.00,,,0.00,VWS V14.01,2013-11-16 20:29:00,
2013-11-16 12:30:00,62.2,42.3,29.56,NW,315,9.4,12.3,48,0.00,,,0.00,VWS V14.01,2013-11-16 20:30:00,
2013-11-16 12:31:00,62.2,42.3,29.56,NW,315,9.4,12.3,48,0.00,,,0.00,VWS V14.01,2013-11-16 20:31:00,
2013-11-16 12:32:00,62.2,42.3,29.56,NW,315,9.4,12.3,48,0.00,,,0.00,VWS V14.01,2013-11-16 20:32:00,
2013-11-16 12:33:00,61.5,42.7,29.56,West,270,9.6,12.3,50,0.00,,,0.00,VWS V14.01,2013-11-16 20:33:00,
2013-11-16 12:34:00,61.5,42.7,29.56,NW,315,6.3,12.3,50,0.00,,,0.00,VWS V14.01,2013-11-16 20:34:00,
2013-11-16 12:35:00,62.1,43.7,29.56,WSW,248,7.8,9.6,51,0.00,,,0.00,VWS V14.01,2013-11-16 20:35:00,
2013-11-16 12:36:00,62.1,43.7,29.56,WSW,248,7.8,9.6,51,0.00,,,0.00,VWS V14.01,2013-11-16 20:36:00,
2013-11-16 12:37:00,61.7,43.9,29.56,West,270,8.7,8.7,52,0.00,,,0.00,VWS V14.01,2013-11-16 20:37:00,
2013-11-16 12:38:00,61.3,43.1,29.56,WNW,292,6.5,8.7,51,0.00,,,0.00,VWS V14.01,2013-11-16 20:38:00,
2013-11-16 12:39:00,61.3,43.1,29.56,WNW,292,6.5,8.7,51,0.00,,,0.00,VWS V14.01,2013-11-16 20:39:00,
2013-11-16 12:40:00,61.3,43.1,29.56,WNW,292,6.5,8.7,51,0.00,,,0.00,VWS V14.01,2013-11-16 20:40:00,
2013-11-16 12:41:00,61.3,43.1,29.56,West,270,11.4,11.4,51,0.00,,,0.00,VWS V14.01,2013-11-16 20:41:00,
2013-11-16 12:42:00,61.5,44.2,29.56,WSW,248,3.6,11.4,53,0.00,,,0.00,VWS V14.01,2013-11-16 20:42:00,
2013-11-16 12:43:00,61.5,44.2,29.56,WNW,292,5.6,11.4,53,0.00,,,0.00,VWS V14.01,2013-11-16 20:43:00,
2013-11-16 12:44:00,61.9,45.5,29.56,WSW,248,7.2,11.4,55,0.00,,,0.00,VWS V14.01,2013-11-16 20:44:00,
2013-11-16 12:45:00,61.5,45.2,29.56,West,270,5.8,11.4,55,0.00,,,0.00,VWS V14.01,2013-11-16 20:45:00,
2013-11-16 12:46:00,61.5,45.2,29.56,West,270,5.8,11.4,55,0.00,,,0.00,VWS V14.01,2013-11-16 20:46:00,
2013-11-16 12:47:00,61.3,45.0,29.56,WSW,248,14.1,14.1,55,0.00,,,0.00,VWS V14.01,2013-11-16 20:47:00,
2013-11-16 12:48:00,61.3,45.0,29.56,NNW,338,8.1,14.1,55,0.00,,,0.00,VWS V14.01,2013-11-16 20:48:00,
2013-11-16 12:49:00,60.6,44.4,29.56,WNW,292,10.3,14.1,55,0.00,,,0.00,VWS V14.01,2013-11-16 20:49:00,
2013-11-16 12:50:00,60.1,44.3,29.56,WNW,292,11.0,11.0,56,0.00,,,0.00,VWS V14.01,2013-11-16 20:50:00,
2013-11-16 12:51:00,60.1,44.3,29.56,NNW,338,15.7,15.7,56,0.00,,,0.00,VWS V14.01,2013-11-16 20:51:00,
2013-11-16 12:52:00,60.1,44.3,29.56,WNW,292,2.9,15.7,56,0.00,,,0.00,VWS V14.01,2013-11-16 20:52:00,
2013-11-16 12:53:00,60.4,44.7,29.56,West,270,12.8,15.7,56,0.00,,,0.00,VWS V14.01,2013-11-16 20:53:00,
2013-11-16 12:54:00,60.4,45.6,29.56,WNW,292,12.8,15.7,58,0.00,,,0.00,VWS V14.01,2013-11-16 20:54:00,
2013-11-16 12:55:00,60.4,45.6,29.56,WNW,292,8.7,12.8,58,0.00,,,0.00,VWS V14.01,2013-11-16 20:55:00,
2013-11-16 12:56:00,60.6,45.8,29.56,WNW,292,8.7,12.8,58,0.00,,,0.00,VWS V14.01,2013-11-16 20:56:00,
2013-11-16 12:57:00,60.6,45.8,29.56,WSW,248,9.4,12.8,58,0.00,,,0.00,VWS V14.01,2013-11-16 20:57:00,
2013-11-16 12:58:00,60.3,45.9,29.56,WSW,248,12.1,12.8,59,0.00,,,0.00,VWS V14.01,2013-11-16 20:58:00,
2013-11-16 12:59:00,60.3,45.9,29.56,WSW,248,12.1,12.1,59,0.00,,,0.00,VWS V14.01,2013-11-16 20:59:00,
2013-11-16 13:00:00,60.1,45.7,29.56,WSW,248,12.5,12.5,59,0.00,,,0.00,VWS V14.01,2013-11-16 21:00:00,
2013-11-16 13:01:00,60.1,45.7,29.56,WSW,248,12.5,12.5,59,0.00,,,0.00,VWS V14.01,2013-11-16 21:01:00,
2013-11-16 13:02:00,60.1,45.7,29.56,West,270,10.3,12.5,59,0.00,,,0.00,VWS V14.01,2013-11-16 21:02:00,
2013-11-16 13:04:00,60.1,46.2,29.56,West,270,10.3,12.5,60,0.00,,,0.00,VWS V14.01,2013-11-16 21:04:00,
2013-11-16 13:05:00,60.1,46.2,29.59,West,270,9.6,10.7,60,0.00,,,0.00,VWS V14.01,2013-11-16 21:05:00,
2013-11-16 13:06:00,60.1,46.2,29.59,WSW,248,10.3,10.3,60,0.00,,,0.00,VWS V14.01,2013-11-16 21:06:00,
2013-11-16 13:07:00,60.3,46.8,29.59,WSW,248,5.6,10.3,61,0.00,,,0.00,VWS V14.01,2013-11-16 21:07:00,
2013-11-16 13:08:00,60.4,46.9,29.59,WSW,248,7.6,10.3,61,0.00,,,0.00,VWS V14.01,2013-11-16 21:08:00,
2013-11-16 13:09:00,60.4,46.9,29.59,WSW,248,7.8,10.3,61,0.00,,,0.00,VWS V14.01,2013-11-16 21:09:00,
2013-11-16 13:10:00,60.3,46.8,29.59,WSW,248,10.3,10.3,61,0.00,,,0.00,VWS V14.01,2013-11-16 21:10:00,
2013-11-16 13:11:00,60.3,46.8,29.59,WSW,248,10.3,10.3,61,0.00,,,0.00,VWS V14.01,2013-11-16 21:11:00,
2013-11-16 13:12:00,60.4,46.9,29.59,WSW,248,6.5,10.3,61,0.00,,,0.00,VWS V14.01,2013-11-16 21:12:00,
2013-11-16 13:13:00,60.4,46.9,29.59,WNW,292,5.8,10.3,61,0.00,,,0.00,VWS V14.01,2013-11-16 21:13:00,
2013-11-16 13:14:00,60.4,46.9,29.59,West,270,3.8,10.3,61,0.00,,,0.00,VWS V14.01,2013-11-16 21:14:00,
2013-11-16 13:15:00,60.3,46.8,29.59,WNW,292,6.5,11.2,61,0.00,,,0.00,VWS V14.01,2013-11-16 21:15:00,
2013-11-16 13:16:00,60.3,46.8,29.59,West,270,8.7,11.2,61,0.00,,,0.00,VWS V14.01,2013-11-16 21:16:00,
2013-11-16 13:17:00,60.6,47.1,29.59,WSW,248,9.8,11.2,61,0.00,,,0.00,VWS V14.01,2013-11-16 21:17:00,
2013-11-16 13:18:00,60.6,47.1,29.59,WSW,248,13.0,13.0,61,0.00,,,0.00,VWS V14.01,2013-11-16 21:18:00,
2013-11-16 13:19:00,60.6,47.5,29.59,WSW,248,10.5,13.0,62,0.00,,,0.00,VWS V14.01,2013-11-16 21:19:00,
2013-11-16 13:20:00,61.0,47.9,29.59,WNW,292,7.8,13.0,62,0.00,,,0.00,VWS V14.01,2013-11-16 21:20:00,
2013-11-16 13:21:00,61.0,47.9,29.59,SW,225,3.1,13.0,62,0.00,,,0.00,VWS V14.01,2013-11-16 21:21:00,
2013-11-16 13:22:00,61.0,47.9,29.59,SSW,202,10.7,13.0,62,0.00,,,0.00,VWS V14.01,2013-11-16 21:22:00,
2013-11-16 13:23:00,60.8,47.7,29.59,WNW,292,13.0,13.0,62,0.00,,,0.00,VWS V14.01,2013-11-16 21:23:00,
2013-11-16 13:24:00,60.4,47.8,29.59,WNW,292,13.0,13.0,63,0.00,,,0.00,VWS V14.01,2013-11-16 21:24:00,
2013-11-16 13:25:00,60.4,47.8,29.59,West,270,12.8,13.0,63,0.00,,,0.00,VWS V14.01,2013-11-16 21:25:00,
2013-11-16 13:26:00,60.4,47.8,29.59,West,270,12.8,13.0,63,0.00,,,0.00,VWS V14.01,2013-11-16 21:26:00,
2013-11-16 13:27:00,60.4,47.8,29.59,WNW,292,3.8,13.0,63,0.00,,,0.00,VWS V14.01,2013-11-16 21:27:00,
2013-11-16 13:28:00,60.6,48.0,29.59,SW,225,6.3,12.8,63,0.00,,,0.00,VWS V14.01,2013-11-16 21:28:00,
2013-11-16 13:29:00,60.6,48.0,29.59,WNW,292,9.6,12.8,63,0.00,,,0.00,VWS V14.01,2013-11-16 21:29:00,
2013-11-16 13:30:00,61.0,47.9,29.59,SW,225,7.6,9.6,62,0.00,,,0.00,VWS V14.01,2013-11-16 21:30:00,
2013-11-16 13:31:00,61.0,47.9,29.59,WNW,292,6.0,9.6,62,0.00,,,0.00,VWS V14.01,2013-11-16 21:31:00,
2013-11-16 13:32:00,61.0,47.9,29.59,West,270,13.2,13.2,62,0.00,,,0.00,VWS V14.01,2013-11-16 21:32:00,
2013-11-16 13:33:00,60.6,48.0,29.59,NW,315,7.4,13.2,63,0.00,,,0.00,VWS V14.01,2013-11-16 21:33:00,
2013-11-16 13:34:00,60.6,48.0,29.59,West,270,8.7,13.2,63,0.00,,,0.00,VWS V14.01,2013-11-16 21:34:00,
2013-11-16 13:35:00,60.6,48.0,29.56,WNW,292,4.0,13.2,63,0.00,,,0.00,VWS V14.01,2013-11-16 21:35:00,
2013-11-16 13:36:00,60.6,48.0,29.56,WNW,292,10.1,13.2,63,0.00,,,0.00,VWS V14.01,2013-11-16 21:36:00,
2013-11-16 13:37:00,60.6,48.0,29.56,West,270,8.5,10.1,63,0.00,,,0.00,VWS V14.01,2013-11-16 21:37:00,
2013-11-16 13:38:00,60.6,48.0,29.56,NW,315,7.2,10.1,63,0.00,,,0.00,VWS V14.01,2013-11-16 21:38:00,
2013-11-16 13:39:00,61.0,47.9,29.56,West,270,8.1,10.1,62,0.00,,,0.00,VWS V14.01,2013-11-16 21:39:00,
2013-11-16 13:40:00,60.6,48.0,29.56,WSW,248,9.0,10.1,63,0.00,,,0.00,VWS V14.01,2013-11-16 21:40:00,
2013-11-16 13:41:00,60.6,48.0,29.56,WSW,248,9.0,9.0,63,0.00,,,0.00,VWS V14.01,2013-11-16 21:41:00,
2013-11-16 13:42:00,60.4,47.8,29.56,NNE,22,10.3,10.3,63,0.00,,,0.00,VWS V14.01,2013-11-16 21:42:00,
2013-11-16 13:43:00,60.4,47.8,29.56,NW,315,9.8,10.3,63,0.00,,,0.00,VWS V14.01,2013-11-16 21:43:00,
2013-11-16 13:44:00,60.6,48.0,29.56,WNW,292,10.1,10.3,63,0.00,,,0.00,VWS V14.01,2013-11-16 21:44:00,
2013-11-16 13:45:00,60.6,48.4,29.56,West,270,7.2,10.3,64,0.00,,,0.00,VWS V14.01,2013-11-16 21:45:00,
2013-11-16 13:46:00,60.6,48.4,29.56,WSW,248,10.3,10.3,64,0.00,,,0.00,VWS V14.01,2013-11-16 21:46:00,
2013-11-16 13:47:00,59.9,47.7,29.56,NW,315,11.0,11.0,64,0.00,,,0.00,VWS V14.01,2013-11-16 21:47:00,
2013-11-16 13:48:00,59.9,47.7,29.56,WSW,248,7.4,11.0,64,0.00,,,0.00,VWS V14.01,2013-11-16 21:48:00,
2013-11-16 13:49:00,59.7,47.5,29.56,WNW,292,12.8,12.8,64,0.00,,,0.00,VWS V14.01,2013-11-16 21:49:00,
2013-11-16 13:50:00,59.7,48.0,29.59,West,270,10.7,12.8,65,0.00,,,0.00,VWS V14.01,2013-11-16 21:50:00,
2013-11-16 13:51:00,59.7,48.0,29.59,WNW,292,12.5,12.8,65,0.00,,,0.00,VWS V14.01,2013-11-16 21:51:00,
2013-11-16 13:52:00,59.7,48.0,29.59,WNW,292,10.5,12.8,65,0.00,,,0.00,VWS V14.01,2013-11-16 21:52:00,
2013-11-16 13:53:00,59.4,47.6,29.59,WNW,292,9.8,12.5,65,0.00,,,0.00,VWS V14.01,2013-11-16 21:53:00,
2013-11-16 13:54:00,59.7,48.4,29.59,WNW,292,6.5,12.5,66,0.00,,,0.00,VWS V14.01,2013-11-16 21:54:00,
2013-11-16 13:55:00,59.7,48.4,29.59,NW,315,10.1,12.5,66,0.00,,,0.00,VWS V14.01,2013-11-16 21:55:00,
2013-11-16 13:56:00,59.5,48.2,29.59,NW,315,10.1,12.5,66,0.00,,,0.00,VWS V14.01,2013-11-16 21:56:00,
2013-11-16 13:57:00,59.5,48.2,29.59,SW,225,12.5,12.5,66,0.00,,,0.00,VWS V14.01,2013-11-16 21:57:00,
2013-11-16 13:58:00,59.4,48.0,29.59,NNW,338,12.1,12.5,66,0.00,,,0.00,VWS V14.01,2013-11-16 21:58:00,
2013-11-16 13:59:00,59.4,48.0,29.59,WNW,292,7.2,12.5,66,0.00,,,0.00,VWS V14.01,2013-11-16 21:59:00,
2013-11-16 14:00:00,59.7,48.4,29.59,WNW,292,7.2,12.5,66,0.00,,,0.00,VWS V14.01,2013-11-16 22:00:00,
2013-11-16 14:01:00,59.0,48.1,29.59,West,270,18.1,18.1,67,0.00,,,0.00,VWS V14.01,2013-11-16 22:01:00,
2013-11-16 14:02:00,59.0,48.1,29.59,WNW,292,17.7,18.1,67,0.00,,,0.00,VWS V14.01,2013-11-16 22:02:00,
2013-11-16 14:03:00,59.0,48.5,29.59,SW,225,8.7,18.1,68,0.00,,,0.00,VWS V14.01,2013-11-16 22:03:00,
2013-11-16 14:04:00,59.0,48.5,29.59,WNW,292,14.3,18.1,68,0.00,,,0.00,VWS V14.01,2013-11-16 22:04:00,
2013-11-16 14:05:00,59.0,48.5,29.59,WNW,292,13.4,18.1,68,0.00,,,0.00,VWS V14.01,2013-11-16 22:05:00,
2013-11-16 14:06:00,59.0,48.5,29.59,NW,315,11.0,17.7,68,0.00,,,0.00,VWS V14.01,2013-11-16 22:06:00,
2013-11-16 14:07:00,58.8,48.7,29.59,West,270,8.7,14.3,69,0.00,,,0.00,VWS V14.01,2013-11-16 22:07:00,
2013-11-16 14:08:00,58.8,48.7,29.59,WNW,292,11.0,14.3,69,0.00,,,0.00,VWS V14.01,2013-11-16 22:08:00,
2013-11-16 14:09:00,59.0,48.9,29.59,WNW,292,10.1,13.4,69,0.00,,,0.00,VWS V14.01,2013-11-16 22:09:00,
2013-11-16 14:10:00,58.6,48.5,29.56,West,270,6.0,19.9,69,0.00,,,0.00,VWS V14.01,2013-11-16 22:10:00,
2013-11-16 14:11:00,58.6,48.5,29.56,West,270,6.0,19.9,69,0.00,,,0.00,VWS V14.01,2013-11-16 22:11:00,
2013-11-16 14:12:00,59.2,49.0,29.56,WNW,292,10.5,19.9,69,0.00,,,0.00,VWS V14.01,2013-11-16 22:12:00,
2013-11-16 14:13:00,59.2,49.0,29.56,WNW,292,8.5,19.9,69,0.00,,,0.00,VWS V14.01,2013-11-16 22:13:00,
2013-11-16 14:14:00,59.0,48.9,29.56,WNW,292,14.8,14.8,69,0.00,,,0.00,VWS V14.01,2013-11-16 22:14:00,
2013-11-16 14:15:00,58.5,48.3,29.56,WNW,292,15.7,15.7,69,0.00,,,0.00,VWS V14.01,2013-11-16 22:15:00,
2013-11-16 14:16:00,58.5,48.3,29.56,WNW,292,13.6,15.7,69,0.00,,,0.00,VWS V14.01,2013-11-16 22:16:00,
2013-11-16 14:17:00,58.8,49.1,29.56,West,270,6.9,15.7,70,0.00,,,0.00,VWS V14.01,2013-11-16 22:17:00,
2013-11-16 14:18:00,58.8,49.1,29.56,WSW,248,14.5,15.7,70,0.00,,,0.00,VWS V14.01,2013-11-16 22:18:00,
2013-11-16 14:19:00,58.6,48.9,29.56,WNW,292,15.4,15.4,70,0.00,,,0.00,VWS V14.01,2013-11-16 22:19:00,
2013-11-16 14:20:00,58.6,48.9,29.56,WNW,292,12.5,15.4,70,0.00,,,0.00,VWS V14.01,2013-11-16 22:20:00,
2013-11-16 14:21:00,58.6,48.9,29.56,WNW,292,9.4,15.4,70,0.00,,,0.00,VWS V14.01,2013-11-16 22:21:00,
2013-11-16 14:22:00,58.6,48.9,29.56,WNW,292,12.3,15.4,70,0.00,,,0.00,VWS V14.01,2013-11-16 22:22:00,
2013-11-16 14:23:00,58.5,49.1,29.56,WSW,248,14.5,14.5,71,0.00,,,0.00,VWS V14.01,2013-11-16 22:23:00,
2013-11-16 14:24:00,58.6,49.3,29.56,West,270,13.0,14.5,71,0.00,,,0.00,VWS V14.01,2013-11-16 22:24:00,
2013-11-16 14:25:00,58.6,49.3,29.56,WNW,292,21.9,21.9,71,0.00,,,0.00,VWS V14.01,2013-11-16 22:25:00,
2013-11-16 14:26:00,58.1,48.8,29.56,NW,315,13.2,21.9,71,0.00,,,0.00,VWS V14.01,2013-11-16 22:26:00,
2013-11-16 14:27:00,58.1,48.8,29.56,WSW,248,9.4,21.9,71,0.00,,,0.00,VWS V14.01,2013-11-16 22:27:00,
2013-11-16 14:28:00,58.3,49.3,29.56,West,270,14.8,21.9,72,0.00,,,0.00,VWS V14.01,2013-11-16 22:28:00,
2013-11-16 14:29:00,58.3,49.3,29.56,NW,315,15.7,21.9,72,0.00,,,0.00,VWS V14.01,2013-11-16 22:29:00,
2013-11-16 14:30:00,58.1,49.1,29.56,WSW,248,10.5,15.7,72,0.00,,,0.00,VWS V14.01,2013-11-16 22:30:00,
2013-11-16 14:31:00,58.1,49.1,29.56,WNW,292,12.1,15.7,72,0.00,,,0.00,VWS V14.01,2013-11-16 22:31:00,
2013-11-16 14:32:00,58.1,49.1,29.56,WSW,248,9.6,15.7,72,0.00,,,0.00,VWS V14.01,2013-11-16 22:32:00,
2013-11-16 14:33:00,58.3,49.3,29.56,WSW,248,8.5,12.1,72,0.00,,,0.00,VWS V14.01,2013-11-16 22:33:00,
2013-11-16 14:34:00,58.3,49.3,29.56,West,270,12.5,12.5,72,0.00,,,0.00,VWS V14.01,2013-11-16 22:34:00,
2013-11-16 14:35:00,58.5,49.5,29.56,West,270,11.0,12.5,72,0.00,,,0.00,VWS V14.01,2013-11-16 22:35:00,
2013-11-16 14:36:00,58.5,49.5,29.56,West,270,11.0,12.5,72,0.00,,,0.00,VWS V14.01,2013-11-16 22:36:00,
2013-11-16 14:37:00,58.6,49.7,29.56,WSW,248,5.4,12.5,72,0.00,,,0.00,VWS V14.01,2013-11-16 22:37:00,
2013-11-16 14:38:00,58.6,49.7,29.56,NNW,338,11.2,12.5,72,0.00,,,0.00,VWS V14.01,2013-11-16 22:38:00,
2013-11-16 14:39:00,58.6,49.7,29.56,NW,315,16.8,16.8,72,0.00,,,0.00,VWS V14.01,2013-11-16 22:39:00,
2013-11-16 14:40:00,58.5,49.5,29.56,WNW,292,11.0,16.8,72,0.00,,,0.00,VWS V14.01,2013-11-16 22:40:00,
2013-11-16 14:41:00,58.5,49.5,29.56,NW,315,8.5,16.8,72,0.00,,,0.00,VWS V14.01,2013-11-16 22:41:00,
2013-11-16 14:42:00,58.3,49.3,29.56,WNW,292,17.0,17.0,72,0.00,,,0.00,VWS V14.01,2013-11-16 22:42:00,
2013-11-16 14:43:00,58.3,49.3,29.56,NW,315,6.3,17.0,72,0.00,,,0.00,VWS V14.01,2013-11-16 22:43:00,
2013-11-16 14:44:00,58.6,50.0,29.56,WNW,292,7.2,17.0,73,0.00,,,0.00,VWS V14.01,2013-11-16 22:44:00,
2013-11-16 14:45:00,58.8,49.8,29.56,WNW,292,7.2,17.0,72,0.00,,,0.00,VWS V14.01,2013-11-16 22:45:00,
2013-11-16 14:46:00,58.8,49.8,29.56,WNW,292,17.7,17.7,72,0.00,,,0.00,VWS V14.01,2013-11-16 22:46:00,
2013-11-16 14:47:00,57.9,49.3,29.56,WNW,292,14.8,17.7,73,0.00,,,0.00,VWS V14.01,2013-11-16 22:47:00,
2013-11-16 14:48:00,57.9,49.3,29.56,NW,315,19.7,19.7,73,0.00,,,0.00,VWS V14.01,2013-11-16 22:48:00,
2013-11-16 14:49:00,58.1,49.5,29.56,WNW,292,7.8,19.7,73,0.00,,,0.00,VWS V14.01,2013-11-16 22:49:00,
2013-11-16 14:50:00,58.1,49.5,29.56,NNE,22,12.1,19.7,73,0.00,,,0.00,VWS V14.01,2013-11-16 22:50:00,
2013-11-16 14:51:00,58.1,49.5,29.56,NW,315,12.8,19.7,73,0.00,,,0.00,VWS V14.01,2013-11-16 22:51:00,
2013-11-16 14:52:00,58.1,49.5,29.56,WNW,292,8.1,19.7,73,0.00,,,0.00,VWS V14.01,2013-11-16 22:52:00,
2013-11-16 14:53:00,58.1,49.5,29.56,WNW,292,16.3,16.3,73,0.00,,,0.00,VWS V14.01,2013-11-16 22:53:00,
2013-11-16 14:54:00,57.9,49.3,29.56,WNW,292,12.3,16.3,73,0.00,,,0.00,VWS V14.01,2013-11-16 22:54:00,
2013-11-16 14:55:00,57.9,49.3,29.56,NW,315,7.6,16.3,73,0.00,,,0.00,VWS V14.01,2013-11-16 22:55:00,
2013-11-16 14:56:00,58.1,49.9,29.56,NW,315,19.0,19.0,74,0.00,,,0.00,VWS V14.01,2013-11-16 22:56:00,
2013-11-16 14:57:00,58.1,49.9,29.56,West,270,10.5,19.0,74,0.00,,,0.00,VWS V14.01,2013-11-16 22:57:00,
2013-11-16 14:58:00,57.7,49.5,29.56,WNW,292,14.1,19.0,74,0.00,,,0.00,VWS V14.01,2013-11-16 22:58:00,
2013-11-16 14:59:00,57.7,49.5,29.56,WNW,292,12.1,19.0,74,0.00,,,0.00,VWS V14.01,2013-11-16 22:59:00,
2013-11-16 15:00:00,57.6,49.3,29.56,WNW,292,13.2,14.1,74,0.00,,,0.00,VWS V14.01,2013-11-16 23:00:00,
2013-11-16 15:01:00,57.6,49.3,29.56,WNW,292,13.2,14.1,74,0.00,,,0.00,VWS V14.01,2013-11-16 23:01:00,
2013-11-16 15:02:00,57.2,49.4,29.56,West,270,14.5,14.5,75,0.00,,,0.00,VWS V14.01,2013-11-16 23:02:00,
2013-11-16 15:03:00,57.6,50.1,29.56,NW,315,10.3,14.5,76,0.00,,,0.00,VWS V14.01,2013-11-16 23:03:00,
2013-11-16 15:04:00,57.6,50.1,29.56,NW,315,18.6,18.6,76,0.00,,,0.00,VWS V14.01,2013-11-16 23:04:00,
2013-11-16 15:05:00,57.4,49.5,29.59,WNW,292,14.8,18.6,75,0.00,,,0.00,VWS V14.01,2013-11-16 23:05:00,
2013-11-16 15:06:00,57.4,49.5,29.59,NNW,338,10.7,18.6,75,0.00,,,0.00,VWS V14.01,2013-11-16 23:06:00,
2013-11-16 15:07:00,57.6,50.1,29.59,WNW,292,4.9,18.6,76,0.00,,,0.00,VWS V14.01,2013-11-16 23:07:00,
2013-11-16 15:08:00,57.6,50.1,29.59,WNW,292,17.2,17.2,76,0.00,,,0.00,VWS V14.01,2013-11-16 23:08:00,
2013-11-16 15:09:00,57.2,49.7,29.59,NW,315,18.6,18.6,76,0.00,,,0.00,VWS V14.01,2013-11-16 23:09:00,
2013-11-16 15:10:00,57.2,49.7,29.59,WNW,292,19.9,19.9,76,0.00,,,0.00,VWS V14.01,2013-11-16 23:10:00,
2013-11-16 15:11:00,57.2,49.7,29.59,NW,315,15.9,19.9,76,0.00,,,0.00,VWS V14.01,2013-11-16 23:11:00,
2013-11-16 15:12:00,57.4,50.2,29.59,WNW,292,13.2,19.9,77,0.00,,,0.00,VWS V14.01,2013-11-16 23:12:00,
2013-11-16 15:13:00,57.4,50.2,29.59,WNW,292,18.1,19.9,77,0.00,,,0.00,VWS V14.01,2013-11-16 23:13:00,
2013-11-16 15:14:00,57.0,49.9,29.59,WNW,292,15.9,18.1,77,0.00,,,0.00,VWS V14.01,2013-11-16 23:14:00,
2013-11-16 15:15:00,57.2,50.1,29.59,WNW,292,18.6,18.6,77,0.00,,,0.00,VWS V14.01,2013-11-16 23:15:00,
2013-11-16 15:16:00,57.2,50.1,29.59,NNW,338,16.3,18.6,77,0.00,,,0.00,VWS V14.01,2013-11-16 23:16:00,
2013-11-16 15:17:00,57.2,50.1,29.59,WNW,292,23.3,23.3,77,0.00,,,0.00,VWS V14.01,2013-11-16 23:17:00,
2013-11-16 15:18:00,57.2,50.1,29.59,WNW,292,23.3,23.3,77,0.00,,,0.00,VWS V14.01,2013-11-16 23:18:00,
2013-11-16 15:19:00,57.0,50.2,29.59,WNW,292,14.1,23.3,78,0.00,,,0.00,VWS V14.01,2013-11-16 23:19:00,
2013-11-16 15:20:00,57.0,50.2,29.59,WNW,292,17.2,23.3,78,0.00,,,0.00,VWS V14.01,2013-11-16 23:20:00,
2013-11-16 15:21:00,57.0,50.2,29.59,WNW,292,17.2,23.3,78,0.00,,,0.00,VWS V14.01,2013-11-16 23:21:00,
2013-11-16 15:22:00,57.0,50.2,29.59,WNW,292,13.2,22.2,78,0.00,,,0.00,VWS V14.01,2013-11-16 23:22:00,
2013-11-16 15:23:00,57.0,50.2,29.59,WNW,292,19.2,22.2,78,0.00,,,0.00,VWS V14.01,2013-11-16 23:23:00,
2013-11-16 15:24:00,57.0,50.2,29.59,WNW,292,13.4,19.2,78,0.00,,,0.00,VWS V14.01,2013-11-16 23:24:00,
2013-11-16 15:25:00,57.2,50.4,29.59,WNW,292,8.7,19.2,78,0.00,,,0.00,VWS V14.01,2013-11-16 23:25:00,
2013-11-16 15:26:00,57.2,50.4,29.59,NW,315,15.2,19.2,78,0.00,,,0.00,VWS V14.01,2013-11-16 23:26:00,
2013-11-16 15:27:00,57.2,50.4,29.59,NW,315,15.2,19.2,78,0.00,,,0.00,VWS V14.01,2013-11-16 23:27:00,
2013-11-16 15:28:00,57.4,50.6,29.59,WNW,292,17.0,17.0,78,0.00,,,0.00,VWS V14.01,2013-11-16 23:28:00,
2013-11-16 15:29:00,57.4,50.6,29.59,WNW,292,22.2,22.2,78,0.00,,,0.00,VWS V14.01,2013-11-16 23:29:00,
2013-11-16 15:30:00,57.4,50.2,29.59,WSW,248,11.0,22.2,77,0.00,,,0.00,VWS V14.01,2013-11-16 23:30:00,
2013-11-16 15:31:00,57.4,50.2,29.59,WNW,292,14.8,22.2,77,0.00,,,0.00,VWS V14.01,2013-11-16 23:31:00,
2013-11-16 15:32:00,57.4,50.2,29.59,NNW,338,14.1,22.2,77,0.00,,,0.00,VWS V14.01,2013-11-16 23:32:00,
2013-11-16 15:33:00,57.2,50.1,29.59,WNW,292,10.7,14.8,77,0.00,,,0.00,VWS V14.01,2013-11-16 23:33:00,
2013-11-16 15:34:00,57.2,50.1,29.59,NNW,338,19.5,19.5,77,0.00,,,0.00,VWS V14.01,2013-11-16 23:34:00,
2013-11-16 15:35:00,57.2,50.4,29.56,WSW,248,8.5,19.5,78,0.00,,,0.00,VWS V14.01,2013-11-16 23:35:00,
2013-11-16 15:36:00,57.2,50.4,29.56,WSW,248,8.5,19.5,78,0.00,,,0.00,VWS V14.01,2013-11-16 23:36:00,
2013-11-16 15:37:00,57.2,50.4,29.56,NW,315,13.0,19.5,78,0.00,,,0.00,VWS V14.01,2013-11-16 23:37:00,
2013-11-16 15:38:00,57.2,50.4,29.56,WNW,292,10.1,19.5,78,0.00,,,0.00,VWS V14.01,2013-11-16 23:38:00,
2013-11-16 15:39:00,57.2,50.4,29.56,WNW,292,15.9,16.6,78,0.00,,,0.00,VWS V14.01,2013-11-16 23:39:00,
2013-11-16 15:40:00,57.2,50.4,29.56,WNW,292,16.1,16.1,78,0.00,,,0.00,VWS V14.01,2013-11-16 23:40:00,
2013-11-16 15:41:00,57.2,50.4,29.56,WNW,292,15.4,16.1,78,0.00,,,0.00,VWS V14.01,2013-11-16 23:41:00,
2013-11-16 15:42:00,57.0,50.6,29.56,WSW,248,19.9,19.9,79,0.00,,,0.00,VWS V14.01,2013-11-16 23:42:00,
2013-11-16 15:43:00,57.0,50.6,29.56,West,270,13.0,19.9,79,0.00,,,0.00,VWS V14.01,2013-11-16 23:43:00,
2013-11-16 15:44:00,57.0,50.6,29.56,NW,315,14.1,19.9,79,0.00,,,0.00,VWS V14.01,2013-11-16 23:44:00,
2013-11-16 15:45:00,57.0,50.6,29.56,NW,315,14.1,19.9,79,0.00,,,0.00,VWS V14.01,2013-11-16 23:45:00,
2013-11-16 15:50:00,57.0,50.9,29.59,WNW,292,12.1,17.7,80,0.00,,,0.00,VWS V14.01,2013-11-16 23:50:00,
2013-11-16 15:55:00,57.4,50.9,29.59,WNW,292,8.1,13.0,79,0.00,,,0.00,VWS V14.01,2013-11-16 23:55:00,
2013-11-16 15:57:00,57.2,50.4,29.59,SW,225,12.5,15.4,78,0.00,,,0.00,VWS V14.01,2013-11-16 23:57:00,
2013-11-16 15:58:00,57.4,50.6,29.59,WNW,292,10.7,15.4,78,0.00,,,0.00,VWS V14.01,2013-11-16 23:58:00,
2013-11-16 15:59:00,57.4,50.6,29.59,WNW,292,10.1,15.4,78,0.00,,,0.00,VWS V14.01,2013-11-16 23:59:00,
2013-11-16 16:00:00,57.4,50.9,29.59,WNW,292,8.5,12.5,79,0.00,,,0.00,VWS V14.01,2013-11-17 00:00:00,
2013-11-16 16:01:00,57.4,50.9,29.59,WSW,248,12.5,12.5,79,0.00,,,0.00,VWS V14.01,2013-11-17 00:01:00,
2013-11-16 16:02:00,57.2,50.4,29.59,WSW,248,13.0,13.0,78,0.00,,,0.00,VWS V14.01,2013-11-17 00:02:00,
2013-11-16 16:03:00,57.2,50.8,29.59,WNW,292,12.5,13.0,79,0.00,,,0.00,VWS V14.01,2013-11-17 00:03:00,
2013-11-16 16:04:00,57.2,50.8,29.59,WNW,292,13.0,13.0,79,0.00,,,0.00,VWS V14.01,2013-11-17 00:04:00,
2013-11-16 16:05:00,57.2,50.8,29.59,WNW,292,13.0,13.0,79,0.00,,,0.00,VWS V14.01,2013-11-17 00:05:00,
2013-11-16 16:06:00,57.2,50.8,29.56,SW,225,11.0,13.0,79,0.00,,,0.00,VWS V14.01,2013-11-17 00:06:00,
2013-11-16 16:07:00,57.2,50.8,29.56,WNW,292,10.7,13.0,79,0.00,,,0.00,VWS V14.01,2013-11-17 00:07:00,
2013-11-16 16:08:00,57.2,50.8,29.56,NNW,338,10.3,13.0,79,0.00,,,0.00,VWS V14.01,2013-11-17 00:08:00,
2013-11-16 16:09:00,57.2,50.8,29.56,WNW,292,11.0,11.0,79,0.00,,,0.00,VWS V14.01,2013-11-17 00:09:00,
2013-11-16 16:10:00,56.8,50.7,29.56,WNW,292,15.2,15.2,80,0.00,,,0.00,VWS V14.01,2013-11-17 00:10:00,
2013-11-16 16:11:00,56.8,50.7,29.56,West,270,15.7,15.7,80,0.00,,,0.00,VWS V14.01,2013-11-17 00:11:00,
2013-11-16 16:12:00,56.8,50.7,29.56,WNW,292,13.2,15.7,80,0.00,,,0.00,VWS V14.01,2013-11-17 00:12:00,
2013-11-16 16:13:00,56.8,50.7,29.56,WNW,292,12.5,15.7,80,0.00,,,0.00,VWS V14.01,2013-11-17 00:13:00,
2013-11-16 16:14:00,56.8,51.1,29.56,NW,315,12.8,15.7,81,0.00,,,0.00,VWS V14.01,2013-11-17 00:14:00,
2013-11-16 16:15:00,56.8,51.1,29.56,West,270,10.3,13.2,81,0.00,,,0.00,VWS V14.01,2013-11-17 00:15:00,
2013-11-16 16:16:00,56.8,51.1,29.56,WNW,292,9.4,12.8,81,0.00,,,0.00,VWS V14.01,2013-11-17 00:16:00,
2013-11-16 16:17:00,56.8,51.1,29.56,West,270,4.9,12.8,81,0.00,,,0.00,VWS V14.01,2013-11-17 00:17:00,
2013-11-16 16:18:00,56.8,51.1,29.56,WNW,292,10.5,12.1,81,0.00,,,0.00,VWS V14.01,2013-11-17 00:18:00,
2013-11-16 16:19:00,56.7,50.9,29.56,WNW,292,7.8,12.1,81,0.00,,,0.00,VWS V14.01,2013-11-17 00:19:00,
2013-11-16 16:20:00,56.7,50.9,29.59,West,270,12.5,12.5,81,0.00,,,0.00,VWS V14.01,2013-11-17 00:20:00,
2013-11-16 16:21:00,56.7,50.9,29.59,WSW,248,14.3,14.3,81,0.00,,,0.00,VWS V14.01,2013-11-17 00:21:00,
2013-11-16 16:22:00,56.7,50.9,29.59,WSW,248,14.3,14.3,81,0.00,,,0.00,VWS V14.01,2013-11-17 00:22:00,
2013-11-16 16:23:00,56.7,50.9,29.59,WNW,292,13.2,14.3,81,0.00,,,0.00,VWS V14.01,2013-11-17 00:23:00,
2013-11-16 16:24:00,56.7,50.9,29.59,WNW,292,13.2,14.3,81,0.00,,,0.00,VWS V14.01,2013-11-17 00:24:00,
2013-11-16 16:25:00,55.8,50.7,29.59,West,270,17.2,17.2,83,0.00,,,0.00,VWS V14.01,2013-11-17 00:25:00,
2013-11-16 16:26:00,55.6,50.8,29.59,WNW,292,17.0,17.2,84,0.00,,,0.00,VWS V14.01,2013-11-17 00:26:00,
2013-11-16 16:27:00,55.6,50.8,29.59,WNW,292,12.5,17.2,84,0.00,,,0.00,VWS V14.01,2013-11-17 00:27:00,
2013-11-16 16:28:00,55.2,50.8,29.59,WNW,292,13.0,17.2,85,0.00,,,0.00,VWS V14.01,2013-11-17 00:28:00,
2013-11-16 16:29:00,55.2,50.8,29.59,WNW,292,8.5,17.0,85,0.00,,,0.00,VWS V14.01,2013-11-17 00:29:00,
2013-11-16 16:30:00,55.0,50.9,29.59,West,270,10.1,13.0,86,0.00,,,0.00,VWS V14.01,2013-11-17 00:30:00,
2013-11-16 16:31:00,55.0,50.9,29.59,WNW,292,17.5,17.5,86,0.00,,,0.00,VWS V14.01,2013-11-17 00:31:00,
2013-11-16 16:32:00,54.9,51.1,29.59,NW,315,13.0,17.5,87,0.00,,,0.00,VWS V14.01,2013-11-17 00:32:00,
2013-11-16 16:33:00,54.9,51.1,29.59,NNW,338,11.9,17.5,87,0.00,,,0.00,VWS V14.01,2013-11-17 00:33:00,
2013-11-16 16:34:00,54.9,51.1,29.59,West,270,6.3,17.5,87,0.00,,,0.00,VWS V14.01,2013-11-17 00:34:00,
2013-11-16 16:35:00,54.7,51.2,29.59,North,0,9.4,13.0,88,0.00,,,0.00,VWS V14.01,2013-11-17 00:35:00,
2013-11-16 16:36:00,54.7,51.2,29.59,West,270,15.2,15.2,88,0.00,,,0.00,VWS V14.01,2013-11-17 00:36:00,
2013-11-16 16:37:00,54.7,51.5,29.59,West,270,15.2,15.2,89,0.00,,,0.00,VWS V14.01,2013-11-17 00:37:00,
2013-11-16 16:38:00,54.7,51.5,29.59,SSW,202,13.9,15.2,89,0.00,,,0.00,VWS V14.01,2013-11-17 00:38:00,
2013-11-16 16:39:00,54.5,51.3,29.59,WSW,248,12.5,15.2,89,0.00,,,0.00,VWS V14.01,2013-11-17 00:39:00,
2013-11-16 16:40:00,54.5,51.6,29.59,WSW,248,17.5,17.5,90,0.00,,,0.00,VWS V14.01,2013-11-17 00:40:00,
2013-11-16 16:41:00,54.5,51.6,29.59,WNW,292,16.1,17.5,90,0.00,,,0.00,VWS V14.01,2013-11-17 00:41:00,
2013-11-16 16:42:00,54.5,51.6,29.59,West,270,21.3,21.3,90,0.00,,,0.00,VWS V14.01,2013-11-17 00:42:00,
2013-11-16 16:43:00,54.5,51.6,29.59,West,270,12.8,21.3,90,0.00,,,0.00,VWS V14.01,2013-11-17 00:43:00,
2013-11-16 16:44:00,54.5,51.6,29.59,WSW,248,15.9,21.3,90,0.00,,,0.00,VWS V14.01,2013-11-17 00:44:00,
2013-11-16 16:45:00,54.5,51.6,29.59,SSW,202,9.0,21.3,90,0.00,,,0.00,VWS V14.01,2013-11-17 00:45:00,
2013-11-16 16:46:00,54.3,51.8,29.59,WNW,292,12.1,18.1,91,0.00,,,0.00,VWS V14.01,2013-11-17 00:46:00,
2013-11-16 16:47:00,54.3,51.8,29.59,West,270,14.3,18.1,91,0.00,,,0.00,VWS V14.01,2013-11-17 00:47:00,
2013-11-16 16:48:00,54.3,51.8,29.59,WNW,292,14.5,18.1,91,0.00,,,0.00,VWS V14.01,2013-11-17 00:48:00,
2013-11-16 16:49:00,54.3,51.8,29.59,WSW,248,8.7,14.5,91,0.00,,,0.00,VWS V14.01,2013-11-17 00:49:00,
2013-11-16 16:50:00,54.3,51.8,29.59,WNW,292,16.3,16.3,91,0.00,,,0.00,VWS V14.01,2013-11-17 00:50:00,
2013-11-16 16:51:00,54.1,51.9,29.59,WNW,292,8.1,16.3,92,0.00,,,0.00,VWS V14.01,2013-11-17 00:51:00,
2013-11-16 16:52:00,54.1,51.9,29.59,WSW,248,18.1,18.1,92,0.00,,,0.00,VWS V14.01,2013-11-17 00:52:00,
2013-11-16 16:53:00,54.1,51.9,29.59,WNW,292,13.0,18.1,92,0.00,,,0.00,VWS V14.01,2013-11-17 00:53:00,
2013-11-16 16:54:00,54.1,51.9,29.59,West,270,15.2,18.1,92,0.00,,,0.00,VWS V14.01,2013-11-17 00:54:00,
2013-11-16 16:55:00,54.1,51.9,29.59,WSW,248,15.2,18.1,92,0.00,,,0.00,VWS V14.01,2013-11-17 00:55:00,
2013-11-16 16:56:00,54.1,52.2,29.59,WNW,292,17.2,17.2,93,0.00,,,0.00,VWS V14.01,2013-11-17 00:56:00,
2013-11-16 16:57:00,54.1,52.2,29.59,WNW,292,13.2,17.2,93,0.00,,,0.00,VWS V14.01,2013-11-17 00:57:00,
2013-11-16 16:58:00,54.0,52.0,29.59,WNW,292,13.2,17.2,93,0.00,,,0.00,VWS V14.01,2013-11-17 00:58:00,
2013-11-16 16:59:00,54.0,52.0,29.59,WNW,292,10.3,17.2,93,0.00,,,0.00,VWS V14.01,2013-11-17 00:59:00,
2013-11-16 17:00:00,54.0,52.0,29.59,WNW,292,12.3,17.2,93,0.00,,,0.00,VWS V14.01,2013-11-17 01:00:00,
2013-11-16 17:01:00,54.0,52.0,29.59,WSW,248,12.1,14.8,93,0.00,,,0.00,VWS V14.01,2013-11-17 01:01:00,
2013-11-16 17:02:00,54.0,52.0,29.59,West,270,13.6,14.8,93,0.00,,,0.00,VWS V14.01,2013-11-17 01:02:00,
2013-11-16 17:03:00,54.0,52.0,29.59,West,270,17.0,17.0,93,0.00,,,0.00,VWS V14.01,2013-11-17 01:03:00,
2013-11-16 17:04:00,54.0,52.0,29.59,WNW,292,15.2,17.0,93,0.00,,,0.00,VWS V14.01,2013-11-17 01:04:00,
2013-11-16 17:05:00,54.0,52.0,29.59,NW,315,16.6,17.0,93,0.00,,,0.00,VWS V14.01,2013-11-17 01:05:00,
2013-11-16 17:06:00,54.0,52.0,29.59,NW,315,17.2,17.2,93,0.00,,,0.00,VWS V14.01,2013-11-17 01:06:00,
2013-11-16 17:07:00,54.0,52.0,29.59,West,270,7.8,17.2,93,0.00,,,0.00,VWS V14.01,2013-11-17 01:07:00,
2013-11-16 17:08:00,54.0,52.0,29.59,NW,315,17.2,17.2,93,0.00,,,0.00,VWS V14.01,2013-11-17 01:08:00,
2013-11-16 17:09:00,54.0,52.0,29.59,West,270,10.3,17.2,93,0.00,,,0.00,VWS V14.01,2013-11-17 01:09:00,
2013-11-16 17:10:00,54.0,52.0,29.59,WNW,292,5.6,17.2,93,0.00,,,0.00,VWS V14.01,2013-11-17 01:10:00,
2013-11-16 17:11:00,54.0,52.0,29.59,WNW,292,12.3,17.2,93,0.00,,,0.00,VWS V14.01,2013-11-17 01:11:00,
2013-11-16 17:12:00,54.0,52.0,29.59,West,270,11.0,12.3,93,0.00,,,0.00,VWS V14.01,2013-11-17 01:12:00,
2013-11-16 17:13:00,54.0,52.0,29.59,NNW,338,13.2,13.2,93,0.00,,,0.00,VWS V14.01,2013-11-17 01:13:00,
2013-11-16 17:14:00,54.0,52.0,29.59,WNW,292,10.1,19.5,93,0.00,,,0.00,VWS V14.01,2013-11-17 01:14:00,
2013-11-16 17:15:00,54.0,52.0,29.59,West,270,15.9,19.5,93,0.00,,,0.00,VWS V14.01,2013-11-17 01:15:00,
2013-11-16 17:16:00,54.0,52.0,29.59,WNW,292,12.5,19.5,93,0.00,,,0.00,VWS V14.01,2013-11-17 01:16:00,
2013-11-16 17:17:00,54.0,52.0,29.59,WNW,292,10.1,19.5,93,0.00,,,0.00,VWS V14.01,2013-11-17 01:17:00,
2013-11-16 17:18:00,54.0,52.0,29.59,WNW,292,10.3,15.9,93,0.00,,,0.00,VWS V14.01,2013-11-17 01:18:00,
2013-11-16 17:19:00,53.8,52.1,29.59,West,270,15.2,15.2,94,0.00,,,0.00,VWS V14.01,2013-11-17 01:19:00,
2013-11-16 17:20:00,53.8,52.1,29.62,WSW,248,8.7,15.2,94,0.00,,,0.00,VWS V14.01,2013-11-17 01:20:00,
2013-11-16 17:21:00,53.8,52.1,29.62,West,270,12.5,15.2,94,0.00,,,0.00,VWS V14.01,2013-11-17 01:21:00,
2013-11-16 17:22:00,53.8,52.1,29.62,West,270,10.3,15.2,94,0.00,,,0.00,VWS V14.01,2013-11-17 01:22:00,
2013-11-16 17:23:00,53.8,52.1,29.62,WSW,248,8.5,12.5,94,0.00,,,0.00,VWS V14.01,2013-11-17 01:23:00,
2013-11-16 17:24:00,53.8,52.1,29.62,WSW,248,8.5,12.5,94,0.00,,,0.00,VWS V14.01,2013-11-17 01:24:00,
2013-11-16 17:25:00,53.8,52.1,29.62,WSW,248,15.2,15.2,94,0.00,,,0.00,VWS V14.01,2013-11-17 01:25:00,
2013-11-16 17:26:00,53.8,52.1,29.62,WNW,292,17.0,17.0,94,0.00,,,0.00,VWS V14.01,2013-11-17 01:26:00,
2013-11-16 17:27:00,53.8,52.1,29.62,WNW,292,7.6,17.0,94,0.00,,,0.00,VWS V14.01,2013-11-17 01:27:00,
2013-11-16 17:28:00,53.8,52.1,29.62,NW,315,14.8,17.0,94,0.00,,,0.00,VWS V14.01,2013-11-17 01:28:00,
2013-11-16 17:29:00,53.8,52.1,29.62,WNW,292,13.0,17.0,94,0.00,,,0.00,VWS V14.01,2013-11-17 01:29:00,
2013-11-16 17:30:00,53.8,51.8,29.62,West,270,10.5,14.8,93,0.00,,,0.00,VWS V14.01,2013-11-17 01:30:00,
2013-11-16 17:31:00,53.8,51.8,29.62,WNW,292,6.3,14.8,93,0.00,,,0.00,VWS V14.01,2013-11-17 01:31:00,
2013-11-16 17:32:00,53.8,51.8,29.62,WSW,248,10.5,13.0,93,0.00,,,0.00,VWS V14.01,2013-11-17 01:32:00,
2013-11-16 17:33:00,54.0,52.0,29.62,WSW,248,10.5,13.0,93,0.00,,,0.00,VWS V14.01,2013-11-17 01:33:00,
2013-11-16 17:34:00,54.0,52.0,29.62,WNW,292,10.5,10.5,93,0.00,,,0.00,VWS V14.01,2013-11-17 01:34:00,
2013-11-16 17:35:00,54.0,52.0,29.62,WNW,292,12.3,12.3,93,0.00,,,0.00,VWS V14.01,2013-11-17 01:35:00,
2013-11-16 17:36:00,54.0,52.0,29.62,West,270,11.0,12.3,93,0.00,,,0.00,VWS V14.01,2013-11-17 01:36:00,
2013-11-16 17:37:00,54.0,52.0,29.62,WNW,292,11.0,12.3,93,0.00,,,0.00,VWS V14.01,2013-11-17 01:37:00,
2013-11-16 17:38:00,54.0,52.0,29.62,WNW,292,8.1,12.3,93,0.00,,,0.00,VWS V14.01,2013-11-17 01:38:00,
2013-11-16 17:39:00,54.0,52.0,29.62,NNW,338,15.4,15.4,93,0.00,,,0.00,VWS V14.01,2013-11-17 01:39:00,
2013-11-16 17:40:00,54.0,52.0,29.62,WNW,292,7.2,15.4,93,0.00,,,0.00,VWS V14.01,2013-11-17 01:40:00,
2013-11-16 17:41:00,53.8,51.8,29.62,West,270,8.1,15.4,93,0.00,,,0.00,VWS V14.01,2013-11-17 01:41:00,
2013-11-16 17:42:00,53.8,51.8,29.62,WSW,248,8.7,15.4,93,0.00,,,0.00,VWS V14.01,2013-11-17 01:42:00,
2013-11-16 17:44:00,53.8,51.8,29.62,WNW,292,13.2,16.1,93,0.00,,,0.00,VWS V14.01,2013-11-17 01:44:00,
2013-11-16 17:45:00,53.8,51.8,29.62,WNW,292,13.2,16.1,93,0.00,,,0.00,VWS V14.01,2013-11-17 01:45:00,
2013-11-16 17:46:00,53.8,51.8,29.62,WSW,248,10.3,16.1,93,0.00,,,0.00,VWS V14.01,2013-11-17 01:46:00,
2013-11-16 17:47:00,53.8,51.8,29.62,WNW,292,10.5,16.1,93,0.00,,,0.00,VWS V14.01,2013-11-17 01:47:00,
2013-11-16 17:48:00,53.8,51.8,29.62,WNW,292,15.2,15.2,93,0.00,,,0.00,VWS V14.01,2013-11-17 01:48:00,
2013-11-16 17:49:00,53.8,51.8,29.62,NNW,338,8.5,15.9,93,0.00,,,0.00,VWS V14.01,2013-11-17 01:49:00,
2013-11-16 17:50:00,53.8,51.8,29.62,NNW,338,8.5,15.9,93,0.00,,,0.00,VWS V14.01,2013-11-17 01:50:00,
2013-11-16 17:51:00,53.8,51.8,29.62,NNW,338,8.5,15.9,93,0.00,,,0.00,VWS V14.01,2013-11-17 01:51:00,
2013-11-16 17:52:00,53.8,51.8,29.62,WSW,248,6.5,15.9,93,0.00,,,0.00,VWS V14.01,2013-11-17 01:52:00,
2013-11-16 17:53:00,53.8,51.8,29.62,West,270,11.2,15.9,93,0.00,,,0.00,VWS V14.01,2013-11-17 01:53:00,
2013-11-16 17:54:00,53.8,51.8,29.62,West,270,11.0,12.5,93,0.00,,,0.00,VWS V14.01,2013-11-17 01:54:00,
2013-11-16 17:55:00,53.8,51.8,29.62,West,270,11.0,12.5,93,0.00,,,0.00,VWS V14.01,2013-11-17 01:55:00,
2013-11-16 17:56:00,53.8,51.8,29.62,NW,315,12.1,17.2,93,0.00,,,0.00,VWS V14.01,2013-11-17 01:56:00,
2013-11-16 17:57:00,53.8,51.8,29.62,NNW,338,13.4,17.2,93,0.00,,,0.00,VWS V14.01,2013-11-17 01:57:00,
2013-11-16 17:58:00,53.8,51.8,29.62,WNW,292,8.5,17.2,93,0.00,,,0.00,VWS V14.01,2013-11-17 01:58:00,
2013-11-16 17:59:00,53.8,51.8,29.62,WSW,248,10.1,13.4,93,0.00,,,0.00,VWS V14.01,2013-11-17 01:59:00,
2013-11-16 18:00:00,53.8,51.8,29.62,WSW,248,10.1,13.4,93,0.00,,,0.00,VWS V14.01,2013-11-17 02:00:00,
2013-11-16 18:01:00,53.8,51.8,29.62,WNW,292,10.7,13.4,93,0.00,,,0.00,VWS V14.01,2013-11-17 02:01:00,
2013-11-16 18:02:00,53.8,52.1,29.62,WSW,248,9.8,12.5,94,0.00,,,0.00,VWS V14.01,2013-11-17 02:02:00,
2013-11-16 18:03:00,53.8,52.1,29.62,West,270,13.0,13.0,94,0.00,,,0.00,VWS V14.01,2013-11-17 02:03:00,
2013-11-16 18:04:00,53.8,52.1,29.62,West,270,10.7,13.0,94,0.00,,,0.00,VWS V14.01,2013-11-17 02:04:00,
2013-11-16 18:05:00,53.8,52.1,29.62,West,270,10.7,13.0,94,0.00,,,0.00,VWS V14.01,2013-11-17 02:05:00,
2013-11-16 18:06:00,53.8,52.1,29.62,WSW,248,11.0,13.0,94,0.00,,,0.00,VWS V14.01,2013-11-17 02:06:00,
2013-11-16 18:07:00,53.8,52.1,29.62,WSW,248,13.2,13.2,94,0.00,,,0.00,VWS V14.01,2013-11-17 02:07:00,
2013-11-16 18:08:00,53.8,52.1,29.62,NW,315,12.3,13.2,94,0.00,,,0.00,VWS V14.01,2013-11-17 02:08:00,
2013-11-16 18:09:00,53.8,52.1,29.62,West,270,7.8,13.2,94,0.00,,,0.00,VWS V14.01,2013-11-17 02:09:00,
2013-11-16 18:10:00,53.8,52.1,29.62,SW,225,8.7,13.2,94,0.00,,,0.00,VWS V14.01,2013-11-17 02:10:00,
2013-11-16 18:11:00,53.6,51.9,29.62,WNW,292,9.8,12.3,94,0.00,,,0.00,VWS V14.01,2013-11-17 02:11:00,
2013-11-16 18:12:00,53.6,51.9,29.62,WNW,292,9.8,9.8,94,0.00,,,0.00,VWS V14.01,2013-11-17 02:12:00,
2013-11-16 18:13:00,53.6,51.9,29.62,West,270,10.5,10.5,94,0.00,,,0.00,VWS V14.01,2013-11-17 02:13:00,
2013-11-16 18:14:00,53.6,51.9,29.62,NW,315,6.5,10.5,94,0.00,,,0.00,VWS V14.01,2013-11-17 02:14:00,
2013-11-16 18:15:00,53.6,51.9,29.62,NW,315,6.5,10.5,94,0.00,,,0.00,VWS V14.01,2013-11-17 02:15:00,
2013-11-16 18:16:00,53.6,51.9,29.62,West,270,10.7,10.7,94,0.00,,,0.00,VWS V14.01,2013-11-17 02:16:00,
2013-11-16 18:17:00,53.6,51.9,29.62,West,270,9.4,10.7,94,0.00,,,0.00,VWS V14.01,2013-11-17 02:17:00,
2013-11-16 18:18:00,53.6,51.6,29.62,West,270,9.4,10.7,93,0.00,,,0.00,VWS V14.01,2013-11-17 02:18:00,
2013-11-16 18:19:00,53.6,51.9,29.62,West,270,14.5,14.5,94,0.00,,,0.00,VWS V14.01,2013-11-17 02:19:00,
2013-11-16 18:20:00,53.6,51.9,29.62,West,270,14.5,14.5,94,0.00,,,0.00,VWS V14.01,2013-11-17 02:20:00,
2013-11-16 18:21:00,53.6,51.9,29.62,WSW,248,6.5,14.5,94,0.00,,,0.00,VWS V14.01,2013-11-17 02:21:00,
2013-11-16 18:22:00,53.6,51.9,29.62,West,270,12.3,14.5,94,0.00,,,0.00,VWS V14.01,2013-11-17 02:22:00,
2013-11-16 18:23:00,53.6,51.9,29.62,WSW,248,14.8,14.8,94,0.00,,,0.00,VWS V14.01,2013-11-17 02:23:00,
2013-11-16 18:24:00,53.4,52.0,29.62,WNW,292,7.8,14.8,95,0.00,,,0.00,VWS V14.01,2013-11-17 02:24:00,
2013-11-16 18:25:00,53.4,52.0,29.62,WSW,248,7.2,14.8,95,0.00,,,0.00,VWS V14.01,2013-11-17 02:25:00,
2013-11-16 18:26:00,53.4,52.0,29.62,West,270,10.3,14.8,95,0.00,,,0.00,VWS V14.01,2013-11-17 02:26:00,
2013-11-16 18:27:00,53.4,52.0,29.62,NW,315,10.1,10.3,95,0.00,,,0.00,VWS V14.01,2013-11-17 02:27:00,
2013-11-16 18:29:00,53.2,52.1,29.62,WNW,292,6.0,10.7,96,0.00,,,0.00,VWS V14.01,2013-11-17 02:29:00,
2013-11-16 18:30:00,53.2,52.1,29.62,WNW,292,6.0,10.7,96,0.00,,,0.00,VWS V14.01,2013-11-17 02:30:00,
2013-11-16 18:31:00,53.2,52.1,29.62,SW,225,8.5,10.7,96,0.00,,,0.00,VWS V14.01,2013-11-17 02:31:00,
2013-11-16 18:32:00,53.2,52.1,29.62,SW,225,8.5,10.7,96,0.00,,,0.00,VWS V14.01,2013-11-17 02:32:00,
2013-11-16 18:33:00,53.2,52.1,29.62,West,270,6.3,10.7,96,0.00,,,0.00,VWS V14.01,2013-11-17 02:33:00,
2013-11-16 18:34:00,53.1,52.0,29.65,SW,225,10.1,10.7,96,0.00,,,0.00,VWS V14.01,2013-11-17 02:34:00,
2013-11-16 18:35:00,53.1,52.0,29.65,SW,225,10.1,10.7,96,0.00,,,0.00,VWS V14.01,2013-11-17 02:35:00,
2013-11-16 18:36:00,53.1,52.0,29.65,West,270,8.1,10.7,96,0.00,,,0.00,VWS V14.01,2013-11-17 02:36:00,
2013-11-16 18:37:00,53.1,52.2,29.65,WNW,292,12.8,12.8,97,0.00,,,0.00,VWS V14.01,2013-11-17 02:37:00,
2013-11-16 18:38:00,53.1,52.2,29.65,West,270,10.5,12.8,97,0.00,,,0.00,VWS V14.01,2013-11-17 02:38:00,
2013-11-16 18:39:00,53.1,52.2,29.65,SSW,202,6.5,12.8,97,0.00,,,0.00,VWS V14.01,2013-11-17 02:39:00,
2013-11-16 18:40:00,53.1,52.2,29.65,WSW,248,9.8,12.8,97,0.00,,,0.00,VWS V14.01,2013-11-17 02:40:00,
2013-11-16 18:41:00,53.1,52.2,29.65,WNW,292,10.7,10.7,97,0.00,,,0.00,VWS V14.01,2013-11-17 02:41:00,
2013-11-16 18:42:00,53.1,52.2,29.65,WSW,248,12.3,12.3,97,0.00,,,0.00,VWS V14.01,2013-11-17 02:42:00,
2013-11-16 18:43:00,53.1,52.2,29.65,WSW,248,12.3,12.3,97,0.00,,,0.00,VWS V14.01,2013-11-17 02:43:00,
2013-11-16 18:44:00,53.1,52.2,29.65,WSW,248,13.0,13.0,97,0.00,,,0.00,VWS V14.01,2013-11-17 02:44:00,
2013-11-16 18:45:00,53.1,52.2,29.65,West,270,7.8,13.0,97,0.00,,,0.00,VWS V14.01,2013-11-17 02:45:00,
2013-11-16 18:46:00,53.1,52.2,29.65,WSW,248,7.6,13.0,97,0.00,,,0.00,VWS V14.01,2013-11-17 02:46:00,
2013-11-16 18:47:00,53.1,52.2,29.65,West,270,10.1,13.0,97,0.00,,,0.00,VWS V14.01,2013-11-17 02:47:00,
2013-11-16 18:48:00,53.1,52.2,29.65,WSW,248,7.4,13.0,97,0.00,,,0.00,VWS V14.01,2013-11-17 02:48:00,
2013-11-16 18:49:00,53.1,52.2,29.62,WNW,292,2.9,10.1,97,0.00,,,0.00,VWS V14.01,2013-11-17 02:49:00,
2013-11-16 18:50:00,53.1,52.2,29.62,WNW,292,2.9,10.1,97,0.00,,,0.00,VWS V14.01,2013-11-17 02:50:00,
2013-11-16 18:51:00,52.9,52.1,29.62,West,270,6.5,7.4,97,0.00,,,0.00,VWS V14.01,2013-11-17 02:51:00,
2013-11-16 18:52:00,52.9,52.1,29.62,WSW,248,9.4,9.4,97,0.00,,,0.00,VWS V14.01,2013-11-17 02:52:00,
2013-11-16 18:53:00,52.9,52.1,29.62,West,270,6.3,9.4,97,0.00,,,0.00,VWS V14.01,2013-11-17 02:53:00,
2013-11-16 18:54:00,52.9,52.0,29.62,West,270,4.3,9.4,97,0.00,,,0.00,VWS V14.01,2013-11-17 02:54:00,
2013-11-16 18:55:00,52.9,52.1,29.62,WNW,292,6.0,9.4,97,0.00,,,0.00,VWS V14.01,2013-11-17 02:55:00,
2013-11-16 18:56:00,52.9,52.1,29.62,WSW,248,3.4,9.4,97,0.00,,,0.00,VWS V14.01,2013-11-17 02:56:00,
2013-11-16 18:57:00,52.9,52.1,29.62,WNW,292,2.5,6.0,97,0.00,,,0.00,VWS V14.01,2013-11-17 02:57:00,
2013-11-16 18:58:00,52.7,51.9,29.62,NW,315,3.1,6.0,97,0.00,,,0.00,VWS V14.01,2013-11-17 02:58:00,
2013-11-16 18:59:00,52.7,51.9,29.62,WSW,248,6.5,6.5,97,0.00,,,0.00,VWS V14.01,2013-11-17 02:59:00,
2013-11-16 19:00:00,52.7,51.9,29.62,WSW,248,6.5,6.5,97,0.00,,,0.00,VWS V14.01,2013-11-17 03:00:00,
2013-11-16 19:01:00,52.7,51.9,29.62,WSW,248,6.5,6.5,97,0.00,,,0.00,VWS V14.01,2013-11-17 03:01:00,
2013-11-16 19:02:00,52.7,51.9,29.62,SW,225,13.0,13.0,97,0.00,,,0.00,VWS V14.01,2013-11-17 03:02:00,
2013-11-16 19:03:00,52.7,51.9,29.62,West,270,3.4,13.0,97,0.00,,,0.00,VWS V14.01,2013-11-17 03:03:00,
2013-11-16 19:04:00,52.7,52.2,29.65,WSW,248,6.3,13.0,98,0.00,,,0.00,VWS V14.01,2013-11-17 03:04:00,
2013-11-16 19:05:00,52.7,52.2,29.65,WSW,248,6.3,13.0,98,0.00,,,0.00,VWS V14.01,2013-11-17 03:05:00,
2013-11-16 19:06:00,52.7,52.2,29.65,WSW,248,7.4,12.1,98,0.00,,,0.00,VWS V14.01,2013-11-17 03:06:00,
2013-11-16 19:07:00,52.7,52.2,29.65,WSW,248,6.5,12.1,98,0.00,,,0.00,VWS V14.01,2013-11-17 03:07:00,
2013-11-16 19:08:00,52.7,52.2,29.65,WSW,248,6.5,12.1,98,0.00,,,0.00,VWS V14.01,2013-11-17 03:08:00,
2013-11-16 19:09:00,52.7,52.2,29.65,WNW,292,11.9,11.9,98,0.00,,,0.00,VWS V14.01,2013-11-17 03:09:00,
2013-11-16 19:10:00,52.7,52.2,29.65,WNW,292,11.9,11.9,98,0.00,,,0.00,VWS V14.01,2013-11-17 03:10:00,
2013-11-16 19:11:00,52.7,52.2,29.65,WSW,248,7.6,11.9,98,0.00,,,0.00,VWS V14.01,2013-11-17 03:11:00,
2013-11-16 19:12:00,52.7,52.2,29.65,SSW,202,8.5,11.9,98,0.00,,,0.00,VWS V14.01,2013-11-17 03:12:00,
2013-11-16 19:13:00,52.7,52.2,29.65,South,180,5.4,11.9,98,0.00,,,0.00,VWS V14.01,2013-11-17 03:13:00,
2013-11-16 19:14:00,52.7,52.2,29.65,WSW,248,6.5,11.4,98,0.00,,,0.00,VWS V14.01,2013-11-17 03:14:00,
2013-11-16 19:15:00,52.7,52.2,29.65,WSW,248,6.5,11.4,98,0.00,,,0.00,VWS V14.01,2013-11-17 03:15:00,
2013-11-16 19:16:00,52.7,52.2,29.65,WSW,248,7.4,11.4,98,0.00,,,0.00,VWS V14.01,2013-11-17 03:16:00,
2013-11-16 19:17:00,52.7,52.2,29.65,WNW,292,6.5,11.4,98,0.00,,,0.00,VWS V14.01,2013-11-17 03:17:00,
2013-11-16 19:18:00,52.7,52.2,29.65,West,270,6.7,7.4,98,0.00,,,0.00,VWS V14.01,2013-11-17 03:18:00,
2013-11-16 19:19:00,52.7,52.2,29.65,SW,225,10.5,10.5,98,0.00,,,0.00,VWS V14.01,2013-11-17 03:19:00,
2013-11-16 19:20:00,52.7,52.2,29.65,West,270,4.3,10.5,98,0.00,,,0.00,VWS V14.01,2013-11-17 03:20:00,
2013-11-16 19:21:00,52.7,52.2,29.65,WNW,292,4.3,10.5,98,0.00,,,0.00,VWS V14.01,2013-11-17 03:21:00,
2013-11-16 19:22:00,52.7,52.2,29.65,WSW,248,8.1,10.5,98,0.00,,,0.00,VWS V14.01,2013-11-17 03:22:00,
2013-11-16 19:23:00,52.7,52.2,29.65,WSW,248,13.2,13.2,98,0.00,,,0.00,VWS V14.01,2013-11-17 03:23:00,
2013-11-16 19:24:00,52.5,52.0,29.65,WSW,248,2.9,13.2,98,0.00,,,0.00,VWS V14.01,2013-11-17 03:24:00,
2013-11-16 19:25:00,52.5,52.0,29.65,WSW,248,2.9,13.2,98,0.00,,,0.00,VWS V14.01,2013-11-17 03:25:00,
2013-11-16 19:26:00,52.5,52.0,29.65,WSW,248,2.9,13.2,98,0.00,,,0.00,VWS V14.01,2013-11-17 03:26:00,
2013-11-16 19:27:00,52.5,52.0,29.65,WNW,292,4.3,13.2,98,0.00,,,0.00,VWS V14.01,2013-11-17 03:27:00,
2013-11-16 19:28:00,52.5,52.0,29.65,WNW,292,4.3,13.2,98,0.00,,,0.00,VWS V14.01,2013-11-17 03:28:00,
2013-11-16 19:29:00,52.5,52.0,29.65,WNW,292,4.3,4.3,98,0.00,,,0.00,VWS V14.01,2013-11-17 03:29:00,
2013-11-16 19:30:00,52.5,52.0,29.65,WNW,292,4.3,4.3,98,0.00,,,0.00,VWS V14.01,2013-11-17 03:30:00,
2013-11-16 19:31:00,52.5,52.0,29.65,West,270,14.8,14.8,98,0.00,,,0.00,VWS V14.01,2013-11-17 03:31:00,
2013-11-16 19:32:00,52.5,52.0,29.65,WNW,292,5.8,14.8,98,0.00,,,0.00,VWS V14.01,2013-11-17 03:32:00,
2013-11-16 19:33:00,52.5,52.0,29.65,WSW,248,2.7,14.8,98,0.00,,,0.00,VWS V14.01,2013-11-17 03:33:00,
2013-11-16 19:34:00,52.5,52.0,29.65,WSW,248,2.7,14.8,98,0.00,,,0.00,VWS V14.01,2013-11-17 03:34:00,
2013-11-16 19:36:00,52.5,52.0,29.65,WSW,248,2.7,5.8,98,0.00,,,0.00,VWS V14.01,2013-11-17 03:36:00,
2013-11-16 19:37:00,52.5,52.0,29.65,WSW,248,2.7,2.7,98,0.00,,,0.00,VWS V14.01,2013-11-17 03:37:00,
2013-11-16 19:38:00,52.5,52.0,29.65,WSW,248,10.1,10.1,98,0.00,,,0.00,VWS V14.01,2013-11-17 03:38:00,
2013-11-16 19:39:00,52.5,52.0,29.65,WNW,292,12.3,12.3,98,0.00,,,0.00,VWS V14.01,2013-11-17 03:39:00,
2013-11-16 19:40:00,52.5,52.0,29.65,WNW,292,12.3,12.3,98,0.00,,,0.00,VWS V14.01,2013-11-17 03:40:00,
2013-11-16 19:41:00,52.5,52.0,29.65,WSW,248,11.2,12.3,98,0.00,,,0.00,VWS V14.01,2013-11-17 03:41:00,
2013-11-16 19:42:00,52.5,52.0,29.65,WSW,248,11.2,12.3,98,0.00,,,0.00,VWS V14.01,2013-11-17 03:42:00,
2013-11-16 19:43:00,52.5,52.0,29.65,WNW,292,13.0,13.0,98,0.00,,,0.00,VWS V14.01,2013-11-17 03:43:00,
2013-11-16 19:44:00,52.7,52.2,29.65,WSW,248,15.2,15.2,98,0.00,,,0.00,VWS V14.01,2013-11-17 03:44:00,
2013-11-16 19:45:00,52.7,52.2,29.65,WSW,248,15.2,15.2,98,0.00,,,0.00,VWS V14.01,2013-11-17 03:45:00,
2013-11-16 19:46:00,52.7,52.2,29.65,WSW,248,15.2,15.2,98,0.00,,,0.00,VWS V14.01,2013-11-17 03:46:00,
2013-11-16 19:47:00,52.7,52.2,29.65,WSW,248,15.2,15.2,98,0.00,,,0.00,VWS V14.01,2013-11-17 03:47:00,
2013-11-16 19:48:00,52.7,52.2,29.65,WSW,248,15.2,15.2,98,0.00,,,0.00,VWS V14.01,2013-11-17 03:48:00,
2013-11-16 19:49:00,52.7,52.2,29.65,SW,225,7.6,15.2,98,0.00,,,0.00,VWS V14.01,2013-11-17 03:49:00,
2013-11-16 19:50:00,52.7,52.2,29.65,SW,225,7.6,15.2,98,0.00,,,0.00,VWS V14.01,2013-11-17 03:50:00,
2013-11-16 19:51:00,52.7,52.2,29.65,West,270,6.5,15.2,98,0.00,,,0.00,VWS V14.01,2013-11-17 03:51:00,
2013-11-16 19:52:00,52.7,52.2,29.65,WSW,248,14.3,15.2,98,0.00,,,0.00,VWS V14.01,2013-11-17 03:52:00,
2013-11-16 19:53:00,52.7,52.2,29.65,WSW,248,14.3,14.3,98,0.00,,,0.00,VWS V14.01,2013-11-17 03:53:00,
2013-11-16 19:54:00,52.7,52.2,29.65,WSW,248,10.7,14.5,98,0.00,,,0.00,VWS V14.01,2013-11-17 03:54:00,
2013-11-16 19:55:00,52.7,52.2,29.65,WSW,248,10.7,14.5,98,0.00,,,0.00,VWS V14.01,2013-11-17 03:55:00,
2013-11-16 19:56:00,52.7,52.2,29.65,WSW,248,10.7,14.5,98,0.00,,,0.00,VWS V14.01,2013-11-17 03:56:00,
2013-11-16 19:57:00,52.7,52.2,29.65,WSW,248,10.7,14.5,98,0.00,,,0.00,VWS V14.01,2013-11-17 03:57:00,
2013-11-16 19:59:00,52.5,52.0,29.65,WSW,248,10.7,10.7,98,0.00,,,0.00,VWS V14.01,2013-11-17 03:59:00,
2013-11-16 20:00:00,52.5,52.0,29.65,WSW,248,10.7,10.7,98,0.00,,,0.00,VWS V14.01,2013-11-17 04:00:00,
2013-11-16 20:01:00,52.5,52.0,29.65,WSW,248,10.7,10.7,98,0.00,,,0.00,VWS V14.01,2013-11-17 04:01:00,
2013-11-16 20:02:00,52.5,52.0,29.65,WSW,248,10.7,10.7,98,0.00,,,0.00,VWS V14.01,2013-11-17 04:02:00,
2013-11-16 20:03:00,52.5,52.0,29.65,West,270,6.5,10.7,98,0.00,,,0.00,VWS V14.01,2013-11-17 04:03:00,
2013-11-16 20:04:00,52.5,52.0,29.65,West,270,6.5,10.7,98,0.00,,,0.00,VWS V14.01,2013-11-17 04:04:00,
2013-11-16 20:05:00,52.5,52.0,29.65,West,270,7.8,10.7,98,0.00,,,0.00,VWS V14.01,2013-11-17 04:05:00,
2013-11-16 20:06:00,52.5,52.0,29.65,WNW,292,10.1,10.7,98,0.00,,,0.00,VWS V14.01,2013-11-17 04:06:00,
2013-11-16 20:07:00,52.5,52.0,29.65,WSW,248,10.3,10.3,98,0.00,,,0.00,VWS V14.01,2013-11-17 04:07:00,
2013-11-16 20:08:00,52.5,52.0,29.65,West,270,6.5,10.3,98,0.00,,,0.00,VWS V14.01,2013-11-17 04:08:00,
2013-11-16 20:09:00,52.5,52.0,29.65,NNW,338,6.3,10.3,98,0.00,,,0.00,VWS V14.01,2013-11-17 04:09:00,
2013-11-16 20:10:00,52.5,52.0,29.65,NNW,338,6.3,10.3,98,0.00,,,0.00,VWS V14.01,2013-11-17 04:10:00,
2013-11-16 20:11:00,52.5,52.0,29.65,WNW,292,8.7,10.3,98,0.00,,,0.00,VWS V14.01,2013-11-17 04:11:00,
2013-11-16 20:12:00,52.3,51.8,29.65,WNW,292,2.7,8.7,98,0.00,,,0.00,VWS V14.01,2013-11-17 04:12:00,
2013-11-16 20:13:00,52.3,51.8,29.65,WNW,292,2.7,8.7,98,0.00,,,0.00,VWS V14.01,2013-11-17 04:13:00,
2013-11-16 20:14:00,52.3,51.8,29.65,WNW,292,2.7,8.7,98,0.00,,,0.00,VWS V14.01,2013-11-17 04:14:00,
2013-11-16 20:15:00,52.3,51.8,29.65,WNW,292,2.7,8.7,98,0.00,,,0.00,VWS V14.01,2013-11-17 04:15:00,
2013-11-16 20:16:00,52.3,51.8,29.65,West,270,8.1,8.1,98,0.00,,,0.00,VWS V14.01,2013-11-17 04:16:00,
2013-11-16 20:17:00,52.3,51.8,29.65,WSW,248,11.0,11.0,98,0.00,,,0.00,VWS V14.01,2013-11-17 04:17:00,
2013-11-16 20:18:00,52.3,51.8,29.65,WSW,248,11.0,11.0,98,0.00,,,0.00,VWS V14.01,2013-11-17 04:18:00,
2013-11-16 20:19:00,52.3,51.8,29.65,WSW,248,12.3,12.3,98,0.00,,,0.00,VWS V14.01,2013-11-17 04:19:00,
2013-11-16 20:20:00,52.3,51.8,29.65,West,270,7.6,12.3,98,0.00,,,0.00,VWS V14.01,2013-11-17 04:20:00,
2013-11-16 20:21:00,52.5,52.0,29.65,SW,225,13.2,13.2,98,0.00,,,0.00,VWS V14.01,2013-11-17 04:21:00,
2013-11-16 20:22:00,52.5,52.0,29.65,WSW,248,9.8,13.2,98,0.00,,,0.00,VWS V14.01,2013-11-17 04:22:00,
2013-11-16 20:23:00,52.5,52.0,29.65,WSW,248,9.8,13.2,98,0.00,,,0.00,VWS V14.01,2013-11-17 04:23:00,
2013-11-16 20:24:00,52.3,51.8,29.65,West,270,4.9,13.2,98,0.00,,,0.00,VWS V14.01,2013-11-17 04:24:00,
2013-11-16 20:25:00,52.3,51.8,29.65,West,270,4.9,13.2,98,0.00,,,0.00,VWS V14.01,2013-11-17 04:25:00,
2013-11-16 20:26:00,52.3,51.8,29.65,WNW,292,7.6,9.8,98,0.00,,,0.00,VWS V14.01,2013-11-17 04:26:00,
2013-11-16 20:27:00,52.3,51.8,29.65,WNW,292,7.6,9.8,98,0.00,,,0.00,VWS V14.01,2013-11-17 04:27:00,
2013-11-16 20:28:00,52.3,51.8,29.65,WNW,292,11.0,11.0,98,0.00,,,0.00,VWS V14.01,2013-11-17 04:28:00,
2013-11-16 20:29:00,52.3,51.8,29.65,West,270,9.8,11.0,98,0.00,,,0.00,VWS V14.01,2013-11-17 04:29:00,
2013-11-16 20:30:00,52.3,51.8,29.65,WSW,248,12.3,12.3,98,0.00,,,0.00,VWS V14.01,2013-11-17 04:30:00,
2013-11-16 20:31:00,52.3,51.8,29.65,WSW,248,12.3,12.3,98,0.00,,,0.00,VWS V14.01,2013-11-17 04:31:00,
2013-11-16 20:32:00,52.3,51.8,29.65,West,270,8.5,12.3,98,0.00,,,0.00,VWS V14.01,2013-11-17 04:32:00,
2013-11-16 20:33:00,52.3,51.8,29.65,WNW,292,8.5,12.3,98,0.00,,,0.00,VWS V14.01,2013-11-17 04:33:00,
2013-11-16 20:34:00,52.3,51.8,29.65,West,270,5.6,12.3,98,0.00,,,0.00,VWS V14.01,2013-11-17 04:34:00,
2013-11-16 20:35:00,52.3,51.8,29.65,West,270,5.6,8.5,98,0.00,,,0.00,VWS V14.01,2013-11-17 04:35:00,
2013-11-16 20:36:00,52.3,51.8,29.65,West,270,5.6,8.5,98,0.00,,,0.00,VWS V14.01,2013-11-17 04:36:00,
2013-11-16 20:37:00,52.2,51.6,29.65,WSW,248,8.7,8.7,98,0.00,,,0.00,VWS V14.01,2013-11-17 04:37:00,
2013-11-16 20:38:00,52.2,51.6,29.65,WSW,248,10.1,10.1,98,0.00,,,0.00,VWS V14.01,2013-11-17 04:38:00,
2013-11-16 20:39:00,52.2,51.6,29.65,WNW,292,3.6,10.7,98,0.00,,,0.00,VWS V14.01,2013-11-17 04:39:00,
2013-11-16 20:40:00,52.2,51.6,29.65,WNW,292,3.6,10.7,98,0.00,,,0.00,VWS V14.01,2013-11-17 04:40:00,
2013-11-16 20:41:00,52.2,51.6,29.65,WSW,248,6.5,10.7,98,0.00,,,0.00,VWS V14.01,2013-11-17 04:41:00,
2013-11-16 20:42:00,52.2,51.6,29.65,WSW,248,6.5,10.7,98,0.00,,,0.00,VWS V14.01,2013-11-17 04:42:00,
2013-11-16 20:43:00,52.2,51.6,29.65,West,270,4.9,10.7,98,0.00,,,0.00,VWS V14.01,2013-11-17 04:43:00,
2013-11-16 20:44:00,52.2,51.6,29.65,WSW,248,7.8,7.8,98,0.00,,,0.00,VWS V14.01,2013-11-17 04:44:00,
2013-11-16 20:45:00,52.2,51.6,29.65,WSW,248,7.8,7.8,98,0.00,,,0.00,VWS V14.01,2013-11-17 04:45:00,
2013-11-16 20:46:00,52.0,51.4,29.65,WSW,248,3.1,7.8,98,0.00,,,0.00,VWS V14.01,2013-11-17 04:46:00,
2013-11-16 20:47:00,52.0,51.4,29.65,WSW,248,3.1,7.8,98,0.00,,,0.00,VWS V14.01,2013-11-17 04:47:00,
2013-11-16 20:48:00,52.0,51.4,29.65,WSW,248,6.5,7.8,98,0.00,,,0.00,VWS V14.01,2013-11-17 04:48:00,
2013-11-16 20:49:00,51.8,51.3,29.68,WSW,248,6.5,6.5,98,0.00,,,0.00,VWS V14.01,2013-11-17 04:49:00,
2013-11-16 20:50:00,51.8,51.3,29.68,WSW,248,6.7,6.7,98,0.00,,,0.00,VWS V14.01,2013-11-17 04:50:00,
2013-11-16 20:51:00,52.0,51.4,29.68,WNW,292,5.8,6.7,98,0.00,,,0.00,VWS V14.01,2013-11-17 04:51:00,
2013-11-16 20:52:00,52.0,51.4,29.68,SW,225,6.0,6.7,98,0.00,,,0.00,VWS V14.01,2013-11-17 04:52:00,
2013-11-16 20:53:00,51.8,51.3,29.68,NW,315,4.0,6.7,98,0.00,,,0.00,VWS V14.01,2013-11-17 04:53:00,
2013-11-16 20:54:00,51.8,51.3,29.68,SW,225,4.9,6.0,98,0.00,,,0.00,VWS V14.01,2013-11-17 04:54:00,
2013-11-16 20:55:00,51.8,51.3,29.68,SW,225,4.9,6.0,98,0.00,,,0.00,VWS V14.01,2013-11-17 04:55:00,
2013-11-16 20:56:00,51.8,51.3,29.68,WSW,248,4.9,4.9,98,0.00,,,0.00,VWS V14.01,2013-11-17 04:56:00,
2013-11-16 20:57:00,51.8,51.3,29.68,WSW,248,3.1,4.9,98,0.00,,,0.00,VWS V14.01,2013-11-17 04:57:00,
2013-11-16 20:58:00,51.6,51.1,29.68,WSW,248,5.4,5.8,98,0.00,,,0.00,VWS V14.01,2013-11-17 04:58:00,
2013-11-16 20:59:00,51.6,51.1,29.68,WSW,248,6.3,6.3,98,0.00,,,0.00,VWS V14.01,2013-11-17 04:59:00,
2013-11-16 21:00:00,51.8,51.3,29.68,WSW,248,6.3,6.3,98,0.00,,,0.00,VWS V14.01,2013-11-17 05:00:00,
2013-11-16 21:01:00,51.8,51.3,29.68,WSW,248,5.6,6.3,98,0.00,,,0.00,VWS V14.01,2013-11-17 05:01:00,
2013-11-16 21:02:00,51.8,51.3,29.68,West,270,3.6,6.3,98,0.00,,,0.00,VWS V14.01,2013-11-17 05:02:00,
2013-11-16 21:03:00,51.8,51.3,29.68,WSW,248,5.6,6.3,98,0.00,,,0.00,VWS V14.01,2013-11-17 05:03:00,
2013-11-16 21:04:00,51.8,51.3,29.68,WSW,248,7.6,7.6,98,0.00,,,0.00,VWS V14.01,2013-11-17 05:04:00,
2013-11-16 21:05:00,51.8,51.3,29.68,SW,225,7.4,7.6,98,0.00,,,0.00,VWS V14.01,2013-11-17 05:05:00,
2013-11-16 21:06:00,51.8,51.3,29.68,SW,225,9.8,9.8,98,0.00,,,0.00,VWS V14.01,2013-11-17 05:06:00,
2013-11-16 21:07:00,51.8,51.3,29.68,SW,225,7.6,9.8,98,0.00,,,0.00,VWS V14.01,2013-11-17 05:07:00,
2013-11-16 21:08:00,51.8,51.3,29.68,SW,225,5.6,9.8,98,0.00,,,0.00,VWS V14.01,2013-11-17 05:08:00,
2013-11-16 21:09:00,51.8,51.3,29.68,SW,225,7.4,9.8,98,0.00,,,0.00,VWS V14.01,2013-11-17 05:09:00,
2013-11-16 21:10:00,51.8,51.3,29.68,WSW,248,7.4,7.6,98,0.00,,,0.00,VWS V14.01,2013-11-17 05:10:00,
2013-11-16 21:11:00,51.8,51.3,29.68,WSW,248,5.6,7.4,98,0.00,,,0.00,VWS V14.01,2013-11-17 05:11:00,
2013-11-16 21:12:00,51.8,51.3,29.68,WSW,248,8.5,8.5,98,0.00,,,0.00,VWS V14.01,2013-11-17 05:12:00,
2013-11-16 21:13:00,51.8,51.3,29.68,WSW,248,8.5,8.5,98,0.00,,,0.00,VWS V14.01,2013-11-17 05:13:00,
2013-11-16 21:14:00,51.8,51.3,29.68,West,270,12.1,12.1,98,0.00,,,0.00,VWS V14.01,2013-11-17 05:14:00,
2013-11-16 21:15:00,51.8,51.3,29.68,SSW,202,8.5,12.1,98,0.00,,,0.00,VWS V14.01,2013-11-17 05:15:00,
2013-11-16 21:16:00,51.8,51.3,29.68,West,270,6.3,12.1,98,0.00,,,0.00,VWS V14.01,2013-11-17 05:16:00,
2013-11-16 21:17:00,51.8,51.3,29.68,WSW,248,9.2,12.1,98,0.00,,,0.00,VWS V14.01,2013-11-17 05:17:00,
2013-11-16 21:18:00,51.8,51.3,29.68,SW,225,11.0,11.0,98,0.00,,,0.00,VWS V14.01,2013-11-17 05:18:00,
2013-11-16 21:19:00,51.8,51.3,29.68,WSW,248,10.7,11.0,98,0.00,,,0.00,VWS V14.01,2013-11-17 05:19:00,
2013-11-16 21:20:00,51.8,51.3,29.68,WSW,248,10.7,11.0,98,0.00,,,0.00,VWS V14.01,2013-11-17 05:20:00,
2013-11-16 21:21:00,51.8,51.3,29.68,WSW,248,10.7,11.0,98,0.00,,,0.00,VWS V14.01,2013-11-17 05:21:00,
2013-11-16 21:22:00,51.8,51.3,29.68,WSW,248,7.4,10.7,98,0.00,,,0.00,VWS V14.01,2013-11-17 05:22:00,
2013-11-16 21:23:00,51.8,51.3,29.68,WSW,248,7.4,10.7,98,0.00,,,0.00,VWS V14.01,2013-11-17 05:23:00,
2013-11-16 21:24:00,51.8,51.3,29.68,WNW,292,7.6,10.7,98,0.00,,,0.00,VWS V14.01,2013-11-17 05:24:00,
2013-11-16 21:25:00,51.8,51.3,29.68,WSW,248,10.5,10.5,98,0.00,,,0.00,VWS V14.01,2013-11-17 05:25:00,
2013-11-16 21:26:00,51.8,51.3,29.68,SW,225,10.7,10.7,98,0.00,,,0.00,VWS V14.01,2013-11-17 05:26:00,
2013-11-16 21:27:00,51.8,51.3,29.68,SW,225,11.0,11.0,98,0.00,,,0.00,VWS V14.01,2013-11-17 05:27:00,
2013-11-16 21:28:00,51.8,51.3,29.68,WSW,248,12.5,12.5,98,0.00,,,0.00,VWS V14.01,2013-11-17 05:28:00,
2013-11-16 21:29:00,51.8,51.3,29.68,WSW,248,8.5,12.5,98,0.00,,,0.00,VWS V14.01,2013-11-17 05:29:00,
2013-11-16 21:30:00,51.8,51.3,29.68,WSW,248,7.4,12.5,98,0.00,,,0.00,VWS V14.01,2013-11-17 05:30:00,
2013-11-16 21:31:00,51.8,51.3,29.68,SW,225,9.6,12.5,98,0.00,,,0.00,VWS V14.01,2013-11-17 05:31:00,
2013-11-16 21:32:00,51.8,51.3,29.68,WSW,248,6.9,9.6,98,0.00,,,0.00,VWS V14.01,2013-11-17 05:32:00,
2013-11-16 21:33:00,51.8,51.3,29.68,West,270,6.5,9.6,98,0.00,,,0.00,VWS V14.01,2013-11-17 05:33:00,
2013-11-16 21:34:00,51.8,51.3,29.68,WNW,292,6.3,9.6,98,0.00,,,0.00,VWS V14.01,2013-11-17 05:34:00,
2013-11-16 21:35:00,51.8,51.3,29.68,WSW,248,6.5,6.9,98,0.00,,,0.00,VWS V14.01,2013-11-17 05:35:00,
2013-11-16 21:36:00,51.8,51.3,29.68,West,270,6.3,7.6,98,0.00,,,0.00,VWS V14.01,2013-11-17 05:36:00,
2013-11-16 21:37:00,51.8,51.3,29.68,West,270,6.3,7.6,98,0.00,,,0.00,VWS V14.01,2013-11-17 05:37:00,
2013-11-16 21:38:00,51.8,51.3,29.68,West,270,4.5,7.6,98,0.00,,,0.00,VWS V14.01,2013-11-17 05:38:00,
2013-11-16 21:39:00,51.8,51.3,29.68,SW,225,11.0,11.0,98,0.00,,,0.00,VWS V14.01,2013-11-17 05:39:00,
2013-11-16 21:40:00,51.8,51.3,29.68,WSW,248,8.5,11.0,98,0.00,,,0.00,VWS V14.01,2013-11-17 05:40:00,
2013-11-16 21:41:00,51.8,51.3,29.68,WSW,248,9.6,11.0,98,0.00,,,0.00,VWS V14.01,2013-11-17 05:41:00,
2013-11-16 21:42:00,51.8,51.3,29.68,WSW,248,5.6,11.0,98,0.00,,,0.00,VWS V14.01,2013-11-17 05:42:00,
2013-11-16 21:43:00,51.8,51.3,29.68,SW,225,7.6,9.6,98,0.00,,,0.00,VWS V14.01,2013-11-17 05:43:00,
2013-11-16 21:44:00,51.6,51.1,29.68,West,270,6.5,9.6,98,0.00,,,0.00,VWS V14.01,2013-11-17 05:44:00,
2013-11-16 21:45:00,51.6,51.1,29.68,SW,225,8.7,8.7,98,0.00,,,0.00,VWS V14.01,2013-11-17 05:45:00,
2013-11-16 21:46:00,51.6,51.1,29.68,SW,225,7.4,8.7,98,0.00,,,0.00,VWS V14.01,2013-11-17 05:46:00,
2013-11-16 21:47:00,51.6,51.1,29.68,WSW,248,10.1,10.1,98,0.00,,,0.00,VWS V14.01,2013-11-17 05:47:00,
2013-11-16 21:48:00,51.6,51.1,29.68,SW,225,5.4,10.1,98,0.00,,,0.00,VWS V14.01,2013-11-17 05:48:00,
2013-11-16 21:49:00,51.6,51.1,29.68,WSW,248,10.3,10.3,98,0.00,,,0.00,VWS V14.01,2013-11-17 05:49:00,
2013-11-16 21:50:00,51.6,51.1,29.68,WSW,248,10.1,10.3,98,0.00,,,0.00,VWS V14.01,2013-11-17 05:50:00,
2013-11-16 21:51:00,51.6,51.1,29.68,WSW,248,4.3,10.3,98,0.00,,,0.00,VWS V14.01,2013-11-17 05:51:00,
2013-11-16 21:52:00,51.6,51.1,29.68,WSW,248,4.3,10.3,98,0.00,,,0.00,VWS V14.01,2013-11-17 05:52:00,
2013-11-16 21:53:00,51.6,51.1,29.68,WSW,248,9.8,10.1,98,0.00,,,0.00,VWS V14.01,2013-11-17 05:53:00,
2013-11-16 21:54:00,51.6,51.1,29.68,WNW,292,10.7,11.0,98,0.00,,,0.00,VWS V14.01,2013-11-17 05:54:00,
2013-11-16 21:55:00,51.6,51.1,29.68,WSW,248,10.7,11.0,98,0.00,,,0.00,VWS V14.01,2013-11-17 05:55:00,
2013-11-16 21:56:00,51.6,51.1,29.68,WSW,248,8.7,11.0,98,0.00,,,0.00,VWS V14.01,2013-11-17 05:56:00,
2013-11-16 21:57:00,51.6,51.1,29.68,WSW,248,5.6,10.7,98,0.00,,,0.00,VWS V14.01,2013-11-17 05:57:00,
2013-11-16 21:58:00,51.6,51.1,29.68,WSW,248,6.3,10.7,98,0.00,,,0.00,VWS V14.01,2013-11-17 05:58:00,
2013-11-16 21:59:00,51.6,51.1,29.68,WSW,248,5.6,10.7,98,0.00,,,0.00,VWS V14.01,2013-11-17 05:59:00,
2013-11-16 22:00:00,51.6,51.1,29.68,West,270,12.3,12.3,98,0.00,,,0.00,VWS V14.01,2013-11-17 06:00:00,
2013-11-16 22:01:00,51.6,51.1,29.68,West,270,12.3,12.3,98,0.00,,,0.00,VWS V14.01,2013-11-17 06:01:00,
2013-11-16 22:02:00,51.6,51.1,29.68,West,270,7.8,12.3,98,0.00,,,0.00,VWS V14.01,2013-11-17 06:02:00,
2013-11-16 22:03:00,51.6,51.1,29.68,WSW,248,7.4,12.3,98,0.00,,,0.00,VWS V14.01,2013-11-17 06:03:00,
2013-11-16 22:04:00,51.6,51.1,29.68,WSW,248,7.8,12.3,98,0.00,,,0.00,VWS V14.01,2013-11-17 06:04:00,
2013-11-16 22:05:00,51.6,51.1,29.68,West,270,7.4,7.8,98,0.00,,,0.00,VWS V14.01,2013-11-17 06:05:00,
2013-11-16 22:06:00,51.6,51.1,29.68,SW,225,7.8,7.8,98,0.00,,,0.00,VWS V14.01,2013-11-17 06:06:00,
2013-11-16 22:07:00,51.6,51.1,29.68,SW,225,7.8,7.8,98,0.00,,,0.00,VWS V14.01,2013-11-17 06:07:00,
2013-11-16 22:08:00,51.6,51.1,29.68,WSW,248,12.3,12.3,98,0.00,,,0.00,VWS V14.01,2013-11-17 06:08:00,
2013-11-16 22:09:00,51.6,51.1,29.68,WSW,248,10.7,12.3,98,0.00,,,0.00,VWS V14.01,2013-11-17 06:09:00,
2013-11-16 22:10:00,51.6,51.1,29.68,WNW,292,8.5,12.3,98,0.00,,,0.00,VWS V14.01,2013-11-17 06:10:00,
2013-11-16 22:11:00,51.4,50.9,29.68,West,270,6.5,12.3,98,0.00,,,0.00,VWS V14.01,2013-11-17 06:11:00,
2013-11-16 22:12:00,51.4,50.9,29.68,NW,315,8.5,10.7,98,0.00,,,0.00,VWS V14.01,2013-11-17 06:12:00,
2013-11-16 22:13:00,51.4,50.9,29.68,WSW,248,5.4,10.7,98,0.00,,,0.00,VWS V14.01,2013-11-17 06:13:00,
2013-11-16 22:14:00,51.4,50.9,29.68,WSW,248,5.4,8.5,98,0.00,,,0.00,VWS V14.01,2013-11-17 06:14:00,
2013-11-16 22:15:00,51.4,50.9,29.68,WSW,248,15.9,15.9,98,0.00,,,0.00,VWS V14.01,2013-11-17 06:15:00,
2013-11-16 22:16:00,51.4,50.9,29.68,West,270,10.1,15.9,98,0.00,,,0.00,VWS V14.01,2013-11-17 06:16:00,
2013-11-16 22:17:00,51.4,50.9,29.68,SW,225,10.1,15.9,98,0.00,,,0.00,VWS V14.01,2013-11-17 06:17:00,
2013-11-16 22:18:00,51.4,50.9,29.68,SW,225,10.3,15.9,98,0.00,,,0.00,VWS V14.01,2013-11-17 06:18:00,
2013-11-16 22:19:00,51.4,50.9,29.68,SW,225,8.5,10.3,98,0.00,,,0.00,VWS V14.01,2013-11-17 06:19:00,
2013-11-16 22:20:00,51.4,50.9,29.68,SW,225,7.8,10.3,98,0.00,,,0.00,VWS V14.01,2013-11-17 06:20:00,
2013-11-16 22:21:00,51.4,50.9,29.68,WSW,248,8.7,12.8,98,0.00,,,0.00,VWS V14.01,2013-11-17 06:21:00,
2013-11-16 22:22:00,51.4,50.9,29.68,WSW,248,8.7,12.8,98,0.00,,,0.00,VWS V14.01,2013-11-17 06:22:00,
2013-11-16 22:23:00,51.4,50.9,29.68,WSW,248,11.2,12.8,98,0.00,,,0.00,VWS V14.01,2013-11-17 06:23:00,
2013-11-16 22:24:00,51.4,50.9,29.68,SW,225,10.5,12.8,98,0.00,,,0.00,VWS V14.01,2013-11-17 06:24:00,
2013-11-16 22:25:00,51.4,50.9,29.68,SW,225,7.8,11.2,98,0.00,,,0.00,VWS V14.01,2013-11-17 06:25:00,
2013-11-16 22:26:00,51.4,50.9,29.68,SW,225,9.6,11.2,98,0.00,,,0.00,VWS V14.01,2013-11-17 06:26:00,
2013-11-16 22:27:00,51.4,50.9,29.68,WSW,248,7.6,10.5,98,0.00,,,0.00,VWS V14.01,2013-11-17 06:27:00,
2013-11-16 22:28:00,51.4,50.9,29.68,WSW,248,7.6,10.5,98,0.00,,,0.00,VWS V14.01,2013-11-17 06:28:00,
2013-11-16 22:29:00,51.4,50.9,29.68,WSW,248,10.1,10.1,98,0.00,,,0.00,VWS V14.01,2013-11-17 06:29:00,
2013-11-16 22:30:00,51.4,50.9,29.68,West,270,8.1,10.1,98,0.00,,,0.00,VWS V14.01,2013-11-17 06:30:00,
2013-11-16 22:31:00,51.4,50.9,29.68,WSW,248,6.3,10.1,98,0.00,,,0.00,VWS V14.01,2013-11-17 06:31:00,
2013-11-16 22:32:00,51.4,50.9,29.68,WSW,248,10.5,10.5,98,0.00,,,0.00,VWS V14.01,2013-11-17 06:32:00,
2013-11-16 22:33:00,51.4,50.9,29.68,WNW,292,8.5,10.5,98,0.00,,,0.00,VWS V14.01,2013-11-17 06:33:00,
2013-11-16 22:34:00,51.4,50.9,29.68,WSW,248,12.1,12.1,98,0.00,,,0.00,VWS V14.01,2013-11-17 06:34:00,
2013-11-16 22:35:00,51.4,50.9,29.68,SW,225,9.6,12.1,98,0.00,,,0.00,VWS V14.01,2013-11-17 06:35:00,
2013-11-16 22:36:00,51.4,50.9,29.68,WNW,292,6.3,12.1,98,0.00,,,0.00,VWS V14.01,2013-11-17 06:36:00,
2013-11-16 22:37:00,51.4,50.9,29.68,WNW,292,6.3,12.1,98,0.00,,,0.00,VWS V14.01,2013-11-17 06:37:00,
2013-11-16 22:38:00,51.4,50.9,29.68,WNW,292,6.3,12.1,98,0.00,,,0.00,VWS V14.01,2013-11-17 06:38:00,
2013-11-16 22:39:00,51.4,50.9,29.68,West,270,9.6,9.6,98,0.00,,,0.00,VWS V14.01,2013-11-17 06:39:00,
2013-11-16 22:40:00,51.4,50.9,29.68,WSW,248,9.6,9.6,98,0.00,,,0.00,VWS V14.01,2013-11-17 06:40:00,
2013-11-16 22:41:00,51.3,50.7,29.68,SW,225,10.7,10.7,98,0.00,,,0.00,VWS V14.01,2013-11-17 06:41:00,
2013-11-16 22:42:00,51.3,50.7,29.68,WSW,248,11.9,11.9,98,0.00,,,0.00,VWS V14.01,2013-11-17 06:42:00,
2013-11-16 22:43:00,51.4,50.9,29.68,West,270,7.6,11.9,98,0.00,,,0.00,VWS V14.01,2013-11-17 06:43:00,
2013-11-16 22:44:00,51.4,50.9,29.68,SW,225,10.1,11.9,98,0.00,,,0.00,VWS V14.01,2013-11-17 06:44:00,
2013-11-16 22:45:00,51.4,50.9,29.68,SW,225,8.7,11.9,98,0.00,,,0.00,VWS V14.01,2013-11-17 06:45:00,
2013-11-16 22:46:00,51.4,50.9,29.68,WSW,248,10.5,10.5,98,0.00,,,0.00,VWS V14.01,2013-11-17 06:46:00,
2013-11-16 22:47:00,51.4,50.9,29.68,WSW,248,9.4,10.5,98,0.00,,,0.00,VWS V14.01,2013-11-17 06:47:00,
2013-11-16 22:48:00,51.4,50.9,29.68,SW,225,6.5,10.5,98,0.00,,,0.00,VWS V14.01,2013-11-17 06:48:00,
2013-11-16 22:49:00,51.4,50.9,29.68,WSW,248,8.7,10.5,98,0.00,,,0.00,VWS V14.01,2013-11-17 06:49:00,
2013-11-16 22:50:00,51.4,50.9,29.68,WSW,248,11.9,11.9,98,0.00,,,0.00,VWS V14.01,2013-11-17 06:50:00,
2013-11-16 22:51:00,51.4,50.9,29.68,WSW,248,11.9,11.9,98,0.00,,,0.00,VWS V14.01,2013-11-17 06:51:00,
2013-11-16 22:52:00,51.4,50.9,29.68,West,270,7.6,11.9,98,0.00,,,0.00,VWS V14.01,2013-11-17 06:52:00,
2013-11-16 22:53:00,51.4,50.9,29.68,West,270,7.6,11.9,98,0.00,,,0.00,VWS V14.01,2013-11-17 06:53:00,
2013-11-16 22:54:00,51.4,50.9,29.68,West,270,7.6,11.9,98,0.00,,,0.00,VWS V14.01,2013-11-17 06:54:00,
2013-11-16 22:55:00,51.4,50.9,29.68,SSW,202,12.8,12.8,98,0.00,,,0.00,VWS V14.01,2013-11-17 06:55:00,
2013-11-16 22:56:00,51.4,50.9,29.68,West,270,8.7,12.8,98,0.00,,,0.00,VWS V14.01,2013-11-17 06:56:00,
2013-11-16 22:57:00,51.3,50.7,29.68,West,270,8.7,12.8,98,0.00,,,0.00,VWS V14.01,2013-11-17 06:57:00,
2013-11-16 22:58:00,51.3,50.7,29.68,WSW,248,9.0,12.8,98,0.00,,,0.00,VWS V14.01,2013-11-17 06:58:00,
2013-11-16 22:59:00,51.3,50.7,29.68,SW,225,5.4,12.8,98,0.00,,,0.00,VWS V14.01,2013-11-17 06:59:00,
2013-11-16 23:00:00,51.3,50.7,29.68,West,270,10.1,10.1,98,0.00,,,0.00,VWS V14.01,2013-11-17 07:00:00,
2013-11-16 23:01:00,51.3,50.7,29.68,WSW,248,14.8,14.8,98,0.00,,,0.00,VWS V14.01,2013-11-17 07:01:00,
2013-11-16 23:02:00,51.3,50.7,29.68,WSW,248,14.8,14.8,98,0.00,,,0.00,VWS V14.01,2013-11-17 07:02:00,
2013-11-16 23:03:00,51.3,50.7,29.68,WSW,248,11.2,14.8,98,0.00,,,0.00,VWS V14.01,2013-11-17 07:03:00,
2013-11-16 23:04:00,51.3,50.7,29.68,West,270,5.6,14.8,98,0.00,,,0.00,VWS V14.01,2013-11-17 07:04:00,
2013-11-16 23:05:00,51.3,50.7,29.68,WSW,248,12.1,14.8,98,0.00,,,0.00,VWS V14.01,2013-11-17 07:05:00,
2013-11-16 23:06:00,51.3,50.7,29.68,WSW,248,7.8,12.1,98,0.00,,,0.00,VWS V14.01,2013-11-17 07:06:00,
2013-11-16 23:07:00,51.3,50.7,29.68,West,270,9.0,12.1,98,0.00,,,0.00,VWS V14.01,2013-11-17 07:07:00,
2013-11-16 23:08:00,51.3,50.7,29.68,WNW,292,12.1,12.1,98,0.00,,,0.00,VWS V14.01,2013-11-17 07:08:00,
2013-11-16 23:09:00,51.3,50.7,29.68,WSW,248,11.0,12.1,98,0.00,,,0.00,VWS V14.01,2013-11-17 07:09:00,
2013-11-16 23:10:00,51.3,50.7,29.68,SSW,202,6.5,12.1,98,0.00,,,0.00,VWS V14.01,2013-11-17 07:10:00,
2013-11-16 23:11:00,51.1,50.5,29.68,WSW,248,10.7,12.1,98,0.00,,,0.00,VWS V14.01,2013-11-17 07:11:00,
2013-11-16 23:12:00,51.1,50.5,29.68,WSW,248,10.3,12.1,98,0.00,,,0.00,VWS V14.01,2013-11-17 07:12:00,
2013-11-16 23:13:00,50.9,50.4,29.68,SW,225,7.8,10.7,98,0.00,,,0.00,VWS V14.01,2013-11-17 07:13:00,
2013-11-16 23:14:00,50.9,50.4,29.68,WSW,248,7.8,10.7,98,0.00,,,0.00,VWS V14.01,2013-11-17 07:14:00,
2013-11-16 23:15:00,50.9,50.4,29.68,SW,225,12.1,12.1,98,0.00,,,0.00,VWS V14.01,2013-11-17 07:15:00,
2013-11-16 23:16:00,50.9,50.4,29.68,WSW,248,6.0,12.1,98,0.00,,,0.00,VWS V14.01,2013-11-17 07:16:00,
2013-11-16 23:17:00,50.9,50.4,29.68,WSW,248,11.0,12.1,98,0.00,,,0.00,VWS V14.01,2013-11-17 07:17:00,
2013-11-16 23:18:00,50.9,50.4,29.68,West,270,7.6,12.1,98,0.00,,,0.00,VWS V14.01,2013-11-17 07:18:00,
2013-11-16 23:19:00,50.9,50.4,29.68,WNW,292,12.8,12.8,98,0.00,,,0.00,VWS V14.01,2013-11-17 07:19:00,
2013-11-16 23:20:00,50.7,50.2,29.68,NW,315,8.7,12.8,98,0.00,,,0.00,VWS V14.01,2013-11-17 07:20:00,
2013-11-16 23:21:00,50.5,50.0,29.68,SW,225,14.5,14.5,98,0.00,,,0.00,VWS V14.01,2013-11-17 07:21:00,
2013-11-16 23:22:00,50.5,50.0,29.68,SW,225,13.2,14.5,98,0.00,,,0.00,VWS V14.01,2013-11-17 07:22:00,
2013-11-16 23:23:00,50.5,50.0,29.68,WSW,248,11.0,14.5,98,0.00,,,0.00,VWS V14.01,2013-11-17 07:23:00,
2013-11-16 23:24:00,50.5,50.0,29.68,West,270,8.7,11.0,98,0.00,,,0.00,VWS V14.01,2013-11-17 07:24:00,
2013-11-16 23:25:00,50.5,50.0,29.68,WNW,292,10.1,11.0,98,0.00,,,0.00,VWS V14.01,2013-11-17 07:25:00,
2013-11-16 23:26:00,50.5,50.0,29.68,WSW,248,10.3,11.0,98,0.00,,,0.00,VWS V14.01,2013-11-17 07:26:00,
2013-11-16 23:27:00,50.4,49.8,29.68,WSW,248,12.8,12.8,98,0.00,,,0.00,VWS V14.01,2013-11-17 07:27:00,
2013-11-16 23:28:00,50.4,49.8,29.68,NW,315,14.8,14.8,98,0.00,,,0.00,VWS V14.01,2013-11-17 07:28:00,
2013-11-16 23:29:00,50.4,49.8,29.68,NW,315,14.8,14.8,98,0.00,,,0.00,VWS V14.01,2013-11-17 07:29:00,
2013-11-16 23:30:00,50.4,49.8,29.68,WSW,248,12.5,14.8,98,0.00,,,0.00,VWS V14.01,2013-11-17 07:30:00,
2013-11-16 23:31:00,50.4,49.8,29.68,WNW,292,8.5,14.8,98,0.00,,,0.00,VWS V14.01,2013-11-17 07:31:00,
2013-11-16 23:32:00,50.4,49.8,29.68,West,270,12.1,14.8,98,0.00,,,0.00,VWS V14.01,2013-11-17 07:32:00,
2013-11-16 23:33:00,50.4,49.8,29.68,WSW,248,10.1,12.5,98,0.00,,,0.00,VWS V14.01,2013-11-17 07:33:00,
2013-11-16 23:34:00,50.4,49.8,29.68,WSW,248,10.3,12.1,98,0.00,,,0.00,VWS V14.01,2013-11-17 07:34:00,
2013-11-16 23:35:00,50.4,49.8,29.68,West,270,14.3,14.3,98,0.00,,,0.00,VWS V14.01,2013-11-17 07:35:00,
2013-11-16 23:36:00,50.4,49.8,29.68,WSW,248,11.9,14.3,98,0.00,,,0.00,VWS V14.01,2013-11-17 07:36:00,
2013-11-16 23:37:00,50.4,49.8,29.68,WSW,248,12.1,14.3,98,0.00,,,0.00,VWS V14.01,2013-11-17 07:37:00,
2013-11-16 23:38:00,50.4,49.8,29.68,WSW,248,12.8,14.3,98,0.00,,,0.00,VWS V14.01,2013-11-17 07:38:00,
2013-11-16 23:39:00,50.4,49.8,29.68,WSW,248,8.1,12.8,98,0.00,,,0.00,VWS V14.01,2013-11-17 07:39:00,
2013-11-16 23:40:00,50.4,49.8,29.68,West,270,6.0,12.8,98,0.00,,,0.00,VWS V14.01,2013-11-17 07:40:00,
2013-11-16 23:41:00,50.4,49.8,29.68,WSW,248,9.8,12.8,98,0.00,,,0.00,VWS V14.01,2013-11-17 07:41:00,
2013-11-16 23:42:00,50.4,49.8,29.68,WNW,292,8.1,9.8,98,0.00,,,0.00,VWS V14.01,2013-11-17 07:42:00,
2013-11-16 23:43:00,50.4,49.8,29.68,WSW,248,6.3,9.8,98,0.00,,,0.00,VWS V14.01,2013-11-17 07:43:00,
2013-11-16 23:44:00,50.4,49.8,29.68,West,270,10.7,10.7,98,0.00,,,0.00,VWS V14.01,2013-11-17 07:44:00,
2013-11-16 23:45:00,50.4,49.8,29.68,WSW,248,7.8,10.7,98,0.00,,,0.00,VWS V14.01,2013-11-17 07:45:00,
2013-11-16 23:46:00,50.4,49.8,29.68,WSW,248,9.8,10.7,98,0.00,,,0.00,VWS V14.01,2013-11-17 07:46:00,
2013-11-16 23:47:00,50.4,49.8,29.68,WSW,248,7.8,10.7,98,0.00,,,0.00,VWS V14.01,2013-11-17 07:47:00,
2013-11-16 23:48:00,50.4,49.8,29.68,SW,225,10.1,10.1,98,0.00,,,0.00,VWS V14.01,2013-11-17 07:48:00,
2013-11-16 23:49:00,50.4,49.8,29.68,WNW,292,10.3,10.3,98,0.00,,,0.00,VWS V14.01,2013-11-17 07:49:00,
2013-11-16 23:50:00,50.4,49.8,29.68,SW,225,9.2,10.3,98,0.00,,,0.00,VWS V14.01,2013-11-17 07:50:00,
2013-11-16 23:51:00,50.4,49.8,29.68,West,270,9.8,10.3,98,0.00,,,0.00,VWS V14.01,2013-11-17 07:51:00,
2013-11-16 23:52:00,50.4,49.8,29.68,WSW,248,6.5,10.3,98,0.00,,,0.00,VWS V14.01,2013-11-17 07:52:00,
2013-11-16 23:53:00,50.4,49.8,29.68,WSW,248,7.8,9.8,98,0.00,,,0.00,VWS V14.01,2013-11-17 07:53:00,
2013-11-16 23:54:00,50.4,49.8,29.68,West,270,8.5,9.8,98,0.00,,,0.00,VWS V14.01,2013-11-17 07:54:00,
2013-11-16 23:55:00,50.4,49.8,29.68,WSW,248,10.7,10.7,98,0.00,,,0.00,VWS V14.01,2013-11-17 07:55:00,
2013-11-16 23:56:00,50.4,49.8,29.68,WSW,248,10.7,10.7,98,0.00,,,0.00,VWS V14.01,2013-11-17 07:56:00,
2013-11-16 23:57:00,50.2,49.6,29.68,West,270,10.1,10.7,98,0.00,,,0.00,VWS V14.01,2013-11-17 07:57:00,
2013-11-16 23:58:00,50.2,49.6,29.68,West,270,10.5,10.7,98,0.00,,,0.00,VWS V14.01,2013-11-17 07:58:00,
2013-11-16 23:59:00,50.2,49.6,29.68,WSW,248,12.1,12.1,98,0.00,,,0.00,VWS V14.01,2013-11-17 07:59:00,